[[{"header":{"parameterUnit":"m.s-1","parameterCategory":1,"la1":30.6,"la2":28.766,"lo1":-90.7593,"lo2":-88.6598,"dx":0.0162,"dy":0.0183,"nx":116,"ny":114,"refTime":"2023-01-24T18:00:00:Z","depth":0,"parameterNumber":2,"parameterNumberName":"U-component_of_WINDS"},"data":[0.0,0.0,0.0,0.0,0.0,0.0,0.0,0.0,0.0,0.0,0.0,0.0,0.0,0.0,0.0,0.0,0.0,0.0,0.0,0.0,0.0,0.0,0.0,0.0,0.0,0.0,0.0,0.0,0.0,0.0,0.0,0.0,0.0,0.0,0.0,0.0,0.0,0.0,0.0,0.0,0.0,0.0,0.0,0.0,0.0,0.0,0.0,0.0,0.0,0.0,0.0,0.0,0.0,0.0,0.0,0.0,0.0,0.0,0.0,0.0,0.0,0.0,0.0,0.0,0.0,0.0,0.0,0.0,0.0,0.0,0.0,0.0,0.0,0.0,0.0,0.0,0.0,0.0,0.0,0.0,0.0,0.0,0.0,0.0,0.0,0.0,0.0,0.0,0.0,0.0,0.0,0.0,0.0,0.0,0.0,0.0,0.0,0.0,0.0,0.0,0.0,0.0,0.0,0.0,0.0,0.0,0.0,0.0,0.0,0.0,0.0,0.0,0.0,0.0,0.0,0.0,0.0,0.0,0.0,0.0,0.0,0.0,0.0,0.0,0.0,0.0,0.0,0.0,0.0,0.0,0.0,0.0,0.0,0.0,0.0,0.0,0.0,0.0,0.0,0.0,0.0,0.0,0.0,0.0,0.0,0.0,0.0,0.0,0.0,0.0,0.0,0.0,0.0,0.0,0.0,0.0,0.0,0.0,0.0,0.0,0.0,0.0,0.0,0.0,0.0,0.0,0.0,0.0,0.0,0.0,0.0,0.0,0.0,0.0,0.0,0.0,0.0,0.0,0.0,0.0,0.0,0.0,0.0,0.0,0.0,0.0,0.0,0.0,0.0,0.0,0.0,0.0,0.0,0.0,0.0,0.0,0.0,0.0,0.0,0.0,0.0,0.0,0.0,0.0,0.0,0.0,0.0,0.0,0.0,0.0,0.0,0.0,0.0,0.0,0.0,0.0,0.0,0.0,0.0,0.0,0.0,0.0,0.0,0.0,0.0,0.0,0.0,0.0,0.0,0.0,0.0,0.0,0.0,0.0,0.0,0.0,0.0,0.0,0.0,0.0,0.0,0.0,0.0,0.0,0.0,0.0,0.0,0.0,0.0,0.0,0.0,0.0,0.0,0.0,0.0,0.0,0.0,0.0,0.0,0.0,0.0,0.0,0.0,0.0,0.0,0.0,0.0,0.0,0.0,0.0,0.0,0.0,0.0,0.0,0.0,0.0,0.0,0.0,0.0,0.0,0.0,0.0,0.0,0.0,0.0,0.0,0.0,0.0,0.0,0.0,0.0,0.0,0.0,0.0,0.0,0.0,0.0,0.0,0.0,0.0,0.0,0.0,0.0,0.0,0.0,0.0,0.0,0.0,0.0,0.0,0.0,0.0,0.0,0.0,0.0,0.0,0.0,0.0,0.0,0.0,0.0,0.0,0.0,0.0,0.0,0.0,0.0,0.0,0.0,0.0,0.0,0.0,0.0,0.0,0.0,0.0,0.0,0.0,0.0,0.0,0.0,0.0,0.0,0.0,0.0,0.0,0.0,0.0,0.0,0.0,0.0,0.0,0.0,0.0,0.0,0.0,0.0,0.0,0.0,0.0,0.0,0.0,0.0,0.0,0.0,0.0,0.0,0.0,0.0,0.0,0.0,0.0,0.0,0.0,0.0,0.0,0.0,0.0,0.0,0.0,0.0,0.0,0.0,0.0,0.0,0.0,0.0,0.0,0.0,0.0,0.0,0.0,0.0,0.0,0.0,0.0,0.0,0.0,0.0,0.0,0.0,0.0,0.0,0.0,0.0,0.0,0.0,0.0,0.0,0.0,0.0,0.0,0.0,0.0,0.0,0.0,0.0,0.0,0.0,0.0,0.0,0.0,0.0,0.0,0.0,0.0,0.0,0.0,0.0,0.0,0.0,0.0,0.0,0.0,0.0,0.0,0.0,0.0,0.0,0.0,0.0,0.0,0.0,0.0,0.0,0.0,0.0,0.0,0.0,0.0,0.0,0.0,0.0,0.0,0.0,0.0,0.0,0.0,0.0,0.0,0.0,0.0,0.0,0.0,0.0,0.0,0.0,0.0,0.0,0.0,0.0,0.0,0.0,0.0,0.0,0.0,0.0,0.0,0.0,0.0,0.0,0.0,0.0,0.0,0.0,0.0,0.0,0.0,0.0,0.0,0.0,0.0,0.0,0.0,0.0,0.0,0.0,0.0,0.0,0.0,0.0,0.0,0.0,0.0,0.0,0.0,0.0,0.0,0.0,0.0,0.0,0.0,0.0,0.0,0.0,0.0,0.0,0.0,0.0,0.0,0.0,0.0,0.0,0.0,0.0,0.0,0.0,0.0,0.0,0.0,0.0,0.0,0.0,0.0,0.0,0.0,0.0,0.0,0.0,0.0,0.0,0.0,0.0,0.0,0.0,0.0,0.0,0.0,0.0,0.0,0.0,0.0,0.0,0.0,0.0,0.0,0.0,0.0,0.0,0.0,0.0,0.0,0.0,0.0,0.0,0.0,0.0,0.0,0.0,0.0,0.0,0.0,0.0,0.0,0.0,0.0,0.0,0.0,0.0,0.0,0.0,0.0,0.0,0.0,0.0,0.0,0.0,0.0,0.0,0.0,0.0,0.0,0.0,0.0,0.0,0.0,0.0,0.0,0.0,0.0,0.0,0.0,0.0,0.0,0.0,0.0,0.0,0.0,0.0,0.0,0.0,0.0,0.0,0.0,0.0,0.0,0.0,0.0,0.0,0.0,0.0,0.0,0.0,0.0,0.0,0.0,0.0,0.0,0.0,0.0,0.0,0.0,0.0,0.0,0.0,0.0,0.0,0.0,0.0,0.0,0.0,0.0,0.0,0.0,0.0,0.0,0.0,0.0,0.0,0.0,0.0,0.0,0.0,0.0,0.0,0.0,0.0,0.0,0.0,0.0,0.0,0.0,0.0,0.0,0.0,0.0,0.0,0.0,0.0,0.0,0.0,0.0,0.0,0.0,0.0,0.0,0.0,0.0,0.0,0.0,0.0,0.0,0.0,0.0,0.0,0.0,0.0,0.0,0.0,0.0,0.0,0.0,0.0,0.0,0.0,0.0,0.0,0.0,0.0,0.0,0.0,0.0,0.0,0.0,0.0,0.0,0.0,0.0,0.0,0.0,0.0,0.0,0.0,0.0,0.0,0.0,0.0,0.0,0.0,0.0,0.0,0.0,0.0,0.0,0.0,0.0,0.0,0.0,0.0,0.0,0.0,0.0,0.0,0.0,0.0,0.0,0.0,0.0,0.0,0.0,0.0,0.0,0.0,0.0,0.0,0.0,0.0,0.0,0.0,0.0,0.0,0.0,0.0,0.0,0.0,0.0,0.0,0.0,0.0,0.0,0.0,0.0,0.0,0.0,0.0,0.0,0.0,0.0,0.0,0.0,0.0,0.0,0.0,0.0,0.0,0.0,0.0,0.0,0.0,0.0,0.0,0.0,0.0,0.0,0.0,0.0,0.0,0.0,0.0,0.0,0.0,0.0,0.0,0.0,0.0,0.0,0.0,0.0,0.0,0.0,0.0,0.0,0.0,0.0,0.0,0.0,0.0,0.0,0.0,0.0,0.0,0.0,0.0,0.0,0.0,0.0,0.0,0.0,0.0,0.0,0.0,0.0,0.0,0.0,0.0,0.0,0.0,0.0,0.0,0.0,0.0,0.0,0.0,0.0,0.0,0.0,0.0,0.0,0.0,0.0,0.0,0.0,0.0,0.0,0.0,0.0,0.0,0.0,0.0,0.0,0.0,0.0,0.0,0.0,0.0,0.0,0.0,0.0,0.0,0.0,0.0,0.0,0.0,0.0,0.0,0.0,0.0,0.0,0.0,0.0,0.0,0.0,0.0,0.0,0.0,0.0,0.0,0.0,0.0,0.0,0.0,0.0,0.0,0.0,0.0,0.0,0.0,0.0,0.0,0.0,0.0,0.0,0.0,0.0,0.0,0.0,0.0,0.0,0.0,0.0,0.0,0.0,0.0,0.0,0.0,0.0,0.0,0.0,0.0,0.0,0.0,0.0,0.0,0.0,0.0,0.0,0.0,0.0,0.0,0.0,0.0,0.0,0.0,0.0,0.0,0.0,0.0,0.0,0.0,0.0,0.0,0.0,0.0,0.0,0.0,0.0,0.0,0.0,0.0,0.0,0.0,0.0,0.0,0.0,0.0,0.0,0.0,0.0,0.0,0.0,0.0,0.0,0.0,0.0,0.0,0.0,0.0,0.0,0.0,0.0,0.0,0.0,0.0,0.0,0.0,0.0,0.0,0.0,0.0,0.0,0.0,0.0,0.0,0.0,0.0,0.0,0.0,0.0,0.0,0.0,0.0,0.0,0.0,0.0,0.0,0.0,0.0,0.0,0.0,0.0,0.0,0.0,0.0,0.0,0.0,0.0,0.0,0.0,0.0,0.0,0.0,0.0,0.0,0.0,0.0,0.0,0.0,0.0,0.0,0.0,0.0,0.0,0.0,0.0,0.0,0.0,0.0,0.0,0.0,0.0,0.0,0.0,0.0,0.0,0.0,0.0,0.0,0.0,0.0,0.0,0.0,0.0,0.0,0.0,0.0,0.0,0.0,0.0,0.0,0.0,0.0,0.0,0.0,0.0,0.0,0.0,0.0,0.0,0.0,0.0,0.0,0.0,0.0,0.0,0.0,0.0,0.0,0.0,0.0,0.0,0.0,0.0,0.0,0.0,0.0,0.0,0.0,0.0,0.0,0.0,0.0,0.0,0.0,0.0,0.0,0.0,0.0,0.0,0.0,0.0,0.0,0.0,0.0,0.0,0.0,0.0,0.0,0.0,0.0,0.0,0.0,0.0,0.0,0.0,0.0,0.0,0.0,0.0,0.0,0.0,0.0,0.0,0.0,0.0,0.0,0.0,0.0,0.0,0.0,0.0,0.0,0.0,0.0,0.0,0.0,0.0,0.0,0.0,0.0,0.0,0.0,0.0,0.0,0.0,0.0,0.0,0.0,0.0,0.0,0.0,0.0,0.0,0.0,0.0,0.0,0.0,0.0,0.0,0.0,0.0,0.0,0.0,0.0,0.0,0.0,0.0,0.0,0.0,0.0,0.0,0.0,0.0,0.0,0.0,0.0,0.0,0.0,0.0,0.0,0.0,0.0,0.0,0.0,0.0,0.0,0.0,0.0,0.0,0.0,0.0,0.0,0.0,0.0,0.0,0.0,0.0,0.0,0.0,0.0,0.0,0.0,0.0,0.0,0.0,0.0,0.0,0.0,0.0,0.0,0.0,0.0,0.0,0.0,0.0,0.0,0.0,0.0,0.0,0.0,0.0,0.0,0.0,0.0,0.0,0.0,0.0,0.0,0.0,0.0,0.0,0.0,0.0,0.0,0.0,0.0,0.0,0.0,0.0,0.0,0.0,0.0,0.0,0.0,0.0,0.0,0.0,0.0,0.0,0.0,0.0,0.0,0.0,0.0,0.0,0.0,0.0,0.0,0.0,0.0,0.0,0.0,0.0,0.0,0.0,0.0,0.0,0.0,0.0,0.0,0.0,0.0,0.0,0.0,0.0,0.0,0.0,0.0,0.0,0.0,0.0,0.0,0.0,0.0,0.0,0.0,0.0,0.0,0.0,0.0,0.0,0.0,0.0,0.0,0.0,0.0,0.0,0.0,0.0,0.0,0.0,0.0,0.0,0.0,0.0,0.0,0.0,0.0,0.0,0.0,0.0,0.0,0.0,0.0,0.0,0.0,0.0,0.0,0.0,0.0,0.0,0.0,0.0,0.0,0.0,0.0,0.0,0.0,0.0,0.0,0.0,0.0,0.0,0.0,0.0,0.0,0.0,0.0,0.0,0.0,0.0,0.0,0.0,0.0,0.0,0.0,0.0,0.0,0.0,0.0,0.0,0.0,0.0,0.0,0.0,0.0,0.0,0.0,0.0,0.0,0.0,0.0,0.0,0.0,0.0,0.0,0.0,0.0,0.0,0.0,0.0,0.0,0.0,0.0,0.0,0.0,0.0,0.0,0.0,0.0,0.0,0.0,0.0,0.0,0.0,0.0,0.0,0.0,0.0,0.0,0.0,0.0,0.0,0.0,0.0,0.0,0.0,0.0,0.0,0.0,0.0,3.6377,0.0,0.0,0.0,0.0,0.0,0.0,0.0,0.0,0.0,0.0,0.0,0.0,0.0,0.0,0.0,0.0,0.0,0.0,0.0,0.0,0.0,0.0,0.0,0.0,0.0,0.0,0.0,0.0,0.0,0.0,0.0,0.0,0.0,0.0,0.0,0.0,0.0,0.0,0.0,0.0,0.0,0.0,0.0,0.0,0.0,0.0,0.0,0.0,0.0,0.0,0.0,0.0,0.0,0.0,0.0,0.0,0.0,0.0,0.0,0.0,0.0,0.0,0.0,0.0,0.0,0.0,0.0,0.0,0.0,0.0,0.0,0.0,0.0,0.0,0.0,0.0,0.0,0.0,0.0,0.0,0.0,0.0,0.0,0.0,0.0,0.0,0.0,0.0,0.0,0.0,0.0,0.0,0.0,0.0,0.0,0.0,0.0,0.0,0.0,0.0,0.0,0.0,0.0,0.0,0.0,0.0,0.0,0.0,0.0,0.0,0.0,0.0,0.0,0.0,0.0,0.0,3.6013,0.0,0.0,0.0,0.0,0.0,0.0,0.0,0.0,0.0,0.0,0.0,0.0,0.0,0.0,0.0,0.0,0.0,0.0,0.0,0.0,0.0,0.0,0.0,0.0,0.0,0.0,0.0,0.0,0.0,0.0,0.0,0.0,0.0,0.0,0.0,0.0,0.0,0.0,0.0,0.0,0.0,0.0,0.0,0.0,0.0,0.0,0.0,0.0,0.0,0.0,0.0,0.0,0.0,0.0,0.0,0.0,0.0,0.0,0.0,0.0,0.0,0.0,0.0,0.0,0.0,0.0,0.0,0.0,0.0,0.0,0.0,0.0,0.0,0.0,0.0,0.0,0.0,0.0,0.0,0.0,0.0,0.0,0.0,0.0,0.0,0.0,0.0,0.0,0.0,0.0,0.0,0.0,0.0,0.0,0.0,0.0,0.0,0.0,0.0,0.0,0.0,0.0,0.0,0.0,0.0,0.0,0.0,0.0,3.9202,3.9499,3.972,4.1077,4.1324,4.0714,4.1103,3.9698,3.7165,3.7492,0.0,0.0,0.0,0.0,0.0,0.0,0.0,0.0,0.0,0.0,0.0,0.0,0.0,0.0,0.0,0.0,0.0,0.0,0.0,0.0,0.0,0.0,0.0,0.0,0.0,0.0,0.0,0.0,0.0,0.0,0.0,0.0,0.0,0.0,0.0,0.0,0.0,0.0,0.0,0.0,0.0,0.0,0.0,0.0,0.0,0.0,0.0,0.0,0.0,0.0,0.0,0.0,0.0,0.0,0.0,0.0,0.0,0.0,0.0,0.0,0.0,0.0,0.0,0.0,0.0,0.0,0.0,0.0,0.0,0.0,0.0,0.0,0.0,0.0,0.0,0.0,0.0,0.0,0.0,0.0,0.0,0.0,0.0,0.0,0.0,0.0,3.2624,3.1343,0.0,0.0,0.0,0.0,0.0,0.0,0.0,0.0,0.0,0.0,0.0,0.0,0.0,3.8007,3.8853,4.0138,4.1325,4.243,4.4423,4.5843,4.679,4.7624,4.8223,4.8608,4.8663,0.0,4.0164,4.1816,0.0,0.0,0.0,0.0,0.0,0.0,0.0,0.0,0.0,0.0,0.0,0.0,0.0,0.0,0.0,0.0,0.0,0.0,0.0,0.0,0.0,0.0,0.0,0.0,0.0,0.0,0.0,0.0,0.0,0.0,0.0,0.0,0.0,0.0,0.0,0.0,0.0,0.0,0.0,0.0,0.0,0.0,0.0,0.0,0.0,0.0,0.0,0.0,0.0,0.0,0.0,0.0,0.0,0.0,0.0,0.0,0.0,0.0,0.0,0.0,0.0,0.0,0.0,0.0,0.0,0.0,0.0,0.0,0.0,0.0,0.0,0.0,0.0,0.0,0.0,0.0,0.0,0.0,0.0,0.0,0.0,0.0,0.0,0.0,0.0,3.2232,3.2675,3.1367,3.2431,3.291,0.0,0.0,0.0,0.0,0.0,0.0,0.0,0.0,0.0,4.0828,4.095,4.1749,4.3382,4.4012,4.4625,4.5179,4.6189,4.7076,4.7817,4.815,4.8795,4.9681,5.0131,4.8904,4.655,4.5791,4.3999,4.1775,0.0,0.0,0.0,0.0,4.074,4.0984,0.0,0.0,0.0,0.0,0.0,0.0,0.0,0.0,0.0,0.0,0.0,0.0,0.0,0.0,0.0,3.1907,0.0,0.0,0.0,0.0,0.0,0.0,0.0,0.0,0.0,0.0,0.0,0.0,0.0,0.0,0.0,0.0,0.0,0.0,0.0,0.0,0.0,0.0,0.0,0.0,0.0,0.0,0.0,0.0,0.0,0.0,0.0,0.0,0.0,0.0,0.0,0.0,0.0,0.0,0.0,0.0,0.0,0.0,0.0,0.0,0.0,0.0,0.0,0.0,0.0,0.0,0.0,0.0,0.0,0.0,0.0,0.0,0.0,0.0,0.0,0.0,0.0,3.2477,3.324,3.2168,3.3282,3.4019,0.0,0.0,0.0,0.0,0.0,0.0,4.0438,4.1322,4.2391,4.369,4.4082,4.5077,4.6783,4.68,4.68,4.68,4.6989,4.7359,4.7914,4.8104,4.8811,4.9924,5.0526,5.0982,5.1129,4.8825,4.6241,4.3824,4.4257,4.3868,4.3024,4.3013,4.2995,4.3305,0.0,0.0,0.0,0.0,0.0,0.0,0.0,0.0,0.0,0.0,0.0,0.0,0.0,0.0,3.342,3.2707,0.0,0.0,0.0,0.0,0.0,0.0,0.0,0.0,0.0,0.0,0.0,0.0,0.0,0.0,0.0,0.0,0.0,0.0,0.0,0.0,0.0,0.0,0.0,0.0,0.0,0.0,0.0,0.0,0.0,0.0,0.0,0.0,0.0,0.0,0.0,0.0,0.0,0.0,0.0,0.0,0.0,0.0,0.0,0.0,0.0,0.0,0.0,0.0,0.0,0.0,0.0,0.0,0.0,0.0,0.0,0.0,0.0,0.0,0.0,0.0,0.0,0.0,0.0,3.4421,3.5684,0.0,0.0,0.0,0.0,3.873,4.0946,4.2807,4.4228,4.5684,4.6819,4.7599,4.6972,4.6667,4.68,4.68,4.68,4.6802,4.7498,4.8162,4.8749,4.9456,5.0414,5.1494,5.1517,5.1449,5.1242,5.0314,5.0278,5.0658,4.9166,4.9021,4.9351,4.7096,4.6254,4.6272,0.0,0.0,0.0,0.0,0.0,0.0,0.0,0.0,0.0,0.0,0.0,0.0,0.0,3.3341,3.4256,0.0,0.0,0.0,0.0,0.0,0.0,0.0,0.0,0.0,0.0,0.0,0.0,0.0,0.0,0.0,0.0,0.0,0.0,0.0,0.0,0.0,0.0,0.0,0.0,0.0,0.0,0.0,0.0,0.0,0.0,0.0,0.0,0.0,0.0,0.0,0.0,0.0,0.0,0.0,0.0,0.0,0.0,0.0,0.0,0.0,0.0,0.0,0.0,0.0,0.0,0.0,0.0,0.0,0.0,0.0,0.0,0.0,0.0,0.0,0.0,0.0,0.0,0.0,0.0,3.52,3.7297,0.0,3.9276,4.0121,4.1377,4.3183,4.5365,4.6633,4.6718,4.721,4.7633,4.7887,4.7633,4.775,4.8206,4.8223,4.8223,4.8223,4.8479,4.8912,4.949,4.9283,4.9593,5.0301,5.0176,5.0086,4.997,4.9516,4.951,4.9753,4.9691,4.9528,4.9293,4.8931,4.8815,4.8815,0.0,0.0,0.0,0.0,0.0,0.0,0.0,0.0,0.0,0.0,0.0,3.1642,3.2321,3.4158,0.0,0.0,0.0,0.0,0.0,0.0,0.0,0.0,0.0,0.0,0.0,0.0,0.0,0.0,0.0,0.0,0.0,0.0,0.0,0.0,0.0,0.0,0.0,0.0,0.0,0.0,0.0,0.0,3.2033,0.0,0.0,0.0,0.0,0.0,0.0,0.0,0.0,0.0,0.0,0.0,0.0,0.0,0.0,0.0,0.0,0.0,0.0,0.0,0.0,0.0,0.0,0.0,0.0,0.0,0.0,0.0,0.0,0.0,0.0,0.0,0.0,0.0,0.0,0.0,3.7669,3.762,3.9627,4.1337,4.2172,4.3206,4.4553,4.6297,4.7802,4.8512,4.8276,4.8276,4.8276,4.8276,4.8276,4.8512,4.9001,4.9001,4.9001,4.9001,4.8748,4.8929,4.9476,4.8734,4.8783,4.9462,4.9327,4.9221,4.9175,4.9281,4.9137,4.8938,4.9184,4.8967,4.8558,4.9094,4.9293,4.9293,0.0,0.0,0.0,0.0,0.0,0.0,0.0,0.0,0.0,0.0,0.0,3.2542,3.3116,0.0,0.0,0.0,0.0,0.0,0.0,0.0,0.0,0.0,0.0,0.0,0.0,0.0,0.0,0.0,0.0,0.0,0.0,0.0,0.0,0.0,0.0,0.0,0.0,0.0,0.0,0.0,0.0,0.0,3.2548,0.0,0.0,0.0,0.0,0.0,0.0,0.0,0.0,0.0,0.0,0.0,0.0,0.0,0.0,0.0,0.0,0.0,0.0,0.0,0.0,0.0,0.0,0.0,0.0,0.0,0.0,0.0,0.0,0.0,0.0,0.0,0.0,0.0,3.724,3.9192,4.0924,4.1732,4.2688,4.4161,4.6329,4.5428,4.5599,4.7768,4.7938,4.8242,4.8968,4.9001,4.9001,4.9001,4.9001,4.8984,4.8968,4.8984,4.8984,4.8917,4.8225,4.8167,4.8612,4.7871,4.8129,4.9144,4.915,4.9052,4.8971,4.9764,4.9637,4.8865,4.8051,4.7743,4.7725,4.7707,4.7707,4.7707,0.0,0.0,0.0,0.0,0.0,0.0,0.0,0.0,0.0,0.0,3.085,3.2542,3.3116,0.0,0.0,0.0,0.0,0.0,0.0,0.0,0.0,0.0,0.0,0.0,0.0,0.0,0.0,0.0,0.0,0.0,0.0,0.0,0.0,0.0,0.0,0.0,0.0,0.0,0.0,0.0,0.0,0.0,3.4994,0.0,0.0,0.0,0.0,0.0,0.0,0.0,0.0,0.0,0.0,0.0,0.0,0.0,0.0,0.0,0.0,0.0,0.0,0.0,0.0,0.0,0.0,0.0,0.0,0.0,0.0,0.0,0.0,0.0,0.0,0.0,0.0,3.912,3.8072,3.9934,4.1719,4.2576,4.4395,4.6104,4.7389,4.7212,4.7479,4.8597,4.8698,4.8798,4.8984,4.9001,4.9001,4.9001,4.9001,4.8732,4.8208,4.8731,4.846,4.7411,4.7735,4.7689,4.7289,4.6558,4.6893,4.8023,4.7882,4.8347,4.9248,4.9859,4.9974,4.9702,4.8884,4.8576,4.8503,4.7924,4.7707,4.7707,0.0,0.0,0.0,0.0,0.0,0.0,0.0,0.0,0.0,0.0,3.1014,3.2931,3.3601,0.0,0.0,0.0,0.0,0.0,0.0,0.0,0.0,0.0,0.0,0.0,0.0,0.0,0.0,0.0,0.0,0.0,0.0,0.0,0.0,0.0,0.0,0.0,0.0,0.0,0.0,0.0,0.0,0.0,3.5324,3.4745,3.3679,3.2408,3.1739,3.181,3.2024,3.0809,0.0,0.0,0.0,0.0,0.0,0.0,0.0,0.0,0.0,0.0,0.0,0.0,0.0,0.0,0.0,0.0,0.0,0.0,0.0,0.0,0.0,0.0,0.0,0.0,4.1099,4.2003,4.1458,4.2572,4.3722,4.4543,4.6163,4.744,4.797,4.8098,4.8329,4.8766,4.8862,4.8925,4.8925,4.897,4.8866,4.8546,4.8529,4.8189,4.7462,4.7868,4.7648,4.68,4.6906,4.6869,4.6669,4.6243,4.6543,4.7465,4.7902,4.8535,4.9341,5.0236,5.0608,0.0,0.0,0.0,0.0,0.0,4.8485,4.8196,0.0,0.0,0.0,0.0,0.0,0.0,0.0,0.0,0.0,0.0,0.0,3.3522,3.4408,0.0,0.0,0.0,0.0,0.0,0.0,0.0,0.0,0.0,0.0,0.0,0.0,0.0,0.0,0.0,0.0,0.0,0.0,0.0,0.0,0.0,0.0,0.0,0.0,0.0,0.0,0.0,0.0,0.0,3.476,3.4849,3.3717,3.2046,3.1988,3.2589,3.3277,3.2125,0.0,0.0,0.0,0.0,0.0,0.0,0.0,0.0,0.0,0.0,0.0,0.0,0.0,0.0,0.0,0.0,0.0,0.0,0.0,0.0,0.0,0.0,0.0,0.0,4.3425,4.4985,4.5798,4.5914,4.6178,4.6857,4.7682,4.8211,4.8227,4.842,4.8531,4.8531,4.8722,4.8816,4.8816,0.0,0.0,0.0,0.0,4.7564,4.6817,4.68,4.6733,4.6546,4.5974,4.5957,4.6422,4.6422,4.6767,4.7449,4.8692,4.9322,4.9579,5.088,5.1441,5.1368,5.0553,5.0173,5.0101,5.0101,4.9655,4.9028,0.0,0.0,0.0,0.0,0.0,0.0,0.0,0.0,0.0,3.0351,3.2145,3.3845,3.5565,0.0,0.0,0.0,0.0,0.0,0.0,0.0,0.0,0.0,0.0,0.0,0.0,0.0,0.0,0.0,0.0,0.0,0.0,0.0,0.0,0.0,0.0,0.0,0.0,0.0,0.0,0.0,0.0,0.0,3.6767,3.6259,3.5815,3.5385,3.4901,3.4869,3.4861,3.3546,3.3322,3.3378,3.2071,0.0,0.0,0.0,0.0,0.0,0.0,0.0,0.0,0.0,0.0,0.0,0.0,0.0,0.0,0.0,0.0,0.0,0.0,0.0,0.0,4.2118,4.3668,4.5167,4.6493,4.6676,4.679,4.7114,4.7779,4.826,4.8436,4.8627,4.8738,4.8738,4.8879,4.8955,4.8955,4.8986,4.8934,4.8783,4.8208,4.7564,4.6817,4.68,4.6208,4.5024,0.0,0.0,4.5844,4.5844,4.6828,4.8529,4.9227,5.0143,5.118,5.1945,5.2274,5.219,5.1387,5.0662,5.0101,5.0101,4.9992,4.9775,0.0,0.0,0.0,0.0,0.0,0.0,0.0,0.0,0.0,0.0,3.0593,3.2326,3.4096,0.0,0.0,0.0,0.0,0.0,0.0,0.0,0.0,0.0,0.0,0.0,0.0,0.0,0.0,0.0,0.0,0.0,0.0,0.0,0.0,0.0,0.0,0.0,0.0,0.0,0.0,0.0,0.0,0.0,3.683,3.618,3.6148,3.6321,3.5732,3.5685,3.5804,3.4837,3.4692,3.4773,3.3816,3.326,3.2871,0.0,0.0,0.0,0.0,0.0,0.0,0.0,0.0,0.0,0.0,0.0,0.0,0.0,0.0,3.7871,0.0,0.0,4.2129,4.3881,4.5069,4.6179,4.7289,4.7454,4.7486,4.7584,4.7583,4.7764,4.8306,4.8135,4.8028,4.809,4.8228,4.8137,4.7764,4.8179,4.8291,4.7902,4.7904,4.7363,4.6261,4.6244,4.57,4.4615,4.4973,4.5331,4.5706,4.6075,4.7012,4.8404,4.9329,5.0124,5.0817,5.1681,5.2239,5.2462,5.2063,5.1658,5.1296,5.1296,5.1042,5.0644,0.0,0.0,0.0,0.0,0.0,0.0,0.0,0.0,0.0,0.0,0.0,3.0738,3.2443,0.0,0.0,0.0,0.0,0.0,0.0,0.0,0.0,0.0,0.0,0.0,0.0,0.0,0.0,0.0,0.0,0.0,0.0,0.0,0.0,0.0,0.0,0.0,0.0,0.0,0.0,0.0,0.0,0.0,3.6321,3.5717,3.5862,3.6321,3.5732,3.5894,3.6305,3.5701,3.5814,3.6163,3.5818,3.5326,3.4727,3.3934,3.3305,0.0,0.0,0.0,0.0,0.0,0.0,0.0,0.0,0.0,3.6909,3.7795,3.8419,3.9305,4.0913,4.2033,4.3446,4.565,4.651,4.7156,4.7901,4.8001,4.7951,4.7802,4.7255,4.7171,4.7881,4.7495,4.7241,4.735,4.7653,4.7509,4.6767,4.7609,4.7836,4.7257,4.765,4.7261,4.5923,4.5771,4.5399,4.4804,4.4804,4.5277,4.616,4.6735,4.7428,4.8171,4.9387,5.0017,5.0296,5.1213,5.1963,5.2498,5.2498,5.2498,5.2498,5.2498,5.2082,5.1513,0.0,0.0,0.0,0.0,0.0,0.0,0.0,0.0,0.0,0.0,0.0,0.0,0.0,0.0,0.0,0.0,0.0,0.0,0.0,0.0,0.0,0.0,0.0,0.0,0.0,0.0,0.0,0.0,0.0,0.0,0.0,0.0,0.0,0.0,0.0,0.0,0.0,0.0,0.0,0.0,0.0,0.0,3.6321,3.5717,3.5862,3.6321,3.5732,3.5894,3.6305,3.5701,3.5537,3.5692,3.6226,3.6344,3.6029,3.4757,0.0,3.3874,0.0,0.0,0.0,3.4281,3.488,3.5664,0.0,0.0,3.7672,3.9015,3.9812,4.0891,4.2977,4.3474,4.4266,4.6431,4.6841,4.7156,4.7901,4.8001,4.7769,4.7106,4.6941,4.694,4.7039,4.7149,4.7211,4.721,4.811,4.8331,4.7605,4.8401,4.8849,4.8765,4.8191,4.7498,4.6667,4.6024,4.5669,4.5585,4.5585,4.6312,4.7667,4.7735,4.8174,4.8914,4.9593,5.0463,5.1424,5.1538,5.1963,5.2498,5.2498,5.2498,5.2498,5.2498,5.2444,5.2263,0.0,0.0,0.0,0.0,0.0,0.0,0.0,0.0,0.0,0.0,0.0,0.0,0.0,0.0,0.0,0.0,0.0,0.0,0.0,0.0,0.0,0.0,0.0,0.0,0.0,0.0,0.0,0.0,0.0,0.0,0.0,0.0,0.0,0.0,0.0,0.0,0.0,0.0,0.0,0.0,0.0,0.0,3.5861,3.5587,3.5862,3.6275,3.5281,3.5082,0.0,0.0,3.5175,3.5624,3.6299,3.6508,3.6239,3.4877,3.4171,0.0,3.278,0.0,0.0,0.0,3.6423,3.7091,3.8878,3.9232,3.948,4.0462,4.0885,4.1488,4.2815,4.3751,4.4756,0.0,4.6974,4.7653,4.7968,4.8001,4.757,4.6394,4.6245,4.6309,4.6419,4.6591,4.6714,4.679,4.7321,4.7507,4.7201,4.7924,4.836,4.836,4.8479,4.8189,4.7462,4.7126,4.6754,4.6346,4.6346,4.6887,4.7904,4.7904,4.8293,4.9017,4.9275,4.9861,5.0614,5.0614,5.1148,5.1975,5.1975,5.2186,5.2498,5.2498,5.2498,5.2444,0.0,0.0,0.0,0.0,0.0,0.0,0.0,0.0,0.0,0.0,0.0,0.0,0.0,0.0,0.0,0.0,0.0,0.0,0.0,0.0,0.0,0.0,0.0,0.0,0.0,0.0,0.0,0.0,0.0,0.0,0.0,0.0,0.0,0.0,0.0,0.0,0.0,0.0,0.0,0.0,0.0,0.0,3.5504,3.5504,3.566,3.5766,3.4826,3.4613,0.0,0.0,3.4563,3.507,3.5745,3.5907,3.565,3.4499,3.3717,3.3221,3.3283,0.0,0.0,3.7161,3.7828,3.8441,4.035,4.0478,4.0391,4.1076,4.121,4.1487,4.2411,4.3782,4.5082,4.5928,4.7159,4.8001,4.8001,4.8001,4.7454,4.5979,4.6146,4.6209,4.5751,4.6038,4.6359,4.6666,4.7096,4.725,4.7062,4.777,4.8208,4.8208,4.8715,4.8648,4.7904,4.7904,4.7633,4.7107,4.7107,4.7496,4.8208,4.8208,4.8479,4.9001,4.9001,4.9333,4.9904,4.9904,5.0477,5.1355,5.1355,5.1731,5.2251,5.2251,5.2364,5.2498,0.0,0.0,0.0,0.0,0.0,0.0,0.0,0.0,0.0,0.0,0.0,0.0,0.0,0.0,0.0,0.0,0.0,0.0,0.0,0.0,0.0,0.0,0.0,0.0,0.0,0.0,0.0,0.0,0.0,0.0,0.0,0.0,0.0,0.0,0.0,0.0,0.0,0.0,0.0,0.0,0.0,0.0,3.5504,3.5504,3.5101,3.4549,3.4518,0.0,0.0,0.0,3.3544,3.3679,3.4338,3.4437,0.0,3.3522,3.3174,0.0,0.0,0.0,3.7229,3.8216,3.8916,3.971,4.1128,4.0409,3.9628,4.0374,4.0529,4.0932,4.2263,4.3769,4.5242,4.6553,4.7455,4.8001,4.8001,4.8001,4.7454,4.5979,4.7057,4.709,0.0,4.557,4.641,4.7126,4.8159,4.843,4.7705,4.8502,4.8968,4.8968,4.8984,4.8648,4.7904,4.7904,4.7887,4.787,4.787,4.8242,4.8968,4.8968,4.8984,4.9001,4.9001,4.9333,4.9904,4.9904,5.0223,5.0738,5.0738,5.1087,5.1631,5.1631,5.2,5.2498,0.0,0.0,0.0,0.0,0.0,0.0,0.0,0.0,0.0,0.0,0.0,0.0,0.0,0.0,0.0,0.0,0.0,0.0,0.0,0.0,0.0,0.0,0.0,0.0,0.0,0.0,0.0,0.0,0.0,0.0,0.0,0.0,0.0,0.0,0.0,0.0,0.0,0.0,0.0,0.0,0.0,0.0,3.6058,3.5176,3.4697,3.4383,0.0,0.0,0.0,0.0,0.0,0.0,3.4105,0.0,0.0,3.3,0.0,0.0,0.0,0.0,3.7594,3.8792,3.9258,3.9517,3.9988,3.9753,3.9463,3.9717,3.9063,3.8736,3.9673,4.1439,4.304,4.3994,4.6306,4.8001,4.8001,4.7587,4.709,4.6576,4.6527,0.0,0.0,0.0,0.0,4.7302,4.7739,4.8176,4.8536,4.8835,4.9001,4.9001,4.9001,4.8868,4.8631,4.8631,4.8377,4.7904,4.7411,4.7293,4.7564,4.8039,4.8003,4.7564,4.8056,4.8107,4.79,4.8799,4.9273,4.9479,4.9822,5.0632,5.1547,5.1037,5.1563,5.2498,0.0,0.0,0.0,0.0,0.0,0.0,0.0,0.0,0.0,0.0,0.0,0.0,0.0,0.0,0.0,0.0,0.0,0.0,0.0,0.0,0.0,0.0,0.0,0.0,0.0,0.0,0.0,0.0,0.0,0.0,0.0,0.0,0.0,0.0,0.0,0.0,0.0,0.0,0.0,0.0,0.0,0.0,3.561,3.4023,3.3275,0.0,0.0,0.0,0.0,0.0,0.0,0.0,0.0,0.0,0.0,0.0,0.0,0.0,0.0,3.7383,3.8141,3.9146,3.9406,3.9388,3.9301,3.9337,3.9388,3.9301,3.8489,3.7923,3.8385,3.9814,4.1324,4.2558,4.5046,4.7007,4.7537,4.7206,4.6792,4.6527,4.6311,4.6409,0.0,0.0,0.0,4.7781,4.8235,4.8641,4.8969,4.9255,4.9272,4.9018,4.9001,4.9001,4.9001,4.9001,4.8631,4.7904,4.7428,4.7192,4.7208,4.7684,4.7785,4.7581,4.753,4.7664,4.7948,4.8541,4.891,4.9083,4.9428,5.0053,5.0679,5.0216,5.0718,5.1719,0.0,0.0,0.0,0.0,0.0,0.0,0.0,0.0,0.0,0.0,0.0,0.0,0.0,0.0,0.0,0.0,0.0,0.0,0.0,0.0,0.0,0.0,0.0,0.0,0.0,0.0,0.0,0.0,0.0,0.0,0.0,0.0,0.0,0.0,0.0,0.0,0.0,0.0,0.0,0.0,0.0,0.0,3.4173,3.2198,0.0,0.0,0.0,0.0,0.0,0.0,0.0,0.0,0.0,0.0,0.0,0.0,0.0,3.6422,3.6852,3.7871,3.8907,3.9283,3.9388,3.9319,3.9123,3.9247,3.9319,3.9123,3.8691,3.8353,0.0,0.0,4.02,4.2295,4.3862,4.53,4.6643,4.6841,4.6593,0.0,0.0,0.0,0.0,0.0,0.0,4.8483,0.0,4.9729,4.9035,4.9661,4.9712,4.9018,4.9001,4.9001,4.9001,4.8968,4.8563,4.7836,4.7836,4.7836,4.7836,4.7887,4.8274,4.8844,4.7488,4.8026,4.9789,4.911,4.909,4.9504,4.9495,4.9409,4.9317,4.9228,4.9641,5.0445,0.0,0.0,0.0,0.0,0.0,0.0,0.0,0.0,0.0,0.0,0.0,0.0,0.0,0.0,0.0,0.0,0.0,0.0,0.0,0.0,0.0,0.0,0.0,0.0,0.0,0.0,0.0,0.0,0.0,0.0,0.0,0.0,0.0,0.0,0.0,0.0,0.0,0.0,0.0,0.0,0.0,0.0,3.2841,0.0,0.0,0.0,0.0,0.0,0.0,0.0,0.0,0.0,0.0,0.0,3.445,0.0,0.0,3.6931,3.7861,3.8561,3.8998,3.8962,3.9068,3.9123,3.8925,3.9017,3.9123,3.8925,3.7468,3.666,0.0,0.0,0.0,4.1642,4.4382,0.0,4.6096,4.6079,0.0,0.0,0.0,4.7139,4.7734,4.8176,0.0,0.0,4.8889,4.908,4.9003,4.9187,4.9187,4.9018,4.9001,4.9001,4.9001,4.8462,4.7802,4.7073,4.7073,4.7073,4.7107,4.765,4.7918,4.7971,4.8195,4.8512,4.8868,4.9089,4.9336,4.9556,4.9414,5.001,5.0857,4.9698,5.0377,5.1858,0.0,0.0,0.0,0.0,0.0,0.0,0.0,0.0,0.0,0.0,0.0,0.0,0.0,0.0,0.0,0.0,0.0,0.0,0.0,0.0,0.0,0.0,0.0,0.0,0.0,0.0,0.0,0.0,0.0,0.0,0.0,0.0,0.0,0.0,0.0,0.0,0.0,0.0,0.0,0.0,0.0,0.0,0.0,0.0,0.0,0.0,0.0,0.0,0.0,0.0,0.0,3.4633,3.5257,3.5362,3.5494,3.6837,0.0,3.7354,3.8271,3.8738,3.8943,3.8819,3.8943,3.8883,3.8035,3.7992,3.792,3.7152,3.5629,0.0,0.0,0.0,0.0,0.0,0.0,0.0,4.5268,4.5598,4.5947,0.0,4.6692,0.0,4.8016,4.834,4.8531,0.0,4.9087,4.9263,4.9003,4.9306,4.9323,4.9018,4.9001,4.9001,4.9001,4.8276,4.7684,4.7293,4.7293,4.7293,4.731,4.7718,4.8029,4.8194,0.0,4.8515,4.9464,4.9437,4.9787,5.0333,5.0211,5.0496,5.085,4.9957,5.0412,5.1387,0.0,0.0,0.0,0.0,0.0,0.0,0.0,0.0,0.0,0.0,0.0,0.0,0.0,0.0,0.0,0.0,0.0,0.0,0.0,0.0,0.0,0.0,0.0,0.0,0.0,0.0,0.0,0.0,0.0,0.0,0.0,0.0,0.0,0.0,0.0,0.0,0.0,0.0,0.0,0.0,0.0,0.0,0.0,0.0,0.0,0.0,0.0,0.0,0.0,0.0,3.3409,3.5381,3.5905,3.6394,3.6768,3.6775,3.7132,3.7664,3.8182,3.8554,3.8745,3.8741,3.887,3.8582,3.6942,3.6723,3.6445,3.4951,0.0,0.0,3.5861,0.0,3.6942,4.0917,0.0,4.3195,4.439,4.5283,4.5813,4.5813,4.6527,4.7337,4.8097,4.8372,4.8563,4.8738,4.9499,4.9661,4.9035,4.961,4.9661,4.9018,4.9001,4.8951,4.8849,4.8326,4.8005,4.7904,4.8005,4.8056,4.8056,4.8056,4.844,4.904,4.7766,4.8578,5.0748,5.0004,5.0403,5.1459,5.135,5.0934,5.039,5.0173,5.0245,5.039,0.0,0.0,0.0,0.0,0.0,0.0,0.0,0.0,0.0,0.0,0.0,0.0,0.0,0.0,0.0,0.0,0.0,0.0,0.0,0.0,0.0,0.0,0.0,0.0,0.0,0.0,0.0,0.0,0.0,0.0,0.0,0.0,0.0,0.0,0.0,0.0,0.0,0.0,0.0,0.0,0.0,0.0,0.0,0.0,0.0,0.0,0.0,0.0,0.0,0.0,3.3272,3.5918,3.6718,3.6768,3.6699,3.7449,3.7716,3.7709,3.7561,3.8025,3.8516,3.8352,3.846,3.8216,3.6695,3.6511,0.0,0.0,0.0,3.4049,3.7494,3.7965,0.0,4.2316,0.0,0.0,0.0,0.0,4.5813,0.0,0.0,0.0,0.0,0.0,0.0,0.0,0.0,4.9137,4.9018,4.912,4.9137,4.9001,4.9001,4.8714,4.8107,4.8563,4.8496,4.7904,4.8512,4.88,4.88,4.88,4.9139,4.9727,4.9469,0.0,5.1378,5.0596,5.1053,5.2226,5.1568,5.1622,5.193,5.059,5.0934,5.1882,0.0,0.0,0.0,0.0,0.0,0.0,0.0,0.0,0.0,0.0,0.0,0.0,0.0,0.0,0.0,0.0,0.0,0.0,0.0,0.0,0.0,0.0,0.0,0.0,0.0,0.0,0.0,0.0,0.0,0.0,0.0,0.0,0.0,0.0,0.0,0.0,0.0,0.0,0.0,0.0,0.0,0.0,0.0,0.0,0.0,0.0,0.0,0.0,0.0,0.0,3.1365,3.354,3.5217,3.571,3.5758,3.6208,3.6486,3.667,3.6765,3.739,3.7981,3.7793,3.8133,3.793,3.5799,0.0,0.0,0.0,0.0,3.2606,3.5431,0.0,0.0,0.0,0.0,0.0,0.0,0.0,0.0,0.0,0.0,0.0,0.0,0.0,0.0,0.0,0.0,4.9001,4.9001,4.9001,4.9001,4.9001,4.9001,4.8817,4.8479,4.8832,4.8832,4.8479,4.8817,4.9001,4.9001,4.9001,4.9153,4.9439,4.9439,4.9916,5.0702,5.0607,5.1144,5.2024,5.1941,5.2154,5.2408,5.164,5.1839,5.2401,0.0,0.0,0.0,0.0,0.0,0.0,0.0,0.0,0.0,0.0,0.0,0.0,0.0,0.0,0.0,0.0,0.0,0.0,0.0,0.0,0.0,0.0,0.0,0.0,0.0,0.0,0.0,0.0,0.0,0.0,0.0,0.0,0.0,0.0,0.0,0.0,0.0,0.0,0.0,0.0,0.0,0.0,0.0,0.0,0.0,0.0,0.0,0.0,0.0,0.0,2.9463,3.069,3.2652,3.3637,3.4116,3.4386,3.4797,3.5336,3.5947,3.6702,3.7288,3.7121,3.7674,3.7529,3.4825,3.4295,0.0,0.0,0.0,3.1193,3.314,0.0,0.0,0.0,0.0,0.0,0.0,0.0,0.0,0.0,0.0,0.0,0.0,0.0,0.0,0.0,0.0,0.0,4.9001,4.9001,4.9001,4.9001,4.9001,4.9001,4.9001,4.9001,4.9001,4.9001,4.9001,4.9001,4.9001,4.9001,4.9001,4.9001,4.9001,4.9406,5.0099,5.0538,5.1126,5.1848,5.231,5.2498,5.248,5.2299,5.2353,5.248,0.0,0.0,0.0,0.0,0.0,0.0,0.0,0.0,0.0,0.0,0.0,0.0,0.0,0.0,0.0,0.0,0.0,0.0,0.0,0.0,0.0,0.0,0.0,0.0,0.0,0.0,0.0,0.0,0.0,0.0,0.0,0.0,0.0,0.0,0.0,0.0,0.0,0.0,0.0,0.0,0.0,0.0,0.0,0.0,0.0,0.0,0.0,0.0,0.0,0.0,0.0,2.8983,2.9435,3.0436,3.1648,3.2689,0.0,0.0,3.5179,3.5927,3.642,3.6402,3.6896,3.674,3.4172,0.0,0.0,0.0,3.0598,3.1193,3.314,3.3659,0.0,0.0,0.0,0.0,0.0,0.0,0.0,0.0,0.0,0.0,0.0,0.0,0.0,0.0,0.0,0.0,4.9001,4.9001,4.9001,4.9001,4.9001,4.9001,4.9001,4.9001,4.9001,4.9001,4.9001,4.9001,4.9001,4.9001,4.9001,4.9001,4.9001,4.9625,0.0,5.0684,5.1376,5.2422,5.2486,5.2498,5.2408,5.1676,5.1876,5.2389,0.0,0.0,0.0,0.0,0.0,0.0,0.0,0.0,0.0,0.0,0.0,0.0,0.0,0.0,0.0,0.0,0.0,0.0,0.0,0.0,0.0,0.0,0.0,0.0,0.0,0.0,0.0,0.0,0.0,0.0,0.0,0.0,0.0,0.0,0.0,0.0,0.0,0.0,0.0,0.0,0.0,0.0,0.0,0.0,0.0,0.0,0.0,0.0,0.0,0.0,0.0,0.0,2.7682,2.8087,0.0,0.0,3.225,3.3247,3.446,3.5273,3.5752,3.5752,3.6228,3.604,3.347,0.0,0.0,3.0524,3.0321,3.0845,3.1615,3.19,3.2585,0.0,0.0,0.0,0.0,0.0,0.0,0.0,0.0,0.0,0.0,0.0,0.0,0.0,0.0,4.9001,4.9001,4.9001,4.9001,4.9001,4.9001,4.9001,4.9001,4.9001,4.9001,4.9001,4.9001,4.9001,4.9001,4.9001,4.9001,4.9001,4.9001,4.9258,0.0,5.0411,5.0977,5.1495,5.2209,5.2498,5.2462,5.2136,5.2226,5.2444,0.0,0.0,0.0,0.0,0.0,0.0,0.0,0.0,0.0,0.0,0.0,0.0,0.0,0.0,0.0,0.0,0.0,0.0,0.0,0.0,0.0,0.0,0.0,0.0,0.0,0.0,0.0,0.0,0.0,0.0,0.0,0.0,0.0,0.0,0.0,0.0,0.0,0.0,0.0,0.0,0.0,0.0,0.0,0.0,0.0,0.0,0.0,0.0,0.0,0.0,0.0,0.0,0.0,0.0,0.0,0.0,3.1312,3.2309,3.3947,3.4733,3.5099,3.5099,3.5288,3.4893,0.0,0.0,3.2006,2.9798,2.9856,3.0322,3.0366,3.0615,3.119,0.0,0.0,0.0,0.0,0.0,0.0,0.0,0.0,0.0,0.0,0.0,0.0,0.0,0.0,4.9001,4.9001,4.9001,4.9001,4.9001,4.9001,4.9001,4.9001,4.9001,4.9001,4.9001,4.9001,4.9001,4.9001,4.9001,4.9001,4.9001,4.9001,4.9092,0.0,5.0304,5.0805,5.1074,5.2096,5.2498,5.2498,5.2498,5.2498,5.2498,0.0,0.0,0.0,0.0,0.0,0.0,0.0,0.0,0.0,0.0,0.0,0.0,0.0,0.0,0.0,0.0,0.0,0.0,0.0,0.0,0.0,0.0,0.0,0.0,0.0,0.0,0.0,0.0,0.0,0.0,0.0,0.0,0.0,0.0,0.0,0.0,0.0,0.0,0.0,0.0,0.0,0.0,0.0,0.0,0.0,0.0,0.0,0.0,0.0,0.0,0.0,0.0,0.0,0.0,0.0,0.0,3.0612,3.1163,3.3701,3.4397,3.4412,3.4412,3.3966,3.3167,0.0,0.0,3.0263,2.8971,2.9189,2.9668,2.9871,3.0397,3.1102,3.1948,0.0,0.0,0.0,0.0,0.0,0.0,0.0,0.0,0.0,0.0,0.0,0.0,0.0,0.0,4.9001,4.9001,4.9001,4.9001,4.9001,4.9001,4.9001,4.9001,4.9001,4.9001,4.9001,4.9001,4.9001,4.9001,4.9001,4.9001,4.9001,4.9333,0.0,5.0484,5.1048,5.1656,5.2263,5.2498,5.2498,5.2498,5.2498,5.2498,0.0,0.0,0.0,0.0,0.0,0.0,0.0,0.0,0.0,0.0,0.0,0.0,0.0,0.0,0.0,0.0,0.0,0.0,0.0,0.0,0.0,0.0,0.0,0.0,0.0,0.0,0.0,0.0,0.0,0.0,0.0,0.0,0.0,0.0,0.0,0.0,0.0,0.0,0.0,0.0,0.0,0.0,0.0,0.0,0.0,0.0,0.0,0.0,0.0,0.0,0.0,0.0,0.0,0.0,0.0,0.0,0.0,0.0,3.1352,3.1802,3.1802,3.1802,3.1657,3.1179,2.9886,0.0,2.9566,2.8275,2.8536,2.9173,2.9797,3.0118,3.0996,3.3117,3.5112,0.0,0.0,0.0,0.0,0.0,0.0,0.0,0.0,0.0,0.0,0.0,0.0,4.9001,4.9001,4.9001,4.9001,4.9001,4.9001,4.9001,4.9001,4.9001,4.9001,4.9001,4.9001,4.9001,4.9001,4.9001,4.9001,4.9001,4.9001,4.9107,4.9364,5.0317,5.0818,5.1087,5.2096,5.2498,5.2498,5.2498,5.2498,5.2498,0.0,0.0,0.0,0.0,0.0,0.0,0.0,0.0,0.0,0.0,0.0,0.0,0.0,0.0,0.0,0.0,0.0,0.0,0.0,0.0,0.0,0.0,0.0,0.0,0.0,0.0,0.0,0.0,0.0,0.0,0.0,0.0,0.0,0.0,0.0,0.0,0.0,0.0,0.0,0.0,0.0,0.0,2.7106,0.0,0.0,0.0,0.0,0.0,0.0,0.0,0.0,0.0,0.0,0.0,0.0,0.0,0.0,0.0,0.0,3.0598,3.0598,3.0598,3.0249,0.0,0.0,0.0,2.8318,2.7521,2.7869,2.8576,2.943,2.9866,3.0758,3.2792,3.5721,0.0,0.0,0.0,0.0,0.0,0.0,0.0,0.0,0.0,0.0,0.0,4.9001,4.9001,4.9001,4.9001,4.9001,4.9001,4.9001,4.9001,4.9001,4.9001,4.9001,4.9001,4.9001,4.9001,4.9001,4.9001,4.9001,4.9001,4.9001,4.9001,0.0,5.0234,5.0711,5.0818,5.2036,5.2498,5.2498,5.2498,5.2498,5.2498,0.0,0.0,0.0,0.0,0.0,0.0,0.0,0.0,0.0,0.0,0.0,0.0,0.0,0.0,0.0,0.0,0.0,0.0,0.0,0.0,0.0,0.0,0.0,0.0,0.0,0.0,0.0,0.0,2.8039,2.8122,2.8288,0.0,0.0,0.0,0.0,0.0,0.0,0.0,0.0,0.0,0.0,0.0,0.0,0.0,0.0,0.0,0.0,0.0,0.0,0.0,0.0,0.0,0.0,0.0,0.0,0.0,0.0,0.0,0.0,0.0,0.0,0.0,0.0,0.0,0.0,0.0,0.0,0.0,2.7245,2.7922,2.8852,2.9583,3.0362,3.1393,0.0,0.0,0.0,0.0,0.0,0.0,0.0,0.0,0.0,0.0,0.0,0.0,4.9001,4.9001,4.9001,4.9001,4.9001,4.9001,4.9001,4.9001,4.9001,4.9001,4.9001,4.9001,4.9001,4.9001,4.9001,4.9001,4.9001,0.0,4.9001,4.9017,4.9153,5.0248,5.0738,5.0885,5.2048,5.2498,5.2498,5.2498,5.2498,5.2498,0.0,0.0,0.0,0.0,0.0,0.0,0.0,0.0,0.0,0.0,0.0,0.0,0.0,0.0,0.0,0.0,0.0,0.0,0.0,0.0,0.0,0.0,0.0,0.0,0.0,0.0,0.0,2.7562,2.8018,2.8243,2.8288,2.8195,0.0,0.0,0.0,0.0,0.0,0.0,0.0,0.0,0.0,0.0,0.0,0.0,0.0,0.0,2.6792,2.6792,0.0,0.0,0.0,0.0,0.0,0.0,0.0,0.0,2.6792,0.0,0.0,0.0,0.0,0.0,0.0,0.0,0.0,0.0,0.0,0.0,0.0,2.7267,2.8097,2.8851,2.9935,0.0,0.0,0.0,0.0,0.0,0.0,0.0,0.0,0.0,0.0,0.0,0.0,4.9001,4.9001,4.9001,4.9001,4.9001,4.9001,4.9001,4.9001,4.9001,4.9001,4.9001,4.9001,4.9001,4.9001,4.9001,4.9001,4.9001,4.9001,4.9001,4.9001,4.9275,4.9744,5.0428,5.0982,5.1457,5.2198,5.2498,5.2498,5.2498,5.2498,5.2498,0.0,0.0,0.0,0.0,0.0,0.0,0.0,0.0,0.0,0.0,0.0,0.0,0.0,0.0,0.0,0.0,0.0,0.0,0.0,0.0,0.0,0.0,0.0,0.0,0.0,0.0,0.0,0.0,0.0,2.7956,0.0,0.0,0.0,0.0,0.0,0.0,0.0,0.0,0.0,0.0,0.0,0.0,0.0,0.0,0.0,0.0,2.6792,2.6792,0.0,2.6792,2.6792,2.6792,0.0,0.0,0.0,0.0,2.6792,2.6792,2.6792,2.6792,2.6792,2.6792,2.6792,2.6792,0.0,0.0,0.0,0.0,0.0,0.0,2.7852,0.0,0.0,0.0,0.0,0.0,0.0,0.0,0.0,0.0,0.0,0.0,0.0,0.0,0.0,4.9001,4.9001,4.9001,4.9001,4.9001,4.9001,4.9001,4.9001,4.9001,4.9001,4.9001,4.9001,4.9001,4.9001,4.9001,4.9001,4.9001,4.9001,4.9001,4.9001,4.9184,4.9555,5.0373,5.0885,5.1273,5.2162,5.2498,5.2498,5.2498,5.2498,5.2498,0.0,0.0,0.0,0.0,0.0,0.0,0.0,0.0,0.0,0.0,0.0,0.0,0.0,0.0,0.0,0.0,0.0,0.0,0.0,0.0,0.0,0.0,0.0,0.0,0.0,0.0,0.0,0.0,0.0,0.0,0.0,0.0,0.0,0.0,0.0,0.0,0.0,0.0,0.0,0.0,0.0,0.0,0.0,0.0,0.0,0.0,0.0,0.0,0.0,2.6792,2.6792,2.6792,2.6792,0.0,0.0,0.0,0.0,0.0,2.6792,2.6792,2.6792,2.6792,2.6792,2.6792,0.0,0.0,0.0,0.0,0.0,0.0,0.0,0.0,0.0,0.0,0.0,0.0,0.0,0.0,0.0,0.0,0.0,0.0,0.0,0.0,4.897,4.9001,4.9001,4.9001,4.9001,4.9001,4.9001,4.9001,4.9001,4.9001,4.9001,4.9001,4.9001,4.9001,4.9001,4.9001,4.9001,4.9001,4.9001,4.9001,0.0,0.0,4.9229,5.0276,5.0751,5.0938,5.206,5.2498,5.2498,5.2498,5.2498,5.2498,0.0,0.0,0.0,0.0,0.0,0.0,0.0,0.0,0.0,0.0,0.0,0.0,0.0,0.0,0.0,0.0,0.0,0.0,0.0,0.0,0.0,0.0,0.0,0.0,0.0,0.0,0.0,0.0,0.0,0.0,2.7401,2.7537,2.7537,0.0,0.0,0.0,0.0,0.0,0.0,0.0,0.0,0.0,0.0,0.0,0.0,0.0,0.0,0.0,0.0,2.6792,2.6792,2.6792,2.6792,0.0,0.0,0.0,0.0,0.0,2.6792,2.6792,2.6792,2.6792,2.6792,2.6792,0.0,0.0,0.0,0.0,0.0,0.0,0.0,0.0,0.0,0.0,0.0,0.0,0.0,0.0,0.0,0.0,0.0,0.0,0.0,4.869,4.8879,4.8986,4.9001,4.9001,4.9001,4.9001,4.9001,4.9001,4.9001,4.9001,4.9001,4.9001,4.9001,4.9001,4.9001,4.9001,4.9001,4.9001,4.9001,4.9001,0.0,4.9288,4.9817,5.0442,5.1008,5.1538,5.2239,5.2498,5.2498,5.2498,5.2498,5.2498,0.0,0.0,0.0,0.0,0.0,0.0,0.0,0.0,0.0,0.0,0.0,0.0,0.0,0.0,0.0,0.0,0.0,0.0,0.0,0.0,0.0,0.0,0.0,0.0,0.0,0.0,0.0,0.0,0.0,2.7246,2.7198,2.7323,2.731,2.717,0.0,0.0,0.0,0.0,0.0,0.0,0.0,0.0,0.0,0.0,0.0,0.0,0.0,0.0,0.0,0.0,2.6792,2.6792,2.6792,0.0,0.0,0.0,0.0,0.0,2.6792,2.6792,2.6967,2.7649,2.7315,2.6792,0.0,0.0,0.0,0.0,0.0,0.0,0.0,0.0,0.0,0.0,0.0,0.0,0.0,0.0,0.0,0.0,0.0,0.0,0.0,4.8753,4.8924,4.8986,4.9001,4.9001,4.9001,4.9001,4.9001,4.9001,4.9001,4.9001,4.9001,4.9001,4.9001,4.9001,4.9001,4.9001,4.9001,4.9001,4.9001,4.9001,0.0,4.9153,4.9481,5.0345,5.0858,5.1209,5.215,5.2498,5.2498,5.2498,5.2498,5.2552,0.0,0.0,0.0,0.0,0.0,0.0,0.0,0.0,0.0,0.0,0.0,0.0,0.0,0.0,0.0,0.0,0.0,0.0,0.0,0.0,0.0,0.0,0.0,0.0,0.0,0.0,0.0,2.6792,2.7041,2.7119,2.7055,2.7119,2.7106,0.0,0.0,0.0,0.0,0.0,0.0,0.0,0.0,0.0,0.0,0.0,0.0,0.0,0.0,0.0,0.0,0.0,0.0,0.0,0.0,0.0,0.0,2.6792,2.6792,2.6792,2.6792,2.6792,2.7097,2.8375,0.0,0.0,0.0,0.0,0.0,0.0,0.0,0.0,0.0,0.0,0.0,0.0,0.0,0.0,0.0,0.0,0.0,0.0,0.0,0.0,4.8499,4.8784,4.8972,4.9001,4.9001,4.9001,4.9001,4.9001,4.9001,4.9001,4.9001,4.9001,4.9001,4.9001,4.9001,4.9001,4.9001,4.9001,4.9001,4.9001,4.9001,4.9001,4.9001,4.9001,4.9092,5.0234,5.0711,5.0818,5.2036,5.2498,5.2498,5.2498,5.2625,5.286,0.0,0.0,0.0,0.0,0.0,0.0,0.0,0.0,0.0,0.0,0.0,0.0,0.0,0.0,0.0,0.0,0.0,0.0,0.0,0.0,0.0,0.0,0.0,0.0,0.0,2.6806,2.6806,2.6792,2.6951,2.7067,2.7181,2.7067,2.7003,2.699,0.0,0.0,0.0,0.0,0.0,0.0,0.0,0.0,0.0,0.0,0.0,0.0,0.0,0.0,0.0,0.0,0.0,0.0,0.0,0.0,0.0,0.0,2.6792,2.6792,2.6792,2.6792,2.7097,2.8375,0.0,0.0,0.0,0.0,0.0,0.0,0.0,0.0,0.0,0.0,0.0,0.0,0.0,0.0,0.0,0.0,0.0,0.0,0.0,0.0,4.8483,4.869,4.8863,4.8986,4.9001,4.9001,4.9001,4.9001,4.9001,4.9001,4.9001,4.9001,4.9001,4.9001,4.9001,4.9001,4.9001,4.9001,4.9001,4.9001,4.9001,4.9001,4.9001,4.9001,4.9092,5.0234,5.0711,5.0818,5.2036,5.2498,5.2498,5.2498,5.2969,5.3621,0.0,0.0,0.0,0.0,0.0,0.0,0.0,0.0,0.0,0.0,0.0,0.0,0.0,0.0,0.0,0.0,0.0,0.0,0.0,0.0,0.0,0.0,0.0,2.6792,2.6792,2.6792,2.6792,2.6792,2.6859,2.6897,2.695,2.6897,0.0,0.0,0.0,0.0,0.0,0.0,0.0,0.0,0.0,0.0,0.0,0.0,0.0,0.0,0.0,0.0,0.0,0.0,0.0,0.0,0.0,0.0,0.0,0.0,2.6792,2.6792,2.6792,2.6792,2.73,2.9377,0.0,0.0,0.0,0.0,0.0,0.0,0.0,0.0,0.0,0.0,0.0,0.0,0.0,0.0,0.0,0.0,0.0,0.0,0.0,4.842,4.8499,4.8753,4.8956,4.8986,4.9001,4.9001,4.9001,4.9001,4.9001,4.9001,4.9001,4.9001,4.9001,4.9001,4.9001,4.9001,4.9001,4.9001,4.9001,4.9001,4.9001,4.9001,4.9001,4.9214,4.9664,5.0921,5.1679,5.215,5.3471,5.4001,5.4001,5.4001,5.42,5.4508,0.0,0.0,0.0,0.0,0.0,0.0,0.0,0.0,0.0,0.0,0.0,0.0,0.0,0.0,0.0,0.0,0.0,0.0,0.0,0.0,0.0,0.0,0.0,2.6792,2.6792,2.6792,2.6792,2.6792,2.6792,2.6792,2.6792,0.0,0.0,0.0,0.0,0.0,0.0,0.0,0.0,0.0,0.0,0.0,0.0,0.0,0.0,0.0,0.0,0.0,0.0,0.0,0.0,0.0,0.0,0.0,0.0,0.0,2.6792,2.6792,2.6792,2.6792,2.7355,0.0,0.0,0.0,0.0,0.0,0.0,0.0,0.0,0.0,0.0,0.0,0.0,0.0,0.0,0.0,0.0,0.0,0.0,0.0,0.0,4.8436,4.8499,4.8768,4.894,4.8986,4.9001,4.9001,4.9001,4.9001,4.9001,4.9001,4.9001,4.9001,4.9001,4.9001,4.9001,4.9001,4.9001,4.9001,4.9001,4.9001,4.9137,4.9357,4.9357,4.9721,5.0412,5.1706,5.2737,5.3554,5.4507,5.4894,5.4894,5.4894,5.5051,5.5323,0.0,0.0,0.0,0.0,0.0,0.0,0.0,0.0,0.0,0.0,0.0,0.0,0.0,0.0,0.0,0.0,0.0,0.0,0.0,0.0,0.0,0.0,0.0,2.6792,2.6792,2.6792,2.6792,2.6792,2.6792,2.6792,2.6792,0.0,0.0,0.0,0.0,0.0,0.0,0.0,0.0,0.0,0.0,0.0,0.0,0.0,0.0,0.0,0.0,0.0,0.0,0.0,0.0,0.0,0.0,0.0,0.0,0.0,2.6792,2.6792,2.6792,2.6807,0.0,0.0,0.0,0.0,0.0,0.0,0.0,0.0,0.0,0.0,0.0,0.0,0.0,0.0,0.0,0.0,0.0,0.0,0.0,0.0,4.8115,4.8276,4.8483,4.8691,4.8848,4.8986,4.9001,4.9001,4.9001,4.9001,4.9001,4.9001,4.9001,4.9001,4.9001,4.9001,4.9001,4.9001,4.9001,4.9001,4.9001,4.9001,4.9407,5.01,5.01,5.054,5.1313,5.2529,5.3784,5.4913,5.4913,5.4913,5.4913,5.4913,5.5377,5.6005,0.0,0.0,0.0,0.0,0.0,0.0,0.0,0.0,0.0,0.0,0.0,0.0,0.0,0.0,0.0,0.0,0.0,0.0,0.0,0.0,0.0,0.0,0.0,0.0,0.0,0.0,2.6792,2.6792,2.6792,2.6792,0.0,0.0,0.0,2.6792,0.0,0.0,0.0,0.0,0.0,0.0,0.0,0.0,0.0,0.0,0.0,0.0,0.0,0.0,0.0,0.0,0.0,0.0,0.0,0.0,0.0,2.6792,2.6792,2.6792,2.6792,0.0,0.0,0.0,0.0,0.0,0.0,0.0,0.0,0.0,0.0,0.0,0.0,0.0,0.0,0.0,0.0,0.0,0.0,0.0,0.0,4.8001,4.8115,4.8276,4.8483,4.8691,4.8848,4.8986,4.9001,4.9001,4.9001,4.9001,4.9001,4.9001,4.9001,4.9001,4.9001,4.9001,4.9001,4.9001,4.9001,4.9001,4.9001,4.9001,4.9407,5.01,5.01,5.0988,5.2593,5.4372,5.5664,5.6518,5.6518,5.6518,5.6518,5.6518,5.6663,5.6826,0.0,0.0,0.0,0.0,0.0,0.0,0.0,0.0,0.0,0.0,0.0,0.0,0.0,0.0,0.0,0.0,0.0,0.0,0.0,0.0,0.0,0.0,0.0,0.0,0.0,2.6792,2.6792,0.0,0.0,0.0,0.0,0.0,0.0,2.6792,0.0,0.0,0.0,0.0,0.0,0.0,0.0,0.0,0.0,0.0,0.0,0.0,0.0,0.0,0.0,0.0,0.0,0.0,0.0,0.0,0.0,2.6792,2.733,2.7911,2.7911,0.0,0.0,0.0,0.0,0.0,0.0,0.0,0.0,0.0,0.0,0.0,0.0,0.0,0.0,0.0,0.0,0.0,0.0,0.0,0.0,4.8001,4.8066,4.8228,4.8483,4.8611,4.8768,4.8986,4.9001,4.9001,4.9001,4.9001,4.9001,4.9001,4.9001,4.9001,4.9001,4.9001,4.9001,4.9001,4.9001,4.9001,4.9001,4.9001,4.956,5.0573,5.1436,5.2628,5.4069,5.5517,5.6546,5.7188,5.7188,5.7188,5.7188,5.7188,5.7188,5.7188,0.0,0.0,0.0,0.0,0.0,0.0,0.0,0.0,0.0,0.0,0.0,0.0,0.0,0.0,0.0,0.0,0.0,0.0,0.0,0.0,0.0,0.0,0.0,0.0,0.0,0.0,0.0,0.0,0.0,0.0,0.0,0.0,2.6792,2.6792,0.0,2.6753,0.0,0.0,0.0,0.0,0.0,0.0,0.0,0.0,0.0,0.0,0.0,0.0,0.0,0.0,0.0,0.0,0.0,0.0,2.6792,2.6792,2.8129,0.0,0.0,0.0,0.0,0.0,0.0,0.0,0.0,0.0,0.0,0.0,0.0,0.0,0.0,0.0,0.0,0.0,0.0,0.0,0.0,0.0,0.0,4.8001,4.8001,4.8131,4.8468,4.8499,4.8642,4.897,4.9001,4.9001,4.9001,4.9001,4.9001,4.9001,4.9001,4.9001,4.9001,4.9001,4.9001,4.9001,4.9001,4.9001,4.9001,4.9001,4.9798,5.1334,5.3533,5.4826,5.5443,5.6101,5.6706,5.7188,5.7188,5.7188,5.7188,5.7188,5.7188,5.7188,0.0,0.0,0.0,0.0,0.0,0.0,0.0,0.0,0.0,0.0,0.0,0.0,0.0,0.0,0.0,0.0,0.0,0.0,0.0,0.0,0.0,0.0,0.0,0.0,0.0,0.0,0.0,0.0,0.0,0.0,0.0,0.0,0.0,2.6779,0.0,2.6404,0.0,0.0,0.0,0.0,0.0,0.0,0.0,0.0,0.0,0.0,0.0,0.0,0.0,0.0,0.0,0.0,2.6792,2.6792,2.6792,2.6792,2.8129,0.0,0.0,0.0,0.0,0.0,0.0,0.0,0.0,0.0,0.0,0.0,0.0,0.0,0.0,0.0,0.0,0.0,0.0,0.0,0.0,0.0,0.0,4.8001,4.8001,4.8131,4.8468,4.8499,4.8642,4.897,4.9001,4.9001,4.9001,4.9001,4.9001,4.9001,4.9001,4.9001,4.9001,4.9001,4.9001,4.9001,4.9001,4.9001,4.9001,4.9001,4.9798,5.135,5.3963,5.5181,5.5405,5.655,5.7087,5.7188,5.7188,5.7188,5.7188,5.7188,5.7188,5.7188,0.0,0.0,0.0,0.0,0.0,0.0,0.0,0.0,0.0,0.0,0.0,0.0,0.0,0.0,0.0,0.0,0.0,0.0,0.0,0.0,0.0,0.0,0.0,0.0,0.0,0.0,0.0,0.0,0.0,0.0,0.0,0.0,0.0,2.6779,0.0,2.6391,0.0,0.0,0.0,0.0,0.0,0.0,0.0,0.0,0.0,0.0,0.0,0.0,0.0,0.0,0.0,0.0,0.0,0.0,2.6792,2.6792,0.0,0.0,0.0,0.0,0.0,0.0,0.0,0.0,0.0,0.0,0.0,0.0,0.0,0.0,0.0,0.0,0.0,0.0,0.0,0.0,0.0,0.0,0.0,4.8001,4.8001,4.8131,4.8468,4.8499,4.8642,4.897,4.9001,4.9001,4.9001,4.9001,4.9001,4.9001,4.9001,4.9001,4.9001,4.9001,4.9001,4.9001,4.9001,4.9187,4.9543,4.9898,5.0663,5.1822,5.4284,5.551,5.5855,5.6806,5.7188,5.7188,5.7188,5.7188,5.7188,5.7188,5.7188,5.7188,0.0,0.0,0.0,0.0,0.0,0.0,0.0,0.0,0.0,0.0,0.0,0.0,0.0,0.0,0.0,0.0,0.0,0.0,0.0,0.0,0.0,0.0,0.0,0.0,0.0,0.0,0.0,0.0,0.0,0.0,0.0,0.0,0.0,2.6699,0.0,0.0,0.0,0.0,0.0,0.0,0.0,0.0,0.0,0.0,0.0,0.0,0.0,0.0,0.0,0.0,0.0,0.0,0.0,0.0,2.6792,0.0,0.0,0.0,0.0,0.0,0.0,0.0,0.0,0.0,0.0,0.0,0.0,0.0,0.0,0.0,0.0,0.0,0.0,0.0,0.0,0.0,0.0,0.0,0.0,4.8365,4.8266,4.833,4.8668,4.8684,4.8843,4.9156,4.9323,4.9323,4.9204,4.9323,4.9323,4.9187,4.9323,4.9323,4.9187,4.9187,4.9137,4.9001,4.9001,4.939,5.0133,5.099,5.1743,5.2514,5.4638,5.5833,5.6339,5.6941,5.7188,5.7188,5.7188,5.7188,5.7188,5.7188,5.7188,5.7188,0.0,0.0,0.0,0.0,0.0,0.0,0.0,0.0,0.0,0.0,0.0,0.0,0.0,0.0,0.0,0.0,0.0,0.0,0.0,0.0,0.0,0.0,0.0,0.0,0.0,0.0,0.0,0.0,0.0,0.0,0.0,0.0,0.0,0.0,0.0,0.0,0.0,0.0,0.0,0.0,0.0,0.0,0.0,0.0,0.0,0.0,0.0,0.0,0.0,0.0,0.0,0.0,0.0,0.0,0.0,0.0,0.0,0.0,0.0,0.0,0.0,0.0,0.0,0.0,0.0,0.0,0.0,0.0,0.0,0.0,0.0,0.0,0.0,0.0,0.0,0.0,0.0,0.0,0.0,4.9822,4.9326,4.9078,4.9422,4.9454,4.9583,4.9933,5.0557,5.0626,4.9998,5.0558,5.0609,4.9981,5.0574,5.0608,4.9964,4.9964,4.9627,4.9001,4.9001,4.939,5.0149,5.147,5.2448,5.3276,5.5302,5.6229,5.6339,5.6941,5.7188,5.7188,5.7188,5.7188,5.7188,5.7188,5.7188,5.7188,0.0,0.0,0.0,0.0,0.0,0.0,0.0,0.0,0.0,0.0,0.0,0.0,0.0,0.0,0.0,0.0,0.0,0.0,0.0,0.0,0.0,0.0,0.0,0.0,0.0,0.0,0.0,0.0,0.0,0.0,0.0,2.5797,2.5824,0.0,0.0,0.0,0.0,0.0,0.0,0.0,0.0,0.0,0.0,0.0,0.0,0.0,0.0,0.0,0.0,0.0,0.0,0.0,0.0,0.0,0.0,0.0,0.0,0.0,0.0,0.0,0.0,0.0,0.0,0.0,0.0,0.0,0.0,0.0,0.0,0.0,0.0,0.0,0.0,0.0,0.0,0.0,0.0,0.0,0.0,5.0153,4.9905,4.9808,5.0026,5.0142,5.0323,5.0582,5.0967,5.1049,5.0727,5.1015,5.1049,5.0727,5.1032,5.0862,5.0117,5.01,4.9729,4.9001,4.9001,4.961,5.0743,5.1752,5.2787,5.3893,5.5564,5.6488,5.6824,5.7087,5.7188,5.7188,5.7188,5.7188,5.7188,5.7188,5.7188,5.7188,0.0,0.0,0.0,0.0,0.0,0.0,0.0,0.0,0.0,0.0,0.0,0.0,0.0,0.0,0.0,0.0,0.0,0.0,0.0,0.0,0.0,0.0,0.0,0.0,0.0,0.0,0.0,0.0,0.0,0.0,2.619,2.5536,2.5578,0.0,2.5921,0.0,0.0,0.0,0.0,0.0,0.0,0.0,0.0,0.0,0.0,0.0,0.0,0.0,0.0,0.0,0.0,0.0,0.0,0.0,0.0,0.0,0.0,0.0,0.0,0.0,0.0,0.0,0.0,0.0,0.0,0.0,0.0,0.0,0.0,0.0,0.0,0.0,0.0,0.0,0.0,0.0,0.0,0.0,5.0551,5.075,5.0601,5.0537,5.0658,5.0861,5.1061,5.126,5.1593,5.1691,5.1488,5.1674,5.1691,5.1488,5.1674,5.1319,5.0388,4.9999,4.9543,4.9001,4.9001,4.9856,5.1471,5.2132,5.3274,5.4797,5.5834,5.6635,5.7188,5.7188,5.7188,5.7188,5.7188,5.7188,5.7188,5.7188,5.7188,5.7188,0.0,0.0,0.0,0.0,0.0,0.0,0.0,0.0,0.0,0.0,0.0,0.0,0.0,0.0,0.0,0.0,0.0,0.0,0.0,0.0,0.0,0.0,0.0,0.0,0.0,0.0,0.0,0.0,0.0,0.0,2.5921,2.588,2.588,2.5907,2.5647,2.5674,2.5907,0.0,0.0,0.0,0.0,0.0,0.0,0.0,0.0,0.0,0.0,0.0,0.0,0.0,0.0,0.0,0.0,0.0,0.0,0.0,0.0,0.0,0.0,0.0,0.0,0.0,0.0,0.0,0.0,0.0,0.0,0.0,0.0,0.0,0.0,0.0,0.0,0.0,0.0,0.0,0.0,0.0,5.1497,5.2192,5.1662,5.1301,5.1424,5.1629,5.1833,5.2034,5.2876,5.3061,5.2283,5.2976,5.3044,5.2266,5.2993,5.2672,5.115,4.9763,4.9035,4.9001,4.9001,5.0102,5.2162,5.2776,5.4197,5.6185,5.6266,5.6635,5.7188,5.7188,5.7188,5.7188,5.7188,5.7188,5.7188,5.7188,5.7188,5.7188,0.0,0.0,0.0,0.0,0.0,0.0,0.0,0.0,0.0,0.0,0.0,0.0,0.0,0.0,0.0,0.0,0.0,0.0,0.0,0.0,0.0,0.0,0.0,0.0,0.0,0.0,0.0,0.0,0.0,2.4767,2.4682,2.4723,2.4879,2.5161,2.5564,2.5907,2.6109,2.5564,0.0,0.0,0.0,0.0,0.0,0.0,0.0,0.0,0.0,0.0,0.0,0.0,0.0,0.0,0.0,0.0,0.0,0.0,0.0,0.0,0.0,0.0,0.0,0.0,0.0,0.0,0.0,0.0,0.0,0.0,0.0,0.0,0.0,0.0,0.0,0.0,0.0,0.0,0.0,0.0,5.2093,5.2375,5.2159,5.2011,5.2082,5.2345,5.2553,5.2604,5.3163,5.3382,5.3095,5.3348,5.3365,5.3078,5.3348,5.2773,5.1218,4.973,4.9001,4.9001,4.9001,4.9903,5.1582,5.2237,5.369,5.5748,5.6128,5.6635,5.7188,5.7188,5.7188,5.7188,5.7188,5.7188,5.7188,5.7188,5.7188,5.7188,0.0,0.0,0.0,0.0,0.0,0.0,0.0,0.0,0.0,0.0,0.0,0.0,0.0,0.0,0.0,0.0,0.0,0.0,0.0,0.0,0.0,0.0,0.0,0.0,0.0,0.0,0.0,0.0,0.0,0.0,0.0,0.0,2.4265,2.4482,2.5091,0.0,0.0,0.0,0.0,2.5131,0.0,0.0,2.6089,0.0,0.0,0.0,0.0,0.0,0.0,0.0,0.0,0.0,0.0,0.0,0.0,0.0,0.0,0.0,0.0,0.0,0.0,0.0,0.0,0.0,0.0,0.0,0.0,0.0,0.0,0.0,0.0,0.0,0.0,0.0,0.0,0.0,0.0,0.0,5.2391,5.2391,5.2391,5.2391,5.2391,5.2711,5.2903,5.2903,5.328,0.0,5.3501,5.3501,5.3501,5.3501,5.2993,5.2232,5.1218,4.973,4.9001,4.9001,4.9255,5.0125,5.155,5.224,5.3716,5.5719,5.6132,5.6635,5.7188,5.7188,5.7188,5.7188,5.7188,5.7188,5.7188,5.7188,5.7188,5.7188,0.0,0.0,0.0,0.0,0.0,0.0,0.0,0.0,0.0,0.0,0.0,0.0,0.0,0.0,0.0,0.0,0.0,0.0,2.5893,0.0,0.0,0.0,0.0,0.0,0.0,0.0,0.0,0.0,0.0,0.0,0.0,0.0,2.4163,0.0,2.4178,2.4409,2.4681,0.0,2.4722,2.4408,0.0,2.5936,2.606,0.0,0.0,0.0,2.9798,2.9769,0.0,0.0,0.0,0.0,0.0,0.0,0.0,0.0,0.0,0.0,0.0,0.0,0.0,0.0,0.0,0.0,0.0,0.0,0.0,0.0,0.0,0.0,0.0,0.0,0.0,0.0,0.0,0.0,0.0,0.0,5.2391,5.2391,5.2391,5.2391,5.2391,5.2711,5.2903,5.2886,5.3263,5.3501,5.3484,5.3501,5.3501,5.3501,5.1996,5.1201,5.1201,4.973,4.8986,4.9018,4.9746,5.0849,5.2227,5.2971,5.441,5.6298,5.6311,5.6666,5.7188,5.7188,5.7188,5.7188,5.7188,5.7188,5.7188,5.7188,5.7188,5.7188,0.0,0.0,0.0,0.0,0.0,0.0,0.0,0.0,0.0,0.0,0.0,0.0,0.0,0.0,0.0,0.0,0.0,0.0,2.5701,2.5495,2.5231,2.4895,2.4467,0.0,0.0,0.0,0.0,0.0,0.0,0.0,0.0,0.0,0.0,0.0,2.3365,2.3605,2.393,2.4336,0.0,0.0,2.5383,2.6567,0.0,0.0,0.0,0.0,0.0,3.4034,0.0,0.0,3.1382,2.858,0.0,0.0,0.0,0.0,0.0,0.0,2.6792,0.0,0.0,0.0,0.0,0.0,0.0,0.0,0.0,0.0,0.0,0.0,0.0,0.0,0.0,0.0,0.0,0.0,0.0,0.0,5.2391,5.2391,5.2391,5.2391,5.2391,5.2711,5.2834,0.0,5.3195,5.345,5.3281,5.3433,5.3501,5.3501,5.1914,5.1105,5.1201,4.9652,4.891,4.9018,4.9746,5.0849,5.2242,5.342,5.4817,5.6325,5.6771,5.7049,5.7188,5.7188,5.7188,5.7188,5.7188,5.7188,5.7188,5.7188,5.7188,5.7188,0.0,0.0,0.0,0.0,0.0,0.0,0.0,0.0,0.0,0.0,0.0,0.0,0.0,0.0,0.0,0.0,0.0,0.0,2.5115,2.4731,2.4411,2.4137,2.3785,2.3651,0.0,0.0,0.0,0.0,0.0,0.0,0.0,0.0,0.0,0.0,0.0,0.0,0.0,0.0,0.0,0.0,2.5188,0.0,0.0,3.0475,3.2152,0.0,0.0,0.0,3.386,3.479,3.2643,0.0,0.0,0.0,0.0,0.0,0.0,0.0,0.0,0.0,0.0,0.0,0.0,0.0,2.9809,3.241,3.5001,0.0,0.0,0.0,0.0,0.0,0.0,0.0,0.0,0.0,0.0,0.0,0.0,5.2391,5.2391,5.2391,5.2391,5.2623,5.2729,5.2623,5.3006,5.3246,5.3196,5.323,5.3297,5.3365,5.1831,5.1039,5.1121,4.9637,4.8909,4.9018,5.0345,5.1399,5.2257,5.3943,5.5292,5.6311,5.6661,5.6972,5.7188,5.7188,5.7188,5.7188,5.7188,5.7188,5.7188,5.7188,5.7188,5.7188,0.0,0.0,0.0,0.0,0.0,0.0,0.0,0.0,0.0,0.0,0.0,0.0,0.0,0.0,0.0,0.0,0.0,0.0,2.4512,2.3972,2.362,2.3548,2.3482,2.3562,2.3787,0.0,0.0,0.0,0.0,0.0,0.0,0.0,0.0,0.0,0.0,0.0,0.0,0.0,0.0,2.4714,2.5263,2.7047,0.0,0.0,3.235,0.0,3.5639,3.5581,3.5392,3.5392,3.2964,0.0,0.0,0.0,0.0,0.0,2.6792,0.0,0.0,0.0,0.0,0.0,0.0,0.0,2.9055,3.1515,3.394,3.5433,0.0,0.0,0.0,0.0,0.0,0.0,0.0,0.0,0.0,0.0,0.0,5.2391,5.2391,5.2391,5.2391,5.2517,5.2589,5.2588,5.2746,5.2955,5.3161,5.299,5.2939,5.3044,5.1664,5.0924,5.0873,4.9586,4.8989,4.9137,5.122,5.2289,5.25,5.4556,5.5819,5.6393,5.6393,5.6688,5.7188,5.7188,5.7188,5.7188,5.7188,5.7188,5.7188,5.7188,5.7188,5.7188,0.0,0.0,0.0,0.0,0.0,0.0,0.0,0.0,0.0,0.0,0.0,0.0,0.0,0.0,0.0,0.0,0.0,0.0,2.5298,2.4435,2.3729,2.3304,2.276,2.2497,2.2558,2.2466,0.0,0.0,0.0,0.0,0.0,0.0,0.0,0.0,0.0,0.0,0.0,0.0,0.0,2.6966,2.7089,0.0,3.3271,3.3699,3.4502,3.5595,3.7117,3.6682,3.5392,0.0,3.3864,3.1597,0.0,0.0,0.0,0.0,0.0,0.0,0.0,0.0,0.0,0.0,0.0,0.0,2.7694,2.9547,3.1492,0.0,0.0,0.0,0.0,0.0,0.0,0.0,0.0,0.0,0.0,0.0,0.0,5.2391,5.2391,5.2391,5.2391,5.2517,5.2552,5.2445,5.257,5.2746,5.2938,5.2921,5.2653,5.2101,5.1061,5.0392,5.0116,4.9112,4.9039,4.9897,5.1461,5.2773,5.3868,5.5423,5.6447,5.7018,5.7018,5.7087,5.7188,5.7188,5.7188,5.7188,5.7188,5.7188,5.7188,5.7188,5.7188,5.7188,0.0,0.0,0.0,0.0,0.0,0.0,0.0,0.0,0.0,0.0,0.0,0.0,0.0,0.0,0.0,0.0,0.0,0.0,0.0,0.0,2.3773,2.351,2.2923,2.2598,2.2598,2.2345,0.0,0.0,0.0,0.0,0.0,0.0,0.0,0.0,0.0,0.0,0.0,0.0,2.5036,2.7334,2.7653,0.0,3.4644,3.5011,3.5832,3.6958,3.8246,3.8275,3.7597,3.6667,3.5691,0.0,0.0,2.99,2.8898,0.0,2.7245,2.7186,0.0,0.0,0.0,2.6792,0.0,0.0,0.0,2.863,3.0239,3.0957,0.0,0.0,0.0,0.0,0.0,0.0,0.0,0.0,0.0,0.0,0.0,0.0,5.1744,5.1463,5.1811,5.1583,5.1384,5.1314,5.1699,5.2021,5.2196,5.2493,5.2343,5.1679,5.0826,5.0143,4.9605,4.8964,4.9091,5.0024,5.1815,5.3192,5.4252,5.596,5.6902,5.7188,5.7188,5.7188,5.7188,5.7188,5.7188,5.7188,5.7188,5.7188,5.7188,5.7188,5.7188,5.7188,0.0,0.0,0.0,0.0,0.0,0.0,0.0,0.0,0.0,0.0,0.0,0.0,0.0,0.0,0.0,0.0,0.0,0.0,0.0,0.0,0.0,2.4,2.3445,2.3151,2.3151,2.2634,2.2357,0.0,0.0,0.0,0.0,0.0,0.0,0.0,0.0,0.0,0.0,0.0,0.0,2.7472,0.0,3.1085,3.4489,3.5227,3.6555,3.8144,3.9044,3.945,3.9334,3.7825,0.0,3.6181,3.3048,3.18,0.0,0.0,0.0,0.0,0.0,0.0,0.0,0.0,0.0,2.6792,0.0,0.0,0.0,0.0,0.0,0.0,0.0,0.0,0.0,0.0,0.0,0.0,0.0,0.0,0.0,0.0,5.0932,5.0436,5.1033,5.0551,5.0203,5.0203,5.075,5.1134,5.1239,5.1716,5.1682,5.1057,5.0458,4.9809,4.9093,4.8817,4.916,5.0132,5.1986,5.3406,5.448,5.6237,5.7087,5.7188,5.7188,5.7188,5.7188,5.7188,5.7188,5.7188,5.7188,5.7188,5.7188,5.7188,5.7188,5.7188,0.0,0.0,0.0,0.0,0.0,0.0,0.0,0.0,0.0,0.0,0.0,0.0,0.0,0.0,0.0,0.0,0.0,0.0,2.6097,0.0,0.0,0.0,2.4053,2.371,2.371,2.3176,2.2911,0.0,0.0,0.0,0.0,0.0,0.0,0.0,2.3192,0.0,0.0,0.0,2.7714,0.0,3.1062,3.2221,0.0,3.5032,3.6486,3.7636,3.9363,3.8971,3.7593,0.0,3.6138,3.4644,0.0,3.2888,0.0,0.0,0.0,0.0,0.0,0.0,0.0,0.0,2.6792,0.0,0.0,0.0,0.0,0.0,0.0,0.0,0.0,0.0,0.0,0.0,0.0,0.0,0.0,0.0,0.0,0.0,5.0302,5.022,5.032,5.0253,5.0203,5.0203,5.0269,5.0336,5.0353,5.0402,5.0121,4.9392,4.9276,4.8962,4.8328,4.8293,4.9155,5.0889,5.1668,5.3174,5.5291,5.6051,5.6688,5.7188,5.7188,5.7188,5.7188,5.7188,5.7188,5.7188,5.7188,5.7188,5.7188,5.7188,5.7188,5.7188,0.0,0.0,0.0,0.0,0.0,0.0,0.0,0.0,0.0,0.0,0.0,0.0,0.0,0.0,0.0,0.0,0.0,2.9307,0.0,0.0,0.0,0.0,0.0,0.0,0.0,2.3717,2.3452,2.3452,2.3236,0.0,0.0,0.0,0.0,0.0,2.388,0.0,2.6614,0.0,0.0,0.0,0.0,0.0,0.0,3.5874,3.8118,4.0191,4.0974,4.0249,3.916,0.0,3.9407,0.0,0.0,0.0,0.0,0.0,0.0,0.0,0.0,0.0,0.0,0.0,0.0,0.0,0.0,0.0,2.8514,0.0,0.0,0.0,0.0,0.0,0.0,0.0,0.0,0.0,0.0,0.0,0.0,0.0,0.0,0.0,4.5087,4.6262,4.7007,4.7007,4.8597,4.9557,4.9557,4.9971,4.9855,4.9127,4.9094,4.8763,4.8099,4.8579,4.9442,5.0677,5.2315,5.3853,5.5263,5.6334,5.6954,5.7188,5.7188,5.7188,5.7188,5.7188,5.7188,5.7188,5.7188,5.7188,5.7188,5.7188,5.7188,5.7188,0.0,0.0,0.0,0.0,0.0,0.0,0.0,0.0,0.0,0.0,0.0,0.0,2.6666,2.8019,0.0,0.0,0.0,3.1031,0.0,0.0,2.8171,2.7157,2.5871,0.0,0.0,0.0,2.3994,2.3994,0.0,0.0,0.0,0.0,0.0,0.0,0.0,2.606,2.7982,0.0,0.0,3.2511,3.3083,3.4313,3.5973,3.749,3.9958,4.2615,4.2615,4.1642,4.0655,4.2557,4.1642,0.0,4.08,0.0,0.0,0.0,0.0,0.0,3.0988,0.0,0.0,0.0,0.0,0.0,0.0,0.0,0.0,0.0,0.0,0.0,0.0,0.0,0.0,0.0,0.0,0.0,0.0,0.0,0.0,0.0,0.0,0.0,0.0,4.285,4.4057,4.4654,4.6676,4.8166,4.8779,4.9326,4.9342,4.8829,4.8812,4.8547,4.8017,4.8976,4.989,5.0792,5.2871,5.4419,5.5452,5.6483,5.7049,5.7188,5.7188,5.7188,5.7188,5.7188,5.7188,5.7188,5.7188,5.7188,5.7188,5.7188,5.7188,5.7188,2.539,2.5312,0.0,0.0,0.0,0.0,0.0,0.0,0.0,0.0,0.0,0.0,0.0,0.0,0.0,0.0,0.0,3.2915,3.0905,0.0,2.9259,0.0,0.0,2.634,0.0,0.0,0.0,2.4477,0.0,0.0,0.0,0.0,0.0,0.0,0.0,2.5335,2.6247,2.8614,3.0392,3.1803,3.3837,3.6767,3.9924,0.0,4.1642,4.3935,4.3935,0.0,0.0,4.1163,4.112,0.0,0.0,0.0,0.0,0.0,0.0,0.0,0.0,0.0,0.0,3.1759,0.0,0.0,0.0,0.0,3.0112,0.0,0.0,0.0,0.0,0.0,0.0,0.0,0.0,0.0,0.0,0.0,0.0,0.0,0.0,0.0,0.0,4.1461,4.2402,4.4538,4.4786,4.578,4.7918,4.8067,4.8067,4.8034,4.8034,4.8034,4.8001,4.9253,5.0488,5.1671,5.2919,5.4478,5.627,5.6311,5.6653,5.7188,5.7188,5.7188,5.7188,5.7188,5.7188,5.7188,5.7188,5.7188,5.7188,5.7188,5.7188,5.7188,0.0,0.0,0.0,0.0,0.0,0.0,0.0,2.5312,0.0,0.0,0.0,0.0,0.0,0.0,3.0848,0.0,0.0,3.4311,3.3245,3.2365,0.0,0.0,0.0,2.8354,0.0,0.0,0.0,2.5018,0.0,0.0,0.0,0.0,0.0,0.0,0.0,2.6587,0.0,0.0,0.0,0.0,0.0,3.9046,4.0713,0.0,0.0,4.4552,4.4139,4.3036,0.0,4.3703,4.2861,4.1468,4.3623,4.2803,4.1192,4.1628,4.0075,0.0,0.0,0.0,3.4062,3.3922,0.0,0.0,0.0,0.0,0.0,0.0,0.0,0.0,0.0,0.0,0.0,0.0,0.0,0.0,0.0,0.0,0.0,0.0,0.0,0.0,0.0,0.0,0.0,4.0348,4.1707,4.3479,4.5698,4.583,4.6493,4.7951,4.8001,4.8147,4.8451,5.0089,5.1243,5.1978,5.4136,5.5501,5.6116,5.6643,5.701,5.7188,5.7188,5.7188,5.7188,5.7188,5.7188,5.7188,5.7188,5.7188,5.7188,5.7188,5.7188,5.7188,2.6934,0.0,0.0,0.0,0.0,0.0,0.0,0.0,0.0,0.0,2.706,0.0,2.7519,0.0,3.1434,0.0,3.3865,3.5149,3.4713,3.3861,0.0,3.2008,3.1141,0.0,0.0,0.0,0.0,0.0,2.5312,2.5114,0.0,0.0,0.0,0.0,0.0,0.0,0.0,0.0,3.3266,0.0,0.0,4.1165,0.0,0.0,4.236,4.3587,0.0,4.3602,4.3362,4.5003,4.4313,4.3166,4.5249,4.448,4.289,4.3311,4.2252,4.0887,4.0641,3.8899,0.0,3.7219,3.5444,0.0,3.4075,0.0,0.0,0.0,0.0,0.0,0.0,0.0,0.0,0.0,0.0,0.0,0.0,0.0,0.0,0.0,0.0,0.0,0.0,0.0,3.7354,3.8133,3.9474,4.1226,4.3413,4.4272,4.5349,4.6775,4.7587,4.828,4.8836,5.0493,5.1774,5.2705,5.492,5.6134,5.643,5.6961,5.7188,5.7188,5.7188,5.7188,5.7188,5.7188,5.7188,5.7188,5.7188,5.7188,5.7188,5.7188,5.7188,5.7188,2.7078,2.6958,0.0,0.0,2.5781,0.0,0.0,0.0,2.8198,0.0,2.9766,3.0765,3.0537,3.2104,3.306,3.2836,3.4498,0.0,3.5199,3.4701,0.0,0.0,3.2128,3.0624,2.7998,0.0,0.0,0.0,2.5432,2.5384,0.0,0.0,0.0,0.0,2.5312,0.0,2.704,2.772,3.1189,3.6689,4.2283,4.2687,4.0234,4.2789,4.2615,4.1265,4.3239,4.4349,4.4872,4.4872,4.5293,4.5816,4.5816,4.583,4.5859,4.5859,4.5866,4.5772,4.5133,4.3529,4.1903,4.125,3.9513,0.0,0.0,0.0,3.9398,0.0,0.0,0.0,0.0,0.0,0.0,0.0,0.0,0.0,0.0,0.0,0.0,0.0,0.0,0.0,0.0,3.4899,3.5777,3.7884,3.8033,3.8977,0.0,4.323,4.4488,4.4687,4.6742,4.8266,4.9127,5.0537,5.2093,5.3756,5.5227,5.6397,5.7188,5.7188,5.7188,5.7188,5.7188,5.7188,5.7188,5.7188,5.7188,5.7188,5.7188,5.7188,5.7188,5.7188,5.7201,5.7244,2.7988,2.7769,2.7457,0.0,2.7524,2.7673,0.0,0.0,0.0,0.0,3.0231,3.0537,3.0566,3.193,3.2791,3.2724,3.411,0.0,0.0,0.0,0.0,3.421,3.4066,3.3152,3.1312,3.1276,0.0,2.7085,2.7085,0.0,2.5312,0.0,0.0,0.0,0.0,0.0,2.704,2.772,3.0668,3.5142,3.8069,3.8754,0.0,0.0,4.0118,4.0002,4.2397,4.3674,4.4226,4.4226,4.4364,4.4487,4.4487,4.4814,4.5162,4.5162,4.5525,4.5851,4.57,4.3565,4.1308,4.1134,3.9157,3.7266,0.0,0.0,0.0,0.0,0.0,0.0,0.0,0.0,0.0,0.0,0.0,0.0,0.0,0.0,0.0,0.0,0.0,0.0,3.4899,3.4899,3.5131,3.5694,3.5744,3.6721,3.8894,0.0,4.1359,4.4604,4.525,4.6866,4.9587,5.1171,5.2716,5.4242,5.5823,5.6789,5.7188,5.7188,5.7188,5.7188,5.7188,5.7188,5.7188,5.7188,5.7188,5.7188,5.7188,5.7188,5.7188,5.7188,5.7394,5.7649,2.7846,0.0,0.0,2.8046,0.0,0.0,2.8895,0.0,0.0,3.2054,3.2859,0.0,3.3308,3.4019,3.4459,3.4341,3.4836,0.0,0.0,0.0,0.0,3.4799,3.4799,3.4078,3.2527,3.2731,0.0,2.7697,0.0,0.0,2.5312,0.0,0.0,0.0,0.0,2.5791,0.0,2.9044,3.1474,3.4097,3.7566,0.0,0.0,4.0162,4.0699,4.0655,4.2092,4.3007,4.3558,4.3558,4.3768,4.3993,4.3993,4.4226,4.4523,4.4523,4.4763,4.5053,4.5053,4.3754,4.2368,4.2368,4.0971,3.9708,3.9982,4.0356,4.111,0.0,4.1319,4.0133,0.0,0.0,0.0,0.0,0.0,0.0,0.0,0.0,0.0,0.0,0.0,0.0,3.4982,3.4899,3.4899,3.4899,3.4899,3.5446,3.6688,0.0,4.0716,4.3181,4.5119,4.7494,5.03,5.1279,5.2814,5.4927,5.5933,5.6697,5.7188,5.7188,5.7188,5.7188,5.7188,5.7188,5.7188,5.7188,5.7188,5.7188,5.7188,5.7319,5.7449,5.7449,5.7613,5.7815,0.0,0.0,0.0,0.0,0.0,0.0,0.0,3.1264,0.0,3.4459,0.0,3.7004,3.6765,3.674,3.6664,3.6424,0.0,3.5688,3.5688,3.5195,3.4907,3.4907,3.4847,3.4162,3.2839,3.326,0.0,0.0,0.0,0.0,0.0,0.0,0.0,0.0,0.0,0.0,0.0,3.0834,3.2768,3.3525,3.876,4.0191,3.9465,4.1932,4.2557,4.2092,4.2092,4.244,4.2876,4.2876,4.3253,4.3747,4.3747,4.3805,4.3863,4.3863,4.3921,4.3993,4.3993,4.3942,4.3863,4.3863,4.3369,4.3021,4.3616,4.3795,4.3781,4.3614,4.3456,4.3162,0.0,0.0,0.0,0.0,0.0,0.0,0.0,0.0,0.0,0.0,0.0,0.0,0.0,3.523,3.5015,3.5313,3.533,3.5446,3.5744,0.0,4.1527,4.1825,4.5665,4.876,5.0973,5.1268,5.2791,5.5539,5.5837,5.6384,5.7156,5.7176,5.7188,5.7188,5.7188,5.7188,5.7188,5.7188,5.7188,5.7219,5.7251,5.7486,5.7804,5.7909,5.7925,5.7971,0.0,0.0,0.0,0.0,0.0,2.9641,3.2202,3.3211,3.4246,3.5835,3.6343,3.6512,3.6487,3.6461,3.6449,3.6411,3.6314,0.0,0.0,0.0,0.0,3.5448,3.5039,3.4679,3.4402,3.4487,3.2936,0.0,2.9761,2.827,2.5312,0.0,0.0,0.0,0.0,0.0,2.7905,3.1129,0.0,3.3769,3.7879,3.9407,3.9421,4.1482,4.2179,4.2092,4.2092,4.2165,4.2252,4.2252,4.2339,4.2426,4.2426,4.276,4.3166,4.3166,4.3558,4.3993,4.3993,4.3587,4.3166,4.3166,4.2702,4.2281,4.2397,4.2702,4.2926,4.2885,4.2206,4.1782,4.2314,0.0,0.0,0.0,0.0,0.0,0.0,0.0,0.0,0.0,0.0,0.0,0.0,0.0,0.0,0.0,3.7619,3.8381,4.0169,0.0,4.2253,0.0,4.545,4.7743,0.0,0.0,5.3416,5.5201,5.5954,5.6501,5.6873,5.7105,5.7188,5.7188,5.7188,5.7188,5.7188,5.7188,5.7188,5.7226,5.7565,5.7733,5.7874,5.8412,5.8624,5.8634,0.0,0.0,0.0,0.0,0.0,0.0,0.0,3.4186,0.0,3.7012,3.7228,3.7228,3.7228,3.7228,3.7228,3.7228,3.6976,3.6807,3.6807,3.6314,3.6001,3.6001,3.5496,0.0,3.5208,3.5484,3.3813,3.0107,3.066,2.9012,0.0,0.0,0.0,0.0,0.0,2.7171,0.0,0.0,0.0,3.6375,3.8392,3.9799,4.08,4.1744,4.2092,4.2092,4.2092,4.2092,4.2092,4.2092,4.2092,4.2092,4.2092,4.2295,4.2528,4.2528,4.276,4.3007,4.3007,4.2774,4.2528,4.2528,4.231,4.2133,4.2222,4.2412,4.2602,4.2795,4.2793,4.3269,4.4937,4.4071,0.0,0.0,0.0,0.0,0.0,0.0,0.0,0.0,0.0,0.0,0.0,0.0,0.0,0.0,0.0,0.0,4.1295,0.0,4.3595,0.0,0.0,0.0,5.1342,0.0,5.371,5.5534,5.6116,5.6532,5.6807,5.7079,5.7188,5.7188,5.7188,5.7188,5.7188,5.7188,5.7313,5.7541,5.7721,5.8017,5.8348,5.8686,5.8898,5.9063,0.0,2.9136,0.0,0.0,3.0567,0.0,3.3537,3.4823,3.6182,3.7808,3.8012,3.8012,3.8012,3.8012,3.8012,3.8012,3.7601,3.736,3.736,3.6867,3.6567,3.6567,3.6062,3.5712,3.5592,3.6134,3.4559,0.0,3.1274,2.9685,0.0,0.0,0.0,0.0,0.0,0.0,0.0,0.0,3.5563,3.887,3.9542,4.0728,4.2092,4.2092,4.2092,4.2092,4.2092,4.2092,4.2092,4.2092,4.2092,4.2092,4.2092,4.2092,4.2092,4.2092,4.2092,4.2092,4.2092,4.2092,4.2092,4.2092,4.2092,4.2154,4.2351,4.2433,4.2561,4.2935,4.3815,4.5164,4.7271,4.6421,0.0,0.0,0.0,0.0,0.0,0.0,0.0,0.0,0.0,0.0,0.0,0.0,0.0,0.0,0.0,4.002,4.2653,4.444,4.5445,0.0,0.0,5.0091,5.1687,0.0,5.3898,5.5642,5.6092,5.6451,5.6715,5.7003,5.7156,5.7188,5.7188,5.7188,5.7188,5.7188,5.7443,5.7804,5.7886,5.8279,5.8808,5.8878,5.9024,5.9197,0.0,0.0,0.0,0.0,0.0,0.0,3.516,3.5496,3.6182,3.7808,3.8012,3.8012,3.8012,3.8012,3.8012,3.8012,3.7964,3.794,3.794,3.7409,3.712,3.712,3.6615,3.611,3.5604,3.6134,3.528,0.0,3.1635,3.0275,2.8871,2.6442,0.0,0.0,0.0,0.0,0.0,3.7077,3.851,3.931,4.112,4.1932,4.2092,4.2092,4.2092,4.2092,4.2092,4.2092,4.2092,4.2092,4.2092,4.2092,4.2092,4.2092,4.2092,4.2092,4.2092,4.2092,4.2092,4.2092,4.2092,4.2092,4.2092,4.2154,4.2351,4.2541,4.2729,4.2941,4.4362,4.5829,4.674,4.7323,4.7868,0.0,0.0,0.0,0.0,0.0,0.0,0.0,0.0,0.0,0.0,4.1096,0.0,0.0,4.1212,4.2934,4.7173,4.7587,4.7879,4.8321,4.9477,5.061,5.169,5.3092,5.4134,5.4819,5.5584,5.6116,5.6455,5.6733,5.6977,5.7188,5.7188,5.7188,5.7188,5.7188,5.7443,5.7827,5.8142,5.8484,5.8838,5.913,5.9073,5.8848,0.0,0.0,0.0,0.0,0.0,0.0,0.0,3.6423,3.7264,3.7928,3.8012,3.8012,3.8012,3.8012,3.8012,3.8012,3.8012,3.8012,3.8012,3.7808,3.7687,3.7687,3.7168,3.6771,3.6567,3.6771,3.5845,0.0,0.0,3.0504,2.8775,2.6388,0.0,0.0,0.0,3.3469,3.6038,3.8113,3.9754,4.1004,4.1787,4.2092,4.2092,4.2092,4.2324,4.2629,4.2629,4.289,4.3239,4.3239,4.2731,4.2092,4.2092,4.2092,4.2092,4.2092,4.2092,4.2092,4.2092,4.2092,4.2092,4.2092,4.2092,4.2195,4.2514,4.2642,4.2789,4.3095,4.4529,4.5792,4.6094,4.7158,4.7653,4.6626,0.0,0.0,0.0,0.0,0.0,0.0,0.0,0.0,0.0,0.0,0.0,0.0,0.0,4.0815,4.3878,4.4458,4.5546,4.7385,0.0,5.0475,5.2823,5.3861,5.4648,5.5191,5.5674,5.6092,5.6414,5.668,5.6951,5.7188,5.7188,5.7188,5.7213,5.7467,5.7774,5.8142,5.8474,5.8675,5.8818,5.8956,5.8926,5.8798,3.0501,0.0,3.136,0.0,3.385,3.5182,3.5705,3.7044,3.8012,3.8012,3.8012,3.8012,3.8012,3.8012,3.8012,3.8012,3.8012,3.8012,3.8012,3.8012,3.8012,3.8012,3.7625,0.0,3.7192,3.7336,3.6615,3.4943,3.3368,3.1913,3.0533,2.8414,0.0,0.0,3.3051,3.5514,3.7688,3.9347,4.0844,4.2107,4.2281,4.2353,4.2382,4.2571,4.2919,4.3282,4.3282,4.3587,4.3993,4.3993,4.3398,4.2658,4.2658,4.2658,4.2615,4.2411,4.2353,4.2324,4.215,4.2092,4.2092,4.2092,4.2092,4.2216,4.2622,4.2688,4.2809,4.321,4.4586,4.5697,4.5697,4.6963,4.7487,4.5914,0.0,0.0,0.0,0.0,0.0,0.0,0.0,4.2222,3.9407,0.0,0.0,0.0,0.0,3.8447,4.1245,4.2719,4.4429,0.0,0.0,0.0,5.3333,5.425,5.4898,5.5282,5.5619,5.6007,5.6414,5.6755,5.7028,5.7188,5.7188,5.7188,5.7213,5.7516,5.7832,5.8186,5.8402,5.8561,5.8644,5.8644,5.8592,5.8519,3.2444,3.3575,3.4337,3.4365,3.6364,3.7539,3.6371,3.723,3.8012,3.8012,3.8012,3.8012,3.8012,3.8012,3.8012,3.8012,3.8012,3.8012,3.8012,3.8012,3.8012,0.0,0.0,3.7733,3.7204,3.7735,3.7735,3.7156,0.0,0.0,3.546,3.3392,3.3338,3.5067,3.6304,3.8088,4.0241,4.1513,4.2078,4.215,4.2745,4.2977,4.305,4.3718,4.3964,4.3979,4.3979,4.3979,4.3993,4.3993,4.3979,4.3964,4.3964,4.3964,4.3855,4.3181,4.2977,4.2868,4.2252,4.2092,4.2092,4.2092,4.2092,4.2216,4.2622,4.2688,4.2809,4.321,4.4586,4.5697,4.5697,4.6963,4.7984,4.7968,0.0,0.0,0.0,0.0,0.0,0.0,4.6576,4.6195,4.1792,0.0,0.0,0.0,0.0,0.0,0.0,0.0,0.0,4.6494,5.0048,0.0,5.2786,5.408,5.471,5.471,5.5252,5.5811,5.6428,5.6951,5.7206,5.7188,5.7188,5.7188,5.7188,5.7219,5.7437,5.7804,5.7804,5.8006,5.8319,5.8319,5.8097,5.7862,3.1402,3.1759,3.2532,3.4112,3.503,3.5963,3.7242,3.7761,3.8012,3.8012,3.8012,3.8012,3.8012,3.8012,3.8012,0.0,3.8012,3.8012,0.0,3.8012,3.8012,3.8012,3.8012,3.7928,3.776,3.7916,3.8082,3.8298,0.0,0.0,0.0,3.4438,3.5137,3.6183,3.9034,4.0941,4.2093,4.391,4.4676,4.4712,4.4901,4.4988,4.5003,4.5198,4.5547,4.5901,4.5901,4.62,4.66,4.66,4.66,4.66,4.66,4.5409,4.3972,4.3732,4.3674,4.3529,4.2876,4.2702,4.26,4.2194,4.2092,4.2175,4.2433,4.2708,4.2975,4.325,4.4143,4.5055,4.5606,4.6515,4.7354,4.7902,4.8001,0.0,0.0,0.0,0.0,0.0,4.5333,4.4605,0.0,4.1394,0.0,0.0,0.0,0.0,0.0,0.0,0.0,0.0,4.9419,0.0,5.4624,5.5037,5.5252,5.5252,5.5419,5.5828,5.6428,5.6964,5.7188,5.7188,5.7188,5.7188,5.7213,5.7504,5.7685,5.7815,5.8051,5.8063,5.7948,5.7948,5.7897,5.7851,3.0889,3.1257,3.1903,3.2921,3.3804,3.4919,3.641,3.7042,3.7495,3.7947,3.8012,3.8012,3.8012,3.8012,0.0,3.8012,3.8012,3.8012,3.8012,3.8012,3.8012,3.8012,3.8012,3.8012,3.8012,3.819,0.0,3.8788,3.7647,3.6615,3.5689,3.6663,3.727,3.7685,4.0386,4.1999,4.2765,4.4527,4.5512,4.5932,4.6142,4.6243,4.6272,4.6527,4.6838,4.7187,4.7187,4.7448,4.7805,4.7805,4.7805,4.7805,4.7805,4.6716,4.5372,4.5126,4.4893,4.456,4.3913,4.3355,4.2905,4.2528,4.2266,4.2154,4.2351,4.2708,4.3036,4.3155,4.3892,4.4756,4.5551,4.6306,4.705,4.7869,4.8001,4.8001,4.8001,0.0,0.0,0.0,0.0,0.0,0.0,4.338,4.3048,0.0,0.0,0.0,0.0,0.0,4.3318,4.7121,5.0222,5.2915,5.5189,5.5404,5.5552,5.5651,5.5879,5.6189,5.6559,5.7003,5.7188,5.7188,5.7188,5.7188,5.7213,5.7461,5.7559,5.7601,5.7802,5.7774,5.7559,5.7559,5.7673,5.7827,3.0889,3.1787,3.2238,0.0,3.2835,3.4308,3.4391,3.5427,3.6584,3.7735,3.7959,3.8012,3.8012,3.8012,3.8012,3.8012,0.0,0.0,3.8012,3.8012,3.8012,3.8012,3.8012,3.8024,3.8034,3.8515,3.8764,3.8848,3.9441,3.9717,3.9717,3.9745,3.9645,3.9541,4.0851,4.1887,4.2752,4.4032,4.5176,4.62,4.6772,4.7004,4.7076,4.768,4.7936,4.7936,4.7936,4.7936,4.7936,4.7936,4.7936,4.7936,4.7936,4.7936,4.7805,4.7076,4.6475,4.5903,4.5198,4.4153,4.3239,4.3195,4.2731,4.2314,4.2439,4.2762,4.304,4.3016,4.3756,4.468,4.5551,4.6253,4.6999,4.7853,4.8001,4.8001,4.8001,0.0,0.0,0.0,0.0,0.0,4.8084,4.6825,4.6046,0.0,0.0,0.0,0.0,0.0,4.549,4.8828,5.2199,5.4203,5.4741,5.5252,5.5637,5.5918,5.6501,5.6781,5.6807,5.7079,5.7188,5.7188,5.7188,5.7188,5.7188,5.7188,5.7188,5.7188,5.7188,5.7188,5.7188,5.7188,5.7443,5.7756,0.0,0.0,3.1537,3.2152,3.2742,3.3402,3.428,3.5427,3.6286,3.6596,3.7429,3.8012,3.8012,3.8012,3.8012,3.8012,3.8012,3.8012,3.8012,3.8012,3.8012,3.8012,3.8012,3.8178,3.8611,3.8334,3.8587,3.9417,4.0355,4.0812,4.084,4.1015,4.1237,4.152,4.3775,4.4992,4.5504,4.7532,4.8538,4.8822,4.8967,4.9001,4.904,4.9199,4.9257,4.9257,4.9257,4.9257,4.9257,4.9257,4.9257,4.9257,4.9257,4.9257,4.9025,4.7907,4.7448,4.7187,4.6525,4.6133,4.5785,4.5329,4.4727,4.4044,4.3259,4.331,4.343,4.3079,4.3314,4.4008,4.5442,4.5841,4.641,4.7787,4.8001,4.8001,4.8001,4.8001,0.0,0.0,4.8001,4.8216,4.8779,4.8531,4.8547,0.0,0.0,0.0,4.9608,4.8371,4.8371,5.0114,5.2994,5.4757,5.5312,5.5433,5.5637,5.5886,5.6296,5.66,5.6807,5.7079,5.7188,5.7188,5.7188,5.7188,5.7188,5.7188,5.7188,5.7188,5.7188,5.7188,5.7188,5.7188,5.7251,5.7394,3.0889,3.0889,3.1112,3.1759,3.1874,3.2266,3.3459,3.4179,3.4792,3.5317,3.6421,3.7188,3.7188,3.7681,3.8012,3.8012,3.8012,3.8012,3.8012,3.8012,3.8012,3.8012,3.8226,3.8383,3.8431,3.8623,3.9128,3.997,4.0547,4.0944,4.1213,4.1344,4.159,4.1932,4.3315,4.4468,4.5462,4.7215,4.8019,4.8234,4.9287,4.9385,4.8976,4.9498,4.9693,4.9693,4.9693,4.9693,4.9693,4.9693,4.9693,4.9693,4.9693,4.9693,4.9562,4.888,4.8459,4.813,4.7773,4.7251,4.6656,4.604,4.5409,4.4749,4.4152,4.4071,4.4036,4.3776,4.4004,4.4699,4.6332,4.6358,4.666,4.8248,4.8216,4.8001,4.8001,4.8299,4.8514,4.8514,4.8812,4.916,4.9557,4.9906,5.027,5.0667,4.9906,0.0,5.1712,5.1145,5.1183,5.2081,5.3787,5.4959,5.5493,5.5767,5.5979,5.613,5.6555,5.6834,5.699,5.7125,5.7188,5.7188,5.7188,5.7188,5.7188,5.7188,5.7188,5.7188,5.7188,5.7188,5.7188,5.7188,5.7332,5.7492,3.0889,3.0889,3.0889,3.0889,3.0889,3.1257,3.2266,3.2571,3.3045,3.4011,3.5179,3.5932,3.5932,3.6827,3.7536,3.7708,3.7735,3.7814,3.7986,3.8012,3.8012,3.8012,3.8443,3.8503,3.8118,3.9176,3.9946,4.0391,4.0475,4.0739,4.1213,4.1242,4.1361,4.1594,4.181,4.2771,4.4277,4.5422,4.6044,4.6464,4.841,4.8713,4.8097,4.9075,4.9547,4.9693,4.9693,4.9693,4.9693,4.9693,4.9693,4.9693,4.9693,4.9693,4.9693,4.9693,4.9291,4.8846,4.8846,4.8048,4.7076,4.6475,4.588,4.5387,4.5133,4.4966,4.4834,4.4642,4.4977,4.5778,4.7396,4.7186,4.7321,4.899,4.8415,4.7886,4.8266,0.0,4.8878,4.9243,4.9822,5.0236,5.0369,5.0933,5.1347,5.1447,5.2043,5.2391,5.2391,5.2922,5.3433,5.3879,5.4427,5.4959,5.5493,5.6053,5.6342,5.6414,5.6912,5.715,5.7188,5.7188,5.7188,5.7188,5.7188,5.7188,5.7188,5.7188,5.7188,5.7188,5.7188,5.7188,5.7188,5.7188,5.7431,5.7661,3.0889,3.0889,3.0889,3.0889,3.0889,3.0947,3.1141,3.2047,3.2771,3.2931,3.3983,3.467,3.467,3.4864,3.5361,3.6394,3.6487,3.692,3.7921,3.8012,3.8012,3.8012,3.8096,3.8298,3.8683,3.9729,4.0319,4.0391,4.0848,4.1129,4.1213,4.1418,4.1549,4.1651,4.2898,4.3744,4.4277,4.5422,4.6044,4.6333,4.6698,4.7306,4.8021,4.8198,4.8852,4.9693,4.9693,4.9693,4.9693,4.9693,4.9693,4.9693,4.9693,4.9693,4.9693,4.9693,4.9635,4.9548,4.9548,4.9403,4.9074,4.8435,4.8179,4.7686,4.6098,4.6027,4.5975,4.4819,4.4977,4.5778,4.7396,4.7333,4.7687,4.9696,4.8083,4.7341,4.9557,0.0,4.7934,4.9806,5.0137,5.0452,5.1066,5.1231,5.1546,5.2176,5.2342,5.2391,5.2391,5.3264,5.3814,5.3896,5.4427,5.4959,5.5493,5.5822,5.6116,5.6414,5.6702,5.699,5.7188,5.7188,5.7188,5.7188,5.7188,5.7188,5.7188,5.7188,5.7188,5.7188,5.7188,5.7188,5.7188,5.7188,5.7226,5.7276,3.0889,3.0889,3.0889,3.0889,3.0889,3.0889,3.0889,3.1363,3.174,3.174,3.276,3.3487,3.3487,3.4028,3.4891,3.6095,3.6204,3.6704,3.7933,3.8012,3.8012,3.8012,3.8274,3.8551,3.8788,3.9573,3.997,3.997,4.0499,4.0908,4.1213,4.1344,4.1361,4.1418,4.2093,4.256,4.2883,4.402,4.4401,4.4345,4.5595,4.6137,4.6294,4.6867,4.7805,4.8777,4.8777,4.9188,4.9693,4.9693,4.9693,4.9693,4.9693,4.9693,4.9693,4.9693,4.9693,4.9693,4.9693,4.9693,4.9635,4.9306,4.8972,4.8469,4.7622,4.7248,4.6911,4.6285,4.6278,4.6883,4.8545,4.8348,4.8589,5.0472,4.9438,4.8809,5.0037,4.9657,4.9657,5.0667,5.1131,5.153,5.1861,5.1894,5.2027,5.2375,5.2391,5.2391,5.2391,5.2851,5.3332,5.3879,5.4695,5.5252,5.5493,5.5764,5.606,5.6414,5.6662,5.6938,5.7188,5.7188,5.7188,5.7188,5.7188,5.7188,5.7188,5.7188,5.7188,5.7188,5.7188,5.7188,5.7188,5.7188,5.7188,5.7188,3.0889,3.0889,3.0889,3.0889,3.0889,3.0889,3.0889,3.0889,3.0889,3.0889,3.1701,3.2266,3.2266,3.3318,3.4486,3.5674,3.6041,3.6704,3.7933,3.8012,3.8012,3.8012,3.8395,3.8683,3.8788,3.9212,3.9549,3.9789,4.0198,4.0667,4.1213,4.1213,4.1213,4.1213,4.1213,4.1344,4.1651,4.2631,4.2812,4.2653,4.4494,4.5007,4.4778,4.5608,4.679,4.7971,4.7703,4.8514,4.9644,4.9385,4.9473,4.9693,4.9693,4.9693,4.9693,4.9693,4.9693,4.9693,4.9693,4.9693,4.9693,4.9693,4.9306,4.8875,4.8745,4.8159,4.7593,4.7461,4.7274,4.7636,4.9282,4.9044,4.9208,5.1106,0.0,4.9898,5.0616,5.075,5.0983,5.148,5.206,5.2391,5.2391,5.2391,5.2391,5.2391,5.2391,5.2391,5.2391,5.2499,5.3025,5.4058,5.5022,5.5493,5.5493,5.5764,5.606,5.6414,5.6662,5.6938,5.7188,5.7188,5.7188,5.7188,5.7188,5.7188,5.7188,5.7188,5.7188,5.7188,5.7188,5.7188,5.7188,5.7188,5.7188,5.7188,3.0889,3.0889,3.0889,3.0889,3.0889,3.0889,3.0889,3.0889,3.0889,3.0889,3.0976,3.1034,3.1034,3.2094,3.33,3.4419,3.5564,3.6704,3.7933,3.8012,3.8012,3.8012,3.8048,3.8286,3.8788,3.8836,3.9357,4.0343,4.0379,4.0667,4.1213,4.1213,4.1213,4.1213,4.1213,4.1344,4.1635,4.2029,4.2312,4.2541,4.3017,4.3795,4.471,4.4778,4.6137,4.7869,4.6802,4.7841,4.9547,4.8489,4.8827,4.9693,4.9693,4.9693,4.9693,4.9693,4.9693,4.9693,4.9693,4.9693,4.9693,4.9693,4.9664,4.9451,4.8832,4.8377,4.7892,4.7336,4.6917,4.7134,4.8682,4.8625,4.9085,5.1403,0.0,0.0,5.1838,5.0518,5.0021,5.2077,5.2375,5.2391,5.2391,5.2391,5.2391,5.2391,5.2391,5.2391,5.2391,5.28,5.355,5.4617,5.5206,5.5493,5.5493,5.5764,5.606,5.6414,5.6662,5.6938,5.7188,5.7188,5.7188,5.7188,5.7188,5.7188,5.7188,5.7188,5.7188,5.7188,5.7188,5.7188,5.7188,5.7188,5.7188,5.7188,3.0889,3.0889,3.0889,3.0889,3.0889,3.0889,3.0889,3.0889,3.0889,3.0889,3.0889,3.0889,3.0889,3.1315,3.2342,3.4252,3.4808,3.5909,3.7868,3.8012,3.8012,3.8012,3.831,3.8443,3.8298,3.9284,3.9838,3.991,4.0559,4.0992,4.1213,4.1213,4.1213,4.1213,4.1213,4.1258,4.1361,4.1675,4.1972,4.2284,4.2553,4.3073,4.3643,4.3643,4.5034,4.6893,4.6464,4.7765,4.962,4.9213,4.9336,4.9693,4.9693,4.9693,4.9693,4.9693,4.9693,4.9693,4.9693,4.9693,4.9693,4.9693,4.9693,4.9635,4.9364,4.9018,4.8542,4.7898,4.7437,4.7524,4.8676,4.878,4.9253,5.1062,0.0,5.0394,5.1827,5.129,5.1165,5.2274,5.2391,5.2391,5.2391,5.2391,5.2391,5.2391,5.2391,5.2391,5.2391,5.2852,5.3449,5.4171,5.4726,5.5159,5.5493,5.5593,5.5793,5.6088,5.6392,5.6689,5.6964,5.7112,5.7188,5.7188,5.7188,5.7188,5.7188,5.7188,5.7188,5.7188,5.7188,5.7188,5.7188,5.7188,5.7188,5.7188,3.1094,3.1094,3.1094,3.1094,3.1094,3.1094,3.1094,3.0976,3.0889,3.0889,3.0889,3.0889,3.0889,3.1228,3.2123,3.373,3.4196,3.5101,3.6762,3.7215,3.7601,3.7974,3.8346,3.8383,3.8012,3.9068,3.9633,3.9609,4.0331,4.086,4.1213,4.1213,4.1213,4.1213,4.1213,4.1242,4.1344,4.1618,4.1944,4.2256,4.2525,4.2806,4.3002,4.3002,4.4166,4.5767,4.5382,4.6957,4.91,4.8749,4.9124,4.9693,4.9693,4.9693,4.9693,4.9693,4.9693,4.9693,4.9693,4.9693,4.9693,4.9693,4.9693,4.9693,4.9693,4.9334,4.8847,4.838,4.7737,4.7614,4.8701,4.8733,4.9111,5.0666,5.1024,5.1266,5.1725,5.1922,5.2104,5.2356,5.2391,5.2391,5.2391,5.2391,5.2391,5.2391,5.2391,5.2391,5.2391,5.2852,5.3349,5.3879,5.4427,5.4959,5.5493,5.5493,5.5637,5.5886,5.6245,5.6532,5.6807,5.7079,5.7188,5.7188,5.7188,5.7188,5.7188,5.7188,5.7188,5.7188,5.7188,5.7188,5.7188,5.7188,5.7188,5.7188,3.1484,3.1484,3.1514,3.1514,3.1514,3.1514,3.1514,3.1162,3.0889,3.0889,3.0889,3.0889,3.0889,3.196,3.2685,3.2685,3.373,3.4391,3.4419,3.5537,3.6731,3.7959,3.8012,3.8012,3.8012,3.8012,3.8527,3.9609,3.9621,4.0162,4.1213,4.1213,4.1213,4.1213,4.1213,4.1344,4.1635,4.1956,4.2256,4.2525,4.2862,4.3002,4.3002,4.3002,4.3725,4.4547,4.3434,4.5168,4.7819,4.6672,4.7791,4.9669,4.9669,4.9693,4.9693,4.9693,4.9693,4.9693,4.9693,4.9693,4.9693,4.9693,4.9693,4.9693,4.9693,4.919,4.8701,4.8687,4.7686,4.7221,4.8632,4.8353,4.8475,5.0218,5.0835,5.1266,5.1741,5.214,5.2391,5.2391,5.2391,5.2391,5.2391,5.2391,5.2391,5.2391,5.2391,5.2391,5.2391,5.2835,5.3349,5.3879,5.4411,5.4944,5.5493,5.5493,5.5637,5.5904,5.6245,5.6532,5.6807,5.7079,5.7188,5.7188,5.7188,5.7188,5.7188,5.7188,5.7188,5.7188,5.7188,5.7188,5.7188,5.7188,5.7188,5.7188,3.1484,3.1279,3.1074,3.1074,3.1074,3.1074,3.1074,3.0976,3.0889,3.0889,3.0889,3.0889,3.0889,3.1228,3.1787,3.2628,3.3016,3.3899,3.5564,3.6013,3.6731,3.7959,3.8012,3.8012,3.8012,3.8731,3.9284,3.9609,4.0343,4.0872,4.1213,4.1213,4.1213,4.1213,4.1213,4.1242,4.1344,4.1871,4.2155,4.2268,4.2778,4.3002,4.3002,4.3002,4.3725,4.4656,4.4302,4.5329,4.675,4.6398,4.675,4.7445,4.8248,4.905,4.9693,4.9693,4.9693,4.9693,4.9693,4.9693,4.9693,4.9693,4.9693,4.9693,4.9693,4.919,4.8571,4.8159,4.7381,4.7089,4.8035,4.8019,4.8386,4.984,5.0175,5.0506,5.121,5.1415,5.1709,5.232,5.2391,5.2391,5.2391,5.2391,5.2391,5.2391,5.2391,5.2391,5.2391,5.2535,5.3008,5.3879,5.4058,5.4586,5.5493,5.5493,5.5537,5.5622,5.6151,5.6442,5.6532,5.7003,5.7188,5.7188,5.7188,5.7188,5.7188,5.7188,5.7188,5.7188,5.7188,5.7188,5.7188,5.7188,5.7188,5.7188,3.2021,3.1689,3.1396,3.1396,3.125,3.1143,3.1143,3.0996,3.0889,3.0889,3.0889,3.0889,3.0889,3.0889,3.1199,3.1932,3.1989,3.2789,3.4681,3.4819,3.5564,3.7215,3.7296,3.751,3.7986,3.8623,3.9068,3.9296,4.015,4.0667,4.0872,4.1088,4.1213,4.1213,4.1213,4.1258,4.1402,4.1899,4.2155,4.2312,4.2806,4.3002,4.3002,4.3002,4.3434,4.4042,4.4042,4.4738,4.5661,4.5661,4.5939,4.6516,4.7627,4.8464,4.9124,4.9571,4.9693,4.9693,4.9693,4.9693,4.9635,4.9364,4.9504,4.9693,4.9693,4.919,4.86,4.8232,4.7425,4.7013,4.7727,4.7894,4.824,4.9325,4.986,5.0312,5.0797,5.1153,5.158,5.2087,5.2302,5.2391,5.2391,5.2391,5.2391,5.2391,5.2391,5.2391,5.2391,5.2391,5.2764,5.3566,5.3797,5.4316,5.5191,5.5386,5.5493,5.5507,5.6109,5.6401,5.6428,5.6964,5.7188,5.7188,5.7188,5.7188,5.7188,5.7188,5.7188,5.7188,5.7188,5.7188,5.7188,5.7188,5.7188,5.7188,3.2744,3.2462,3.2189,3.2149,3.1787,3.1474,3.1435,3.1133,3.0889,3.0889,3.0889,3.0889,3.0889,3.0889,3.0889,3.0889,3.0889,3.1392,3.2628,3.2685,3.3741,3.6095,3.6204,3.6746,3.7986,3.806,3.831,3.8788,3.9393,3.9922,4.0403,4.0944,4.1213,4.1213,4.1213,4.1344,4.1578,4.1915,4.2199,4.2497,4.2834,4.2974,4.3002,4.3002,4.3002,4.3002,4.3002,4.367,4.4547,4.4547,4.5262,4.6333,4.7396,4.7844,4.8198,4.9237,4.962,4.9693,4.9693,4.9693,4.9562,4.8933,4.9204,4.9606,4.9548,4.9059,4.86,4.8542,4.757,4.6905,4.7607,4.7776,4.8051,4.8785,4.973,5.0393,5.0486,5.1207,5.176,5.1813,5.2158,5.2391,5.2391,5.2391,5.2391,5.2391,5.2391,5.2391,5.2391,5.2391,5.2606,5.3094,5.3633,5.4155,5.4695,5.5237,5.5493,5.5507,5.6081,5.6373,5.6428,5.6938,5.7181,5.7188,5.7188,5.7188,5.7188,5.7188,5.7188,5.7188,5.7188,5.7188,5.7188,5.7188,5.7188,5.7188,3.2335,3.2257,3.2091,3.1719,3.1582,3.1377,3.1074,3.0947,3.0889,3.0889,3.0889,3.0889,3.0889,3.0889,3.0889,3.0889,3.0889,3.1392,3.2628,3.2685,3.3741,3.6095,3.6204,3.6746,3.7986,3.8419,3.8668,3.8788,3.9765,4.0282,4.0403,4.0944,4.1213,4.1213,4.1213,4.1242,4.1316,4.159,4.1875,4.2211,4.2497,4.2778,4.3002,4.3002,4.3002,4.3002,4.3002,4.3169,4.3379,4.3379,4.4124,4.5088,4.5329,4.6608,4.8047,4.8313,4.9001,4.9693,4.9693,4.9693,4.9664,4.9533,4.9204,4.8798,4.8328,4.811,4.7854,4.7323,4.6612,4.6309,4.697,4.7115,4.7514,4.8702,4.9091,4.9534,5.0374,5.093,5.1394,5.176,5.2158,5.2391,5.2391,5.2391,5.2391,5.2391,5.2391,5.2391,5.2391,5.2391,5.2606,5.3094,5.3633,5.4155,5.4695,5.5237,5.5493,5.5493,5.585,5.6148,5.6414,5.6728,5.7003,5.7188,5.7188,5.7188,5.7188,5.7188,5.7188,5.7188,5.7188,5.7188,5.7188,5.7188,5.7188,5.7188,3.2725,3.2472,3.213,3.1865,3.1484,3.1143,3.0928,3.0889,3.0889,3.0889,3.0889,3.0889,3.0889,3.0889,3.0889,3.0889,3.0889,3.117,3.1787,3.1845,3.2903,3.5234,3.5344,3.6193,3.7959,3.8527,3.8788,3.8788,3.9621,4.0018,4.0018,4.0306,4.0571,4.0812,4.0812,4.0944,4.1213,4.1492,4.1692,4.1887,4.2199,4.2509,4.275,4.275,4.2862,4.3002,4.3002,4.3002,4.3002,4.3002,4.3406,4.3987,4.452,4.5489,4.6634,4.7677,4.8413,4.9001,4.9547,4.9475,4.9146,4.888,4.8522,4.8261,4.8246,4.7767,4.723,4.6873,4.633,4.6015,4.6358,4.6675,4.7228,4.8261,4.8682,4.9208,5.0097,5.0547,5.0984,5.1413,5.1851,5.2194,5.2373,5.2391,5.2391,5.2391,5.2391,5.2391,5.2391,5.2391,5.2606,5.3094,5.3633,5.4155,5.4695,5.5237,5.5493,5.5493,5.5779,5.6092,5.6414,5.668,5.6951,5.7188,5.7188,5.7188,5.7188,5.7067,5.7015,5.7015,5.7015,5.7015,5.701,5.7138,5.7188,5.7188,3.3135,3.2646,3.2179,3.2101,3.1465,3.0976,3.0898,3.0889,3.0889,3.0889,3.0889,3.0889,3.0889,3.0889,3.0889,3.0889,3.0889,3.0889,3.0889,3.0889,3.1864,3.4011,3.4308,3.5443,3.7628,3.8503,3.8884,3.8788,3.9441,3.9741,3.9741,3.9838,4.0114,4.0535,4.0535,4.0775,4.1213,4.1447,4.1549,4.1635,4.1887,4.2199,4.2497,4.2441,4.2666,4.2989,4.2845,4.2745,4.2698,4.2698,4.2788,4.3018,4.3969,4.4404,4.4942,4.6948,4.7631,4.7938,4.9067,4.8957,4.8435,4.7936,4.7718,4.7753,4.8266,4.757,4.6772,4.667,4.6258,4.5903,4.5903,4.6358,4.7004,4.7776,4.8371,4.9005,4.9797,5.0253,5.0644,5.1062,5.1561,5.2015,5.2356,5.2391,5.2391,5.2391,5.2391,5.2391,5.2391,5.2391,5.2588,5.2974,5.3583,5.4106,5.457,5.5098,5.5356,5.5356,5.5499,5.5829,5.6314,5.6442,5.6666,5.6941,5.6979,5.6966,5.6928,5.6829,5.6768,5.6728,5.6781,5.6794,5.6834,5.7105,5.7188,5.7188,3.2355,3.2276,3.2081,3.167,3.1514,3.1309,3.0947,3.0889,3.0889,3.0889,3.0889,3.0889,3.0889,3.0889,3.0889,3.0889,3.0889,3.0889,3.0889,3.0889,3.1508,3.2885,3.3871,3.503,3.6421,3.8453,3.9245,3.8788,3.9801,4.0282,4.0294,4.0763,4.1004,4.1105,4.1105,4.1124,4.1213,4.1242,4.139,4.1606,4.1663,4.2004,4.2469,4.224,4.2522,4.2911,4.2157,4.1738,4.1541,4.1541,4.1869,4.2353,4.2505,4.316,4.4164,4.5379,4.6078,4.6674,4.7754,4.7994,4.7907,4.782,4.7361,4.696,4.7047,4.6931,4.6656,4.6127,4.5953,4.5903,4.5903,4.597,4.6432,4.7691,4.7988,4.847,4.9717,5.0253,5.0644,5.1062,5.1835,5.2338,5.2391,5.2391,5.2391,5.2391,5.2391,5.2391,5.2391,5.2391,5.2427,5.2481,5.3416,5.3928,5.4009,5.4537,5.4821,5.4788,5.4378,5.4797,5.5961,5.5513,5.551,5.5826,5.6061,5.6033,5.5872,5.6519,5.6649,5.6482,5.6702,5.6794,5.6834,5.7105,5.7188,5.7188,3.255,3.2355,3.2061,3.1592,3.1318,3.1103,3.0918,3.0889,3.0889,3.0889,3.0889,3.0889,3.0889,3.0889,3.0889,3.0889,3.0889,3.0889,3.0889,3.0889,3.173,3.3561,3.414,3.5278,3.7162,3.8771,3.9345,3.8788,3.9874,4.0246,3.9958,4.0198,4.0306,4.0319,4.0607,4.0908,4.1213,4.1213,4.1258,4.1361,4.1361,4.1618,4.1976,4.1875,4.193,4.2025,4.1765,4.1748,4.1844,4.2158,4.2235,4.2213,4.2213,4.2299,4.2729,4.4439,4.5112,4.5675,4.7352,4.7521,4.7245,4.7245,4.678,4.6301,4.6301,4.6301,4.6229,4.5961,4.5903,4.5903,4.5903,4.5903,4.6343,4.767,4.7578,4.794,4.9657,4.9725,4.9971,5.0986,5.1672,5.2158,5.2373,5.2391,5.2391,5.2391,5.2391,5.2391,5.2391,5.2391,5.2517,5.2765,5.3213,5.3599,5.3896,5.4123,5.4251,5.4252,5.4009,5.4313,5.5056,5.4826,5.4868,5.5149,5.5279,5.5428,5.5597,5.5787,5.595,5.613,5.6255,5.6497,5.6834,5.7105,5.7188,5.7188]},{"header":{"parameterUnit":"m.s-1","parameterCategory":1,"la1":30.6,"la2":28.766,"lo1":-90.7593,"lo2":-88.6598,"dx":0.0162,"dy":0.0183,"nx":116,"ny":114,"refTime":"2023-01-24T18:00:00:Z","depth":0,"parameterNumber":3,"parameterNumberName":"V-component_of_WINDS"},"data":[0.0,0.0,0.0,0.0,0.0,0.0,0.0,0.0,0.0,0.0,0.0,0.0,0.0,0.0,0.0,0.0,0.0,0.0,0.0,0.0,0.0,0.0,0.0,0.0,0.0,0.0,0.0,0.0,0.0,0.0,0.0,0.0,0.0,0.0,0.0,0.0,0.0,0.0,0.0,0.0,0.0,0.0,0.0,0.0,0.0,0.0,0.0,0.0,0.0,0.0,0.0,0.0,0.0,0.0,0.0,0.0,0.0,0.0,0.0,0.0,0.0,0.0,0.0,0.0,0.0,0.0,0.0,0.0,0.0,0.0,0.0,0.0,0.0,0.0,0.0,0.0,0.0,0.0,0.0,0.0,0.0,0.0,0.0,0.0,0.0,0.0,0.0,0.0,0.0,0.0,0.0,0.0,0.0,0.0,0.0,0.0,0.0,0.0,0.0,0.0,0.0,0.0,0.0,0.0,0.0,0.0,0.0,0.0,0.0,0.0,0.0,0.0,0.0,0.0,0.0,0.0,0.0,0.0,0.0,0.0,0.0,0.0,0.0,0.0,0.0,0.0,0.0,0.0,0.0,0.0,0.0,0.0,0.0,0.0,0.0,0.0,0.0,0.0,0.0,0.0,0.0,0.0,0.0,0.0,0.0,0.0,0.0,0.0,0.0,0.0,0.0,0.0,0.0,0.0,0.0,0.0,0.0,0.0,0.0,0.0,0.0,0.0,0.0,0.0,0.0,0.0,0.0,0.0,0.0,0.0,0.0,0.0,0.0,0.0,0.0,0.0,0.0,0.0,0.0,0.0,0.0,0.0,0.0,0.0,0.0,0.0,0.0,0.0,0.0,0.0,0.0,0.0,0.0,0.0,0.0,0.0,0.0,0.0,0.0,0.0,0.0,0.0,0.0,0.0,0.0,0.0,0.0,0.0,0.0,0.0,0.0,0.0,0.0,0.0,0.0,0.0,0.0,0.0,0.0,0.0,0.0,0.0,0.0,0.0,0.0,0.0,0.0,0.0,0.0,0.0,0.0,0.0,0.0,0.0,0.0,0.0,0.0,0.0,0.0,0.0,0.0,0.0,0.0,0.0,0.0,0.0,0.0,0.0,0.0,0.0,0.0,0.0,0.0,0.0,0.0,0.0,0.0,0.0,0.0,0.0,0.0,0.0,0.0,0.0,0.0,0.0,0.0,0.0,0.0,0.0,0.0,0.0,0.0,0.0,0.0,0.0,0.0,0.0,0.0,0.0,0.0,0.0,0.0,0.0,0.0,0.0,0.0,0.0,0.0,0.0,0.0,0.0,0.0,0.0,0.0,0.0,0.0,0.0,0.0,0.0,0.0,0.0,0.0,0.0,0.0,0.0,0.0,0.0,0.0,0.0,0.0,0.0,0.0,0.0,0.0,0.0,0.0,0.0,0.0,0.0,0.0,0.0,0.0,0.0,0.0,0.0,0.0,0.0,0.0,0.0,0.0,0.0,0.0,0.0,0.0,0.0,0.0,0.0,0.0,0.0,0.0,0.0,0.0,0.0,0.0,0.0,0.0,0.0,0.0,0.0,0.0,0.0,0.0,0.0,0.0,0.0,0.0,0.0,0.0,0.0,0.0,0.0,0.0,0.0,0.0,0.0,0.0,0.0,0.0,0.0,0.0,0.0,0.0,0.0,0.0,0.0,0.0,0.0,0.0,0.0,0.0,0.0,0.0,0.0,0.0,0.0,0.0,0.0,0.0,0.0,0.0,0.0,0.0,0.0,0.0,0.0,0.0,0.0,0.0,0.0,0.0,0.0,0.0,0.0,0.0,0.0,0.0,0.0,0.0,0.0,0.0,0.0,0.0,0.0,0.0,0.0,0.0,0.0,0.0,0.0,0.0,0.0,0.0,0.0,0.0,0.0,0.0,0.0,0.0,0.0,0.0,0.0,0.0,0.0,0.0,0.0,0.0,0.0,0.0,0.0,0.0,0.0,0.0,0.0,0.0,0.0,0.0,0.0,0.0,0.0,0.0,0.0,0.0,0.0,0.0,0.0,0.0,0.0,0.0,0.0,0.0,0.0,0.0,0.0,0.0,0.0,0.0,0.0,0.0,0.0,0.0,0.0,0.0,0.0,0.0,0.0,0.0,0.0,0.0,0.0,0.0,0.0,0.0,0.0,0.0,0.0,0.0,0.0,0.0,0.0,0.0,0.0,0.0,0.0,0.0,0.0,0.0,0.0,0.0,0.0,0.0,0.0,0.0,0.0,0.0,0.0,0.0,0.0,0.0,0.0,0.0,0.0,0.0,0.0,0.0,0.0,0.0,0.0,0.0,0.0,0.0,0.0,0.0,0.0,0.0,0.0,0.0,0.0,0.0,0.0,0.0,0.0,0.0,0.0,0.0,0.0,0.0,0.0,0.0,0.0,0.0,0.0,0.0,0.0,0.0,0.0,0.0,0.0,0.0,0.0,0.0,0.0,0.0,0.0,0.0,0.0,0.0,0.0,0.0,0.0,0.0,0.0,0.0,0.0,0.0,0.0,0.0,0.0,0.0,0.0,0.0,0.0,0.0,0.0,0.0,0.0,0.0,0.0,0.0,0.0,0.0,0.0,0.0,0.0,0.0,0.0,0.0,0.0,0.0,0.0,0.0,0.0,0.0,0.0,0.0,0.0,0.0,0.0,0.0,0.0,0.0,0.0,0.0,0.0,0.0,0.0,0.0,0.0,0.0,0.0,0.0,0.0,0.0,0.0,0.0,0.0,0.0,0.0,0.0,0.0,0.0,0.0,0.0,0.0,0.0,0.0,0.0,0.0,0.0,0.0,0.0,0.0,0.0,0.0,0.0,0.0,0.0,0.0,0.0,0.0,0.0,0.0,0.0,0.0,0.0,0.0,0.0,0.0,0.0,0.0,0.0,0.0,0.0,0.0,0.0,0.0,0.0,0.0,0.0,0.0,0.0,0.0,0.0,0.0,0.0,0.0,0.0,0.0,0.0,0.0,0.0,0.0,0.0,0.0,0.0,0.0,0.0,0.0,0.0,0.0,0.0,0.0,0.0,0.0,0.0,0.0,0.0,0.0,0.0,0.0,0.0,0.0,0.0,0.0,0.0,0.0,0.0,0.0,0.0,0.0,0.0,0.0,0.0,0.0,0.0,0.0,0.0,0.0,0.0,0.0,0.0,0.0,0.0,0.0,0.0,0.0,0.0,0.0,0.0,0.0,0.0,0.0,0.0,0.0,0.0,0.0,0.0,0.0,0.0,0.0,0.0,0.0,0.0,0.0,0.0,0.0,0.0,0.0,0.0,0.0,0.0,0.0,0.0,0.0,0.0,0.0,0.0,0.0,0.0,0.0,0.0,0.0,0.0,0.0,0.0,0.0,0.0,0.0,0.0,0.0,0.0,0.0,0.0,0.0,0.0,0.0,0.0,0.0,0.0,0.0,0.0,0.0,0.0,0.0,0.0,0.0,0.0,0.0,0.0,0.0,0.0,0.0,0.0,0.0,0.0,0.0,0.0,0.0,0.0,0.0,0.0,0.0,0.0,0.0,0.0,0.0,0.0,0.0,0.0,0.0,0.0,0.0,0.0,0.0,0.0,0.0,0.0,0.0,0.0,0.0,0.0,0.0,0.0,0.0,0.0,0.0,0.0,0.0,0.0,0.0,0.0,0.0,0.0,0.0,0.0,0.0,0.0,0.0,0.0,0.0,0.0,0.0,0.0,0.0,0.0,0.0,0.0,0.0,0.0,0.0,0.0,0.0,0.0,0.0,0.0,0.0,0.0,0.0,0.0,0.0,0.0,0.0,0.0,0.0,0.0,0.0,0.0,0.0,0.0,0.0,0.0,0.0,0.0,0.0,0.0,0.0,0.0,0.0,0.0,0.0,0.0,0.0,0.0,0.0,0.0,0.0,0.0,0.0,0.0,0.0,0.0,0.0,0.0,0.0,0.0,0.0,0.0,0.0,0.0,0.0,0.0,0.0,0.0,0.0,0.0,0.0,0.0,0.0,0.0,0.0,0.0,0.0,0.0,0.0,0.0,0.0,0.0,0.0,0.0,0.0,0.0,0.0,0.0,0.0,0.0,0.0,0.0,0.0,0.0,0.0,0.0,0.0,0.0,0.0,0.0,0.0,0.0,0.0,0.0,0.0,0.0,0.0,0.0,0.0,0.0,0.0,0.0,0.0,0.0,0.0,0.0,0.0,0.0,0.0,0.0,0.0,0.0,0.0,0.0,0.0,0.0,0.0,0.0,0.0,0.0,0.0,0.0,0.0,0.0,0.0,0.0,0.0,0.0,0.0,0.0,0.0,0.0,0.0,0.0,0.0,0.0,0.0,0.0,0.0,0.0,0.0,0.0,0.0,0.0,0.0,0.0,0.0,0.0,0.0,0.0,0.0,0.0,0.0,0.0,0.0,0.0,0.0,0.0,0.0,0.0,0.0,0.0,0.0,0.0,0.0,0.0,0.0,0.0,0.0,0.0,0.0,0.0,0.0,0.0,0.0,0.0,0.0,0.0,0.0,0.0,0.0,0.0,0.0,0.0,0.0,0.0,0.0,0.0,0.0,0.0,0.0,0.0,0.0,0.0,0.0,0.0,0.0,0.0,0.0,0.0,0.0,0.0,0.0,0.0,0.0,0.0,0.0,0.0,0.0,0.0,0.0,0.0,0.0,0.0,0.0,0.0,0.0,0.0,0.0,0.0,0.0,0.0,0.0,0.0,0.0,0.0,0.0,0.0,0.0,0.0,0.0,0.0,0.0,0.0,0.0,0.0,0.0,0.0,0.0,0.0,0.0,0.0,0.0,0.0,0.0,0.0,0.0,0.0,0.0,0.0,0.0,0.0,0.0,0.0,0.0,0.0,0.0,0.0,0.0,0.0,0.0,0.0,0.0,0.0,0.0,0.0,0.0,0.0,0.0,0.0,0.0,0.0,0.0,0.0,0.0,0.0,0.0,0.0,0.0,0.0,0.0,0.0,0.0,0.0,0.0,0.0,0.0,0.0,0.0,0.0,0.0,0.0,0.0,0.0,0.0,0.0,0.0,0.0,0.0,0.0,0.0,0.0,0.0,0.0,0.0,0.0,0.0,0.0,0.0,0.0,0.0,0.0,0.0,0.0,0.0,0.0,0.0,0.0,0.0,0.0,0.0,0.0,0.0,0.0,0.0,0.0,0.0,0.0,0.0,0.0,0.0,0.0,0.0,0.0,0.0,0.0,0.0,0.0,0.0,0.0,0.0,0.0,0.0,0.0,0.0,0.0,0.0,0.0,0.0,0.0,0.0,0.0,0.0,0.0,0.0,0.0,0.0,0.0,0.0,0.0,0.0,0.0,0.0,0.0,0.0,0.0,0.0,0.0,0.0,0.0,0.0,0.0,0.0,0.0,0.0,0.0,0.0,0.0,0.0,0.0,0.0,0.0,0.0,0.0,0.0,0.0,0.0,0.0,0.0,0.0,0.0,0.0,0.0,0.0,0.0,0.0,0.0,0.0,0.0,0.0,0.0,0.0,0.0,0.0,0.0,0.0,0.0,0.0,0.0,0.0,0.0,0.0,0.0,0.0,0.0,0.0,0.0,0.0,0.0,0.0,0.0,0.0,0.0,0.0,0.0,0.0,0.0,0.0,0.0,0.0,0.0,0.0,0.0,0.0,0.0,0.0,0.0,0.0,0.0,0.0,0.0,0.0,0.0,0.0,0.0,0.0,0.0,0.0,0.0,0.0,0.0,0.0,0.0,0.0,0.0,0.0,0.0,0.0,0.0,0.0,0.0,0.0,0.0,0.0,0.0,0.0,0.0,0.0,0.0,0.0,0.0,0.0,0.0,0.0,0.0,0.0,0.0,0.0,0.0,0.0,0.0,0.0,0.0,0.0,0.0,0.0,0.0,0.0,0.0,0.0,0.0,0.0,0.0,0.0,0.0,0.0,0.0,0.0,0.0,0.0,0.0,0.0,0.0,0.0,0.0,0.0,0.0,0.0,0.0,0.0,0.0,0.0,0.0,0.0,0.0,0.0,0.0,0.0,0.0,0.0,0.0,0.0,0.0,0.0,0.0,0.0,0.0,0.0,0.0,0.0,0.0,0.0,0.0,0.0,0.0,0.0,0.0,0.0,0.0,0.0,0.0,0.0,0.0,0.0,0.0,1.8735,0.0,0.0,0.0,0.0,0.0,0.0,0.0,0.0,0.0,0.0,0.0,0.0,0.0,0.0,0.0,0.0,0.0,0.0,0.0,0.0,0.0,0.0,0.0,0.0,0.0,0.0,0.0,0.0,0.0,0.0,0.0,0.0,0.0,0.0,0.0,0.0,0.0,0.0,0.0,0.0,0.0,0.0,0.0,0.0,0.0,0.0,0.0,0.0,0.0,0.0,0.0,0.0,0.0,0.0,0.0,0.0,0.0,0.0,0.0,0.0,0.0,0.0,0.0,0.0,0.0,0.0,0.0,0.0,0.0,0.0,0.0,0.0,0.0,0.0,0.0,0.0,0.0,0.0,0.0,0.0,0.0,0.0,0.0,0.0,0.0,0.0,0.0,0.0,0.0,0.0,0.0,0.0,0.0,0.0,0.0,0.0,0.0,0.0,0.0,0.0,0.0,0.0,0.0,0.0,0.0,0.0,0.0,0.0,0.0,0.0,0.0,0.0,0.0,0.0,0.0,0.0,1.8673,0.0,0.0,0.0,0.0,0.0,0.0,0.0,0.0,0.0,0.0,0.0,0.0,0.0,0.0,0.0,0.0,0.0,0.0,0.0,0.0,0.0,0.0,0.0,0.0,0.0,0.0,0.0,0.0,0.0,0.0,0.0,0.0,0.0,0.0,0.0,0.0,0.0,0.0,0.0,0.0,0.0,0.0,0.0,0.0,0.0,0.0,0.0,0.0,0.0,0.0,0.0,0.0,0.0,0.0,0.0,0.0,0.0,0.0,0.0,0.0,0.0,0.0,0.0,0.0,0.0,0.0,0.0,0.0,0.0,0.0,0.0,0.0,0.0,0.0,0.0,0.0,0.0,0.0,0.0,0.0,0.0,0.0,0.0,0.0,0.0,0.0,0.0,0.0,0.0,0.0,0.0,0.0,0.0,0.0,0.0,0.0,0.0,0.0,0.0,0.0,0.0,0.0,0.0,0.0,0.0,0.0,0.0,0.0,2.2293,2.2205,2.1847,2.2623,2.2001,2.0244,1.9303,1.8013,1.6742,1.8387,0.0,0.0,0.0,0.0,0.0,0.0,0.0,0.0,0.0,0.0,0.0,0.0,0.0,0.0,0.0,0.0,0.0,0.0,0.0,0.0,0.0,0.0,0.0,0.0,0.0,0.0,0.0,0.0,0.0,0.0,0.0,0.0,0.0,0.0,0.0,0.0,0.0,0.0,0.0,0.0,0.0,0.0,0.0,0.0,0.0,0.0,0.0,0.0,0.0,0.0,0.0,0.0,0.0,0.0,0.0,0.0,0.0,0.0,0.0,0.0,0.0,0.0,0.0,0.0,0.0,0.0,0.0,0.0,0.0,0.0,0.0,0.0,0.0,0.0,0.0,0.0,0.0,0.0,0.0,0.0,0.0,0.0,0.0,0.0,0.0,0.0,1.8883,1.8096,0.0,0.0,0.0,0.0,0.0,0.0,0.0,0.0,0.0,0.0,0.0,0.0,0.0,2.1943,2.2432,2.3174,2.3261,2.2709,2.3869,2.339,2.1478,2.1955,2.1439,2.0196,2.0064,0.0,1.8729,1.9112,0.0,0.0,0.0,0.0,0.0,0.0,0.0,0.0,0.0,0.0,0.0,0.0,0.0,0.0,0.0,0.0,0.0,0.0,0.0,0.0,0.0,0.0,0.0,0.0,0.0,0.0,0.0,0.0,0.0,0.0,0.0,0.0,0.0,0.0,0.0,0.0,0.0,0.0,0.0,0.0,0.0,0.0,0.0,0.0,0.0,0.0,0.0,0.0,0.0,0.0,0.0,0.0,0.0,0.0,0.0,0.0,0.0,0.0,0.0,0.0,0.0,0.0,0.0,0.0,0.0,0.0,0.0,0.0,0.0,0.0,0.0,0.0,0.0,0.0,0.0,0.0,0.0,0.0,0.0,0.0,0.0,0.0,0.0,0.0,0.0,1.9128,1.9223,1.8132,1.8866,1.9169,0.0,0.0,0.0,0.0,0.0,0.0,0.0,0.0,0.0,2.3542,2.3643,2.4134,2.5015,2.541,2.5441,2.5172,2.5768,2.5163,2.3548,2.3712,2.2818,2.112,2.1311,2.0853,1.9999,2.003,1.9303,1.8246,0.0,0.0,0.0,0.0,1.7979,1.8007,0.0,0.0,0.0,0.0,0.0,0.0,0.0,0.0,0.0,0.0,0.0,0.0,0.0,0.0,0.0,1.9962,0.0,0.0,0.0,0.0,0.0,0.0,0.0,0.0,0.0,0.0,0.0,0.0,0.0,0.0,0.0,0.0,0.0,0.0,0.0,0.0,0.0,0.0,0.0,0.0,0.0,0.0,0.0,0.0,0.0,0.0,0.0,0.0,0.0,0.0,0.0,0.0,0.0,0.0,0.0,0.0,0.0,0.0,0.0,0.0,0.0,0.0,0.0,0.0,0.0,0.0,0.0,0.0,0.0,0.0,0.0,0.0,0.0,0.0,0.0,0.0,0.0,1.9442,1.9726,1.8619,1.9385,1.9864,0.0,0.0,0.0,0.0,0.0,0.0,2.3318,2.3857,2.4505,2.5225,2.5483,2.6025,2.6976,2.6986,2.6986,2.6986,2.7129,2.6556,2.5376,2.5476,2.427,2.213,2.2364,2.1805,2.069,2.0537,1.9777,1.8772,1.9733,1.979,1.9381,1.9404,1.9396,1.9422,0.0,0.0,0.0,0.0,0.0,0.0,0.0,0.0,0.0,0.0,0.0,0.0,0.0,0.0,2.0858,2.0413,0.0,0.0,0.0,0.0,0.0,0.0,0.0,0.0,0.0,0.0,0.0,0.0,0.0,0.0,0.0,0.0,0.0,0.0,0.0,0.0,0.0,0.0,0.0,0.0,0.0,0.0,0.0,0.0,0.0,0.0,0.0,0.0,0.0,0.0,0.0,0.0,0.0,0.0,0.0,0.0,0.0,0.0,0.0,0.0,0.0,0.0,0.0,0.0,0.0,0.0,0.0,0.0,0.0,0.0,0.0,0.0,0.0,0.0,0.0,0.0,0.0,0.0,0.0,1.9873,2.0576,0.0,0.0,0.0,0.0,2.2332,2.361,2.4684,2.5503,2.6342,2.7031,2.7516,2.7119,2.6943,2.6986,2.6986,2.6986,2.7021,2.7457,2.7041,2.5886,2.6262,2.517,2.2927,2.2971,2.2104,2.067,2.036,2.0345,2.0499,2.002,1.9962,2.0033,1.9148,1.8835,1.8842,0.0,0.0,0.0,0.0,0.0,0.0,0.0,0.0,0.0,0.0,0.0,0.0,0.0,2.142,2.1692,0.0,0.0,0.0,0.0,0.0,0.0,0.0,0.0,0.0,0.0,0.0,0.0,0.0,0.0,0.0,0.0,0.0,0.0,0.0,0.0,0.0,0.0,0.0,0.0,0.0,0.0,0.0,0.0,0.0,0.0,0.0,0.0,0.0,0.0,0.0,0.0,0.0,0.0,0.0,0.0,0.0,0.0,0.0,0.0,0.0,0.0,0.0,0.0,0.0,0.0,0.0,0.0,0.0,0.0,0.0,0.0,0.0,0.0,0.0,0.0,0.0,0.0,0.0,0.0,2.0631,2.1805,0.0,2.2676,2.3164,2.3919,2.4932,2.6191,2.6924,2.6973,2.7291,2.7536,2.7682,2.7536,2.7568,2.7832,2.7842,2.7842,2.7842,2.8024,2.7462,2.628,2.617,2.5235,2.3656,2.2668,2.1908,2.134,2.0352,2.0003,2.0133,2.0077,2.0011,1.9916,1.9769,1.9691,1.9691,0.0,0.0,0.0,0.0,0.0,0.0,0.0,0.0,0.0,0.0,0.0,2.1823,2.2317,2.2528,0.0,0.0,0.0,0.0,0.0,0.0,0.0,0.0,0.0,0.0,0.0,0.0,0.0,0.0,0.0,0.0,0.0,0.0,0.0,0.0,0.0,0.0,0.0,0.0,0.0,0.0,0.0,0.0,2.2796,0.0,0.0,0.0,0.0,0.0,0.0,0.0,0.0,0.0,0.0,0.0,0.0,0.0,0.0,0.0,0.0,0.0,0.0,0.0,0.0,0.0,0.0,0.0,0.0,0.0,0.0,0.0,0.0,0.0,0.0,0.0,0.0,0.0,0.0,0.0,2.2858,2.241,2.3429,2.4258,2.4533,2.5008,2.5723,2.6763,2.7633,2.8044,2.7907,2.7907,2.7907,2.7907,2.7907,2.8044,2.8291,2.8291,2.8291,2.8291,2.8144,2.7471,2.6307,2.5913,2.489,2.3328,2.2317,2.1594,2.1064,2.0255,1.9884,1.9803,1.9872,1.9784,1.9649,1.9835,1.9916,1.9916,0.0,0.0,0.0,0.0,0.0,0.0,0.0,0.0,0.0,0.0,0.0,2.3427,2.4033,0.0,0.0,0.0,0.0,0.0,0.0,0.0,0.0,0.0,0.0,0.0,0.0,0.0,0.0,0.0,0.0,0.0,0.0,0.0,0.0,0.0,0.0,0.0,0.0,0.0,0.0,0.0,0.0,0.0,2.4862,0.0,0.0,0.0,0.0,0.0,0.0,0.0,0.0,0.0,0.0,0.0,0.0,0.0,0.0,0.0,0.0,0.0,0.0,0.0,0.0,0.0,0.0,0.0,0.0,0.0,0.0,0.0,0.0,0.0,0.0,0.0,0.0,0.0,2.2961,2.4076,2.4986,2.5199,2.5428,2.6045,2.729,2.6393,2.6293,2.7614,2.7712,2.7888,2.8271,2.8291,2.8291,2.8291,2.8291,2.8281,2.8271,2.8281,2.8281,2.8242,2.7878,2.7113,2.6018,2.5621,2.4193,2.2105,2.2044,2.1201,1.9879,2.0106,2.0055,1.9774,1.9444,1.932,1.9312,1.9305,1.9305,1.9305,0.0,0.0,0.0,0.0,0.0,0.0,0.0,0.0,0.0,0.0,2.2698,2.3427,2.4033,0.0,0.0,0.0,0.0,0.0,0.0,0.0,0.0,0.0,0.0,0.0,0.0,0.0,0.0,0.0,0.0,0.0,0.0,0.0,0.0,0.0,0.0,0.0,0.0,0.0,0.0,0.0,0.0,0.0,2.4732,0.0,0.0,0.0,0.0,0.0,0.0,0.0,0.0,0.0,0.0,0.0,0.0,0.0,0.0,0.0,0.0,0.0,0.0,0.0,0.0,0.0,0.0,0.0,0.0,0.0,0.0,0.0,0.0,0.0,0.0,0.0,0.0,2.4415,2.3732,2.4621,2.5409,2.5614,2.6379,2.7056,2.7567,2.7327,2.7412,2.8093,2.8151,2.8174,2.8281,2.8291,2.8291,2.8291,2.8291,2.8171,2.7868,2.8135,2.7978,2.7373,2.7594,2.736,2.6721,2.6308,2.5461,2.4272,2.3192,2.216,2.119,2.0493,2.0159,2.0049,1.9781,1.9657,1.9627,1.9393,1.9305,1.9305,0.0,0.0,0.0,0.0,0.0,0.0,0.0,0.0,0.0,0.0,2.3133,2.3789,2.4329,0.0,0.0,0.0,0.0,0.0,0.0,0.0,0.0,0.0,0.0,0.0,0.0,0.0,0.0,0.0,0.0,0.0,0.0,0.0,0.0,0.0,0.0,0.0,0.0,0.0,0.0,0.0,0.0,0.0,2.5547,2.6361,2.6018,2.5235,2.6164,2.6077,2.5502,2.551,0.0,0.0,0.0,0.0,0.0,0.0,0.0,0.0,0.0,0.0,0.0,0.0,0.0,0.0,0.0,0.0,0.0,0.0,0.0,0.0,0.0,0.0,0.0,0.0,2.5963,2.6214,2.5906,2.6408,2.6924,2.7229,2.7875,2.8364,2.8468,2.8367,2.8397,2.8618,2.8531,2.8461,2.8461,2.8344,2.8213,2.8064,2.8054,2.7822,2.7402,2.7637,2.751,2.6986,2.7115,2.6788,2.6069,2.5831,2.5205,2.425,2.3105,2.2311,2.1807,2.0808,2.0415,0.0,0.0,0.0,0.0,0.0,1.962,1.9503,0.0,0.0,0.0,0.0,0.0,0.0,0.0,0.0,0.0,0.0,0.0,2.4272,2.4713,0.0,0.0,0.0,0.0,0.0,0.0,0.0,0.0,0.0,0.0,0.0,0.0,0.0,0.0,0.0,0.0,0.0,0.0,0.0,0.0,0.0,0.0,0.0,0.0,0.0,0.0,0.0,0.0,0.0,2.6823,2.674,2.673,2.6741,2.6841,2.5952,2.4934,2.6247,0.0,0.0,0.0,0.0,0.0,0.0,0.0,0.0,0.0,0.0,0.0,0.0,0.0,0.0,0.0,0.0,0.0,0.0,0.0,0.0,0.0,0.0,0.0,0.0,2.7765,2.8076,2.8618,2.869,2.882,2.9208,2.9471,2.958,2.9554,2.9237,2.9052,2.9052,2.8807,2.8648,2.8648,0.0,0.0,0.0,0.0,2.7461,2.6996,2.6986,2.6947,2.684,2.6543,2.5902,2.4976,2.4976,2.441,2.3367,2.2576,2.2186,2.2042,2.114,2.0751,2.0722,2.0393,2.0239,2.021,2.021,2.0062,1.984,0.0,0.0,0.0,0.0,0.0,0.0,0.0,0.0,0.0,2.2845,2.3542,2.4225,2.4529,0.0,0.0,0.0,0.0,0.0,0.0,0.0,0.0,0.0,0.0,0.0,0.0,0.0,0.0,0.0,0.0,0.0,0.0,0.0,0.0,0.0,0.0,0.0,0.0,0.0,0.0,0.0,0.0,0.0,2.7113,2.7854,2.8108,2.821,2.8898,2.8968,2.861,2.7993,2.7499,2.7029,2.6467,0.0,0.0,0.0,0.0,0.0,0.0,0.0,0.0,0.0,0.0,0.0,0.0,0.0,0.0,0.0,0.0,0.0,0.0,0.0,0.0,2.68,2.7419,2.8189,2.9052,2.9166,2.9131,2.8978,2.9351,2.9501,2.9211,2.893,2.8781,2.8781,2.8541,2.8371,2.8371,2.8318,2.8252,2.82,2.7868,2.7461,2.6996,2.6986,2.6645,2.5962,0.0,0.0,2.6102,2.6102,2.5824,2.5296,2.4176,2.3349,2.272,2.1583,2.1087,2.1086,2.0729,2.0437,2.021,2.021,2.0166,2.0079,0.0,0.0,0.0,0.0,0.0,0.0,0.0,0.0,0.0,0.0,2.3687,2.4249,2.4744,0.0,0.0,0.0,0.0,0.0,0.0,0.0,0.0,0.0,0.0,0.0,0.0,0.0,0.0,0.0,0.0,0.0,0.0,0.0,0.0,0.0,0.0,0.0,0.0,0.0,0.0,0.0,0.0,0.0,2.7911,2.8811,2.8882,2.8601,2.9488,2.9514,2.9123,2.9006,2.8661,2.8285,2.8187,2.7939,2.7582,0.0,0.0,0.0,0.0,0.0,0.0,0.0,0.0,0.0,0.0,0.0,0.0,0.0,0.0,2.6888,0.0,0.0,2.7001,2.752,2.8162,2.8856,2.9549,2.9653,2.9601,2.9482,2.9445,2.9413,2.9349,2.903,2.8751,2.861,2.8338,2.8108,2.7855,2.7957,2.7881,2.7656,2.7692,2.7379,2.6709,2.6699,2.6352,2.5693,2.5932,2.6172,2.6421,2.6602,2.6734,2.6727,2.5748,2.5093,2.4614,2.2841,2.1738,2.1196,2.1035,2.0839,2.0692,2.0692,2.059,2.0429,0.0,0.0,0.0,0.0,0.0,0.0,0.0,0.0,0.0,0.0,0.0,2.4232,2.4838,0.0,0.0,0.0,0.0,0.0,0.0,0.0,0.0,0.0,0.0,0.0,0.0,0.0,0.0,0.0,0.0,0.0,0.0,0.0,0.0,0.0,0.0,0.0,0.0,0.0,0.0,0.0,0.0,0.0,2.8601,2.9475,2.9268,2.8601,2.9488,2.9229,2.8621,2.9495,2.9326,2.8895,2.969,2.9609,2.9107,2.8442,2.7946,0.0,0.0,0.0,0.0,0.0,0.0,0.0,0.0,0.0,2.8578,2.7428,2.7026,2.6982,2.7466,2.7329,2.7478,2.856,2.9063,2.9466,2.9932,2.9994,2.9963,2.987,2.9528,2.9368,2.9521,2.9141,2.8808,2.8591,2.8351,2.802,2.7548,2.7695,2.7653,2.725,2.7545,2.7321,2.6514,2.6426,2.6211,2.5835,2.5835,2.6108,2.665,2.6982,2.7383,2.7776,2.6885,2.6245,2.5662,2.3779,2.2292,2.1211,2.1211,2.1211,2.1211,2.1211,2.1042,2.078,0.0,0.0,0.0,0.0,0.0,0.0,0.0,0.0,0.0,0.0,0.0,0.0,0.0,0.0,0.0,0.0,0.0,0.0,0.0,0.0,0.0,0.0,0.0,0.0,0.0,0.0,0.0,0.0,0.0,0.0,0.0,0.0,0.0,0.0,0.0,0.0,0.0,0.0,0.0,0.0,0.0,0.0,2.8601,2.9475,2.9268,2.8601,2.9488,2.9229,2.8621,2.9495,2.9753,2.975,3.033,3.0462,3.0199,2.9132,0.0,2.8392,0.0,0.0,0.0,2.7025,2.8246,2.9171,0.0,0.0,3.054,2.8705,2.9729,3.057,2.9365,2.9117,2.9126,2.9225,2.927,2.9466,2.9932,2.9994,2.9849,2.9435,2.9332,2.9296,2.9322,2.907,2.8895,2.8859,2.8729,2.8433,2.7972,2.812,2.8203,2.8154,2.7858,2.7457,2.6943,2.6572,2.6367,2.6318,2.6318,2.6738,2.7555,2.7594,2.7848,2.8169,2.6997,2.5332,2.3368,2.3115,2.2292,2.1211,2.1211,2.1211,2.1211,2.1211,2.1189,2.1115,0.0,0.0,0.0,0.0,0.0,0.0,0.0,0.0,0.0,0.0,0.0,0.0,0.0,0.0,0.0,0.0,0.0,0.0,0.0,0.0,0.0,0.0,0.0,0.0,0.0,0.0,0.0,0.0,0.0,0.0,0.0,0.0,0.0,0.0,0.0,0.0,0.0,0.0,0.0,0.0,0.0,0.0,2.93,2.9663,2.9268,2.8565,2.9083,2.9048,0.0,0.0,2.9515,2.9892,3.0425,3.06,3.0374,2.9233,2.8768,0.0,2.7781,0.0,0.0,0.0,3.0092,3.0541,2.9799,3.0617,3.1124,2.977,3.0184,3.042,2.922,2.9441,2.9623,0.0,2.9352,2.9777,2.9973,2.9994,2.9725,2.899,2.8897,2.8832,2.8655,2.8411,2.8208,2.8045,2.7839,2.7636,2.7424,2.7774,2.7956,2.7956,2.8024,2.7822,2.7402,2.7242,2.7027,2.6758,2.6758,2.707,2.7692,2.7692,2.7917,2.8264,2.7772,2.6581,2.5029,2.5029,2.3919,2.2263,2.2263,2.1816,2.1211,2.1211,2.1211,2.1189,0.0,0.0,0.0,0.0,0.0,0.0,0.0,0.0,0.0,0.0,0.0,0.0,0.0,0.0,0.0,0.0,0.0,0.0,0.0,0.0,0.0,0.0,0.0,0.0,0.0,0.0,0.0,0.0,0.0,0.0,0.0,0.0,0.0,0.0,0.0,0.0,0.0,0.0,0.0,0.0,0.0,0.0,2.9792,2.9792,2.9298,2.8641,2.8836,2.8756,0.0,0.0,2.8969,2.9428,2.996,3.0163,3.0013,2.9045,2.8639,2.8468,2.8426,0.0,0.0,3.0701,3.1427,3.1759,3.1312,3.1625,3.1735,3.0778,3.0599,3.0454,3.0008,3.002,2.9945,2.9507,2.9755,2.9994,2.9994,2.9994,2.9653,2.8696,2.8835,2.877,2.8174,2.8005,2.789,2.7832,2.7604,2.7418,2.7274,2.765,2.7868,2.7868,2.8161,2.8122,2.7692,2.7692,2.7536,2.7197,2.7197,2.7422,2.7868,2.7868,2.8024,2.8291,2.8291,2.7628,2.65,2.65,2.5305,2.3472,2.3472,2.2728,2.171,2.171,2.1489,2.1211,0.0,0.0,0.0,0.0,0.0,0.0,0.0,0.0,0.0,0.0,0.0,0.0,0.0,0.0,0.0,0.0,0.0,0.0,0.0,0.0,0.0,0.0,0.0,0.0,0.0,0.0,0.0,0.0,0.0,0.0,0.0,0.0,0.0,0.0,0.0,0.0,0.0,0.0,0.0,0.0,0.0,0.0,2.9792,2.9792,2.9421,2.8894,2.89,0.0,0.0,0.0,2.8147,2.826,2.8781,2.9088,0.0,2.8567,2.8553,0.0,0.0,0.0,3.1412,3.033,3.1549,3.2553,3.0677,3.1713,3.2776,3.1757,3.1558,3.1836,3.2797,3.14,3.0409,3.1364,3.0671,2.9994,2.9994,2.9994,2.9653,2.8696,2.9404,2.9425,0.0,2.8096,2.837,2.8808,2.8723,2.8457,2.7995,2.8179,2.8271,2.8271,2.8281,2.8122,2.7692,2.7692,2.7682,2.7673,2.7673,2.7888,2.8271,2.8271,2.8281,2.8291,2.8291,2.7628,2.65,2.65,2.5763,2.4644,2.4644,2.3958,2.2954,2.2954,2.2207,2.1211,0.0,0.0,0.0,0.0,0.0,0.0,0.0,0.0,0.0,0.0,0.0,0.0,0.0,0.0,0.0,0.0,0.0,0.0,0.0,0.0,0.0,0.0,0.0,0.0,0.0,0.0,0.0,0.0,0.0,0.0,0.0,0.0,0.0,0.0,0.0,0.0,0.0,0.0,0.0,0.0,0.0,0.0,3.0256,2.9484,2.9082,2.8819,0.0,0.0,0.0,0.0,0.0,0.0,2.8936,0.0,0.0,2.8813,0.0,0.0,0.0,0.0,3.1615,3.1978,3.2578,3.2939,3.2273,3.2624,3.3004,3.2667,3.1987,3.1368,3.11,3.0454,2.9858,2.9535,2.9785,2.9994,2.9994,2.9735,2.9425,2.9104,2.9073,0.0,0.0,0.0,0.0,2.8633,2.8437,2.8272,2.8199,2.8266,2.8291,2.8291,2.8291,2.8249,2.8112,2.8112,2.7966,2.7692,2.7373,2.7305,2.7461,2.777,2.7715,2.7461,2.778,2.7495,2.6791,2.6289,2.5855,2.5415,2.4604,2.3778,2.295,2.2656,2.1987,2.1211,0.0,0.0,0.0,0.0,0.0,0.0,0.0,0.0,0.0,0.0,0.0,0.0,0.0,0.0,0.0,0.0,0.0,0.0,0.0,0.0,0.0,0.0,0.0,0.0,0.0,0.0,0.0,0.0,0.0,0.0,0.0,0.0,0.0,0.0,0.0,0.0,0.0,0.0,0.0,0.0,0.0,0.0,2.9848,2.8549,2.7921,0.0,0.0,0.0,0.0,0.0,0.0,0.0,0.0,0.0,0.0,0.0,0.0,0.0,0.0,3.2105,3.236,3.2957,3.3102,3.3124,3.3197,3.3154,3.3124,3.3197,3.1976,3.0881,3.0807,2.9629,2.8768,2.9147,2.9253,2.9373,2.9704,2.9497,2.9239,2.9073,2.8938,2.8929,0.0,0.0,0.0,2.8745,2.8519,2.8367,2.8308,2.8437,2.8447,2.8301,2.8291,2.8291,2.8291,2.8291,2.8112,2.7692,2.7383,2.7246,2.7256,2.7565,2.7624,2.7471,2.7441,2.7208,2.6784,2.615,2.5665,2.5246,2.4476,2.354,2.2597,2.2292,2.1627,2.0896,0.0,0.0,0.0,0.0,0.0,0.0,0.0,0.0,0.0,0.0,0.0,0.0,0.0,0.0,0.0,0.0,0.0,0.0,0.0,0.0,0.0,0.0,0.0,0.0,0.0,0.0,0.0,0.0,0.0,0.0,0.0,0.0,0.0,0.0,0.0,0.0,0.0,0.0,0.0,0.0,0.0,0.0,2.8643,2.7047,0.0,0.0,0.0,0.0,0.0,0.0,0.0,0.0,0.0,0.0,0.0,0.0,0.0,3.2579,3.2212,3.2885,3.3598,3.3219,3.3124,3.3176,3.3377,3.3261,3.3176,3.3377,3.1577,3.0439,0.0,0.0,2.7404,3.0204,2.9135,2.8272,2.9145,2.927,2.9114,0.0,0.0,0.0,0.0,0.0,0.0,2.9132,0.0,2.8711,2.831,2.8672,2.8701,2.8301,2.8291,2.8291,2.8291,2.8271,2.8073,2.7653,2.7653,2.7653,2.7653,2.7682,2.7871,2.8094,2.7279,2.6724,2.63,2.5872,2.5148,2.4278,2.4207,2.3303,2.2054,2.2014,2.1264,2.0349,0.0,0.0,0.0,0.0,0.0,0.0,0.0,0.0,0.0,0.0,0.0,0.0,0.0,0.0,0.0,0.0,0.0,0.0,0.0,0.0,0.0,0.0,0.0,0.0,0.0,0.0,0.0,0.0,0.0,0.0,0.0,0.0,0.0,0.0,0.0,0.0,0.0,0.0,0.0,0.0,0.0,0.0,2.7557,0.0,0.0,0.0,0.0,0.0,0.0,0.0,0.0,0.0,0.0,0.0,2.9914,0.0,0.0,3.2388,3.3313,3.352,3.3492,3.3535,3.3441,3.3377,3.3577,3.3471,3.3377,3.3577,3.1614,3.0388,0.0,0.0,0.0,2.9909,2.948,0.0,2.8804,2.8794,0.0,0.0,0.0,2.942,2.9683,2.9414,0.0,0.0,2.887,2.8623,2.8327,2.8398,2.8398,2.8301,2.8291,2.8291,2.8291,2.8015,2.7633,2.7178,2.7178,2.7178,2.7197,2.7545,2.7076,2.6012,2.6134,2.5456,2.4198,2.325,2.3367,2.4037,2.2878,2.2561,2.2676,2.2062,2.1481,2.0919,0.0,0.0,0.0,0.0,0.0,0.0,0.0,0.0,0.0,0.0,0.0,0.0,0.0,0.0,0.0,0.0,0.0,0.0,0.0,0.0,0.0,0.0,0.0,0.0,0.0,0.0,0.0,0.0,0.0,0.0,0.0,0.0,0.0,0.0,0.0,0.0,0.0,0.0,0.0,0.0,0.0,0.0,0.0,0.0,0.0,0.0,0.0,0.0,0.0,0.0,0.0,2.9612,2.8742,2.9475,3.0617,3.0603,0.0,3.2794,3.3822,3.3823,3.3556,3.367,3.3556,3.3356,3.3173,3.2954,3.271,3.2402,3.07,0.0,0.0,0.0,0.0,0.0,0.0,0.0,2.8286,2.8458,2.8711,0.0,2.9177,0.0,2.9785,2.9406,2.9052,0.0,2.8842,2.8657,2.8327,2.8467,2.8476,2.8301,2.8291,2.8291,2.8291,2.7907,2.7565,2.7305,2.7305,2.7305,2.7314,2.7585,2.7277,2.6543,0.0,2.5491,2.3958,2.3152,2.2722,2.2508,2.167,2.1499,2.1716,2.127,2.0946,2.0729,0.0,0.0,0.0,0.0,0.0,0.0,0.0,0.0,0.0,0.0,0.0,0.0,0.0,0.0,0.0,0.0,0.0,0.0,0.0,0.0,0.0,0.0,0.0,0.0,0.0,0.0,0.0,0.0,0.0,0.0,0.0,0.0,0.0,0.0,0.0,0.0,0.0,0.0,0.0,0.0,0.0,0.0,0.0,0.0,0.0,0.0,0.0,0.0,0.0,0.0,2.8819,3.0119,2.9369,3.0403,3.1682,3.0586,3.1678,3.3359,3.3892,3.3885,3.3755,3.3789,3.3641,3.3317,3.2612,3.224,3.1786,3.0854,0.0,0.0,3.1208,0.0,2.7304,3.0174,0.0,2.7254,2.7738,2.8262,2.8593,2.8593,2.9073,2.9472,2.9654,2.9317,2.8999,2.8781,2.8795,2.8672,2.831,2.8643,2.8672,2.8301,2.8291,2.8262,2.8203,2.7936,2.7751,2.7692,2.7751,2.778,2.778,2.778,2.7896,2.8028,2.7266,2.5999,2.4444,2.4052,2.2639,2.0758,2.0714,2.0546,2.0327,2.0239,2.0269,2.0327,0.0,0.0,0.0,0.0,0.0,0.0,0.0,0.0,0.0,0.0,0.0,0.0,0.0,0.0,0.0,0.0,0.0,0.0,0.0,0.0,0.0,0.0,0.0,0.0,0.0,0.0,0.0,0.0,0.0,0.0,0.0,0.0,0.0,0.0,0.0,0.0,0.0,0.0,0.0,0.0,0.0,0.0,0.0,0.0,0.0,0.0,0.0,0.0,0.0,0.0,2.8828,3.0813,2.9701,3.0041,3.0829,3.0597,3.1683,3.307,3.3562,3.3864,3.4076,3.423,3.4139,3.3736,3.286,3.248,0.0,0.0,0.0,2.9631,3.299,3.1261,0.0,3.1599,0.0,0.0,0.0,0.0,2.8593,0.0,0.0,0.0,0.0,0.0,0.0,0.0,0.0,2.8369,2.8301,2.8359,2.8369,2.8291,2.8291,2.8125,2.7809,2.8073,2.8034,2.7692,2.8044,2.821,2.821,2.821,2.7695,2.6789,2.665,0.0,2.3279,2.2925,2.2132,2.1101,2.0802,2.0824,2.0948,2.0407,2.0546,2.0962,0.0,0.0,0.0,0.0,0.0,0.0,0.0,0.0,0.0,0.0,0.0,0.0,0.0,0.0,0.0,0.0,0.0,0.0,0.0,0.0,0.0,0.0,0.0,0.0,0.0,0.0,0.0,0.0,0.0,0.0,0.0,0.0,0.0,0.0,0.0,0.0,0.0,0.0,0.0,0.0,0.0,0.0,0.0,0.0,0.0,0.0,0.0,0.0,0.0,0.0,2.7567,2.8996,2.8264,2.9176,3.0339,2.9616,3.0718,3.23,3.2958,3.3372,3.3677,3.3917,3.4035,3.3706,3.2163,0.0,0.0,0.0,0.0,2.8847,3.1519,0.0,0.0,0.0,0.0,0.0,0.0,0.0,0.0,0.0,0.0,0.0,0.0,0.0,0.0,0.0,0.0,2.8291,2.8291,2.8291,2.8291,2.8291,2.8291,2.822,2.8024,2.8193,2.8193,2.8024,2.822,2.8291,2.8291,2.8291,2.7987,2.7439,2.7439,2.6436,2.4763,2.3969,2.3039,2.2049,2.1283,2.1072,2.1174,2.0831,2.0912,2.1138,0.0,0.0,0.0,0.0,0.0,0.0,0.0,0.0,0.0,0.0,0.0,0.0,0.0,0.0,0.0,0.0,0.0,0.0,0.0,0.0,0.0,0.0,0.0,0.0,0.0,0.0,0.0,0.0,0.0,0.0,0.0,0.0,0.0,0.0,0.0,0.0,0.0,0.0,0.0,0.0,0.0,0.0,0.0,0.0,0.0,0.0,0.0,0.0,0.0,0.0,2.6239,2.6855,2.6559,2.7945,2.9494,2.8694,2.972,3.1332,3.2261,3.2794,3.3135,3.3351,3.3699,3.3422,3.1288,3.0914,0.0,0.0,0.0,2.8025,2.9774,0.0,0.0,0.0,0.0,0.0,0.0,0.0,0.0,0.0,0.0,0.0,0.0,0.0,0.0,0.0,0.0,0.0,2.8291,2.8291,2.8291,2.8291,2.8291,2.8291,2.8291,2.8291,2.8291,2.8291,2.8291,2.8291,2.8291,2.8291,2.8291,2.8291,2.8291,2.7457,2.6045,2.5094,2.3874,2.251,2.1567,2.1211,2.1203,2.113,2.1152,2.1203,0.0,0.0,0.0,0.0,0.0,0.0,0.0,0.0,0.0,0.0,0.0,0.0,0.0,0.0,0.0,0.0,0.0,0.0,0.0,0.0,0.0,0.0,0.0,0.0,0.0,0.0,0.0,0.0,0.0,0.0,0.0,0.0,0.0,0.0,0.0,0.0,0.0,0.0,0.0,0.0,0.0,0.0,0.0,0.0,0.0,0.0,0.0,0.0,0.0,0.0,0.0,2.5868,2.5531,2.6254,2.7451,2.8605,0.0,0.0,3.1537,3.2313,3.2757,3.2777,3.3221,3.3044,3.0701,0.0,0.0,0.0,2.749,2.8025,2.9774,2.9779,0.0,0.0,0.0,0.0,0.0,0.0,0.0,0.0,0.0,0.0,0.0,0.0,0.0,0.0,0.0,0.0,2.8291,2.8291,2.8291,2.8291,2.8291,2.8291,2.8291,2.8291,2.8291,2.8291,2.8291,2.8291,2.8291,2.8291,2.8291,2.8291,2.8291,2.6979,0.0,2.4754,2.3379,2.1346,2.1239,2.1211,2.1174,2.0846,2.0926,2.1167,0.0,0.0,0.0,0.0,0.0,0.0,0.0,0.0,0.0,0.0,0.0,0.0,0.0,0.0,0.0,0.0,0.0,0.0,0.0,0.0,0.0,0.0,0.0,0.0,0.0,0.0,0.0,0.0,0.0,0.0,0.0,0.0,0.0,0.0,0.0,0.0,0.0,0.0,0.0,0.0,0.0,0.0,0.0,0.0,0.0,0.0,0.0,0.0,0.0,0.0,0.0,0.0,2.4626,2.4876,0.0,0.0,2.8689,2.9772,3.0994,3.1725,3.2156,3.2156,3.262,3.245,3.0137,0.0,0.0,2.7484,2.7271,2.7712,2.8404,2.8378,2.783,0.0,0.0,0.0,0.0,0.0,0.0,0.0,0.0,0.0,0.0,0.0,0.0,0.0,0.0,2.8291,2.8291,2.8291,2.8291,2.8291,2.8291,2.8291,2.8291,2.8291,2.8291,2.8291,2.8291,2.8291,2.8291,2.8291,2.8291,2.8291,2.8291,2.7762,0.0,2.5306,2.4145,2.3163,2.1759,2.1211,2.1196,2.1064,2.1101,2.1189,0.0,0.0,0.0,0.0,0.0,0.0,0.0,0.0,0.0,0.0,0.0,0.0,0.0,0.0,0.0,0.0,0.0,0.0,0.0,0.0,0.0,0.0,0.0,0.0,0.0,0.0,0.0,0.0,0.0,0.0,0.0,0.0,0.0,0.0,0.0,0.0,0.0,0.0,0.0,0.0,0.0,0.0,0.0,0.0,0.0,0.0,0.0,0.0,0.0,0.0,0.0,0.0,0.0,0.0,0.0,0.0,2.8039,2.9091,3.06,3.1274,3.1568,3.1568,3.1738,3.1418,0.0,0.0,2.8786,2.6831,2.6883,2.7242,2.7192,2.7235,2.6786,0.0,0.0,0.0,0.0,0.0,0.0,0.0,0.0,0.0,0.0,0.0,0.0,0.0,0.0,2.8291,2.8291,2.8291,2.8291,2.8291,2.8291,2.8291,2.8291,2.8291,2.8291,2.8291,2.8291,2.8291,2.8291,2.8291,2.8291,2.8291,2.8291,2.8094,0.0,2.5562,2.4505,2.3986,2.1979,2.1211,2.1211,2.1211,2.1211,2.1211,0.0,0.0,0.0,0.0,0.0,0.0,0.0,0.0,0.0,0.0,0.0,0.0,0.0,0.0,0.0,0.0,0.0,0.0,0.0,0.0,0.0,0.0,0.0,0.0,0.0,0.0,0.0,0.0,0.0,0.0,0.0,0.0,0.0,0.0,0.0,0.0,0.0,0.0,0.0,0.0,0.0,0.0,0.0,0.0,0.0,0.0,0.0,0.0,0.0,0.0,0.0,0.0,0.0,0.0,0.0,0.0,2.7503,2.8029,3.0378,3.1005,3.1018,3.1018,3.055,2.9831,0.0,0.0,2.719,2.6057,2.6282,2.6654,2.6456,2.6893,2.6918,2.5784,0.0,0.0,0.0,0.0,0.0,0.0,0.0,0.0,0.0,0.0,0.0,0.0,0.0,0.0,2.8291,2.8291,2.8291,2.8291,2.8291,2.8291,2.8291,2.8291,2.8291,2.8291,2.8291,2.8291,2.8291,2.8291,2.8291,2.8291,2.8291,2.7628,0.0,2.5205,2.4042,2.2898,2.1681,2.1211,2.1211,2.1211,2.1211,2.1211,0.0,0.0,0.0,0.0,0.0,0.0,0.0,0.0,0.0,0.0,0.0,0.0,0.0,0.0,0.0,0.0,0.0,0.0,0.0,0.0,0.0,0.0,0.0,0.0,0.0,0.0,0.0,0.0,0.0,0.0,0.0,0.0,0.0,0.0,0.0,0.0,0.0,0.0,0.0,0.0,0.0,0.0,0.0,0.0,0.0,0.0,0.0,0.0,0.0,0.0,0.0,0.0,0.0,0.0,0.0,0.0,0.0,0.0,2.8199,2.8604,2.8604,2.8604,2.8473,2.8012,2.688,0.0,2.6621,2.5487,2.5694,2.6153,2.6362,2.6442,2.6532,2.6668,2.6459,0.0,0.0,0.0,0.0,0.0,0.0,0.0,0.0,0.0,0.0,0.0,0.0,2.8291,2.8291,2.8291,2.8291,2.8291,2.8291,2.8291,2.8291,2.8291,2.8291,2.8291,2.8291,2.8291,2.8291,2.8291,2.8291,2.8291,2.8291,2.8067,2.7574,2.5534,2.4478,2.3958,2.1979,2.1211,2.1211,2.1211,2.1211,2.1211,0.0,0.0,0.0,0.0,0.0,0.0,0.0,0.0,0.0,0.0,0.0,0.0,0.0,0.0,0.0,0.0,0.0,0.0,0.0,0.0,0.0,0.0,0.0,0.0,0.0,0.0,0.0,0.0,0.0,0.0,0.0,0.0,0.0,0.0,0.0,0.0,0.0,0.0,0.0,0.0,0.0,0.0,2.3745,0.0,0.0,0.0,0.0,0.0,0.0,0.0,0.0,0.0,0.0,0.0,0.0,0.0,0.0,0.0,0.0,2.749,2.749,2.749,2.7177,0.0,0.0,0.0,2.5526,2.4807,2.5121,2.559,2.5923,2.6048,2.627,2.6852,2.6948,0.0,0.0,0.0,0.0,0.0,0.0,0.0,0.0,0.0,0.0,0.0,2.8291,2.8291,2.8291,2.8291,2.8291,2.8291,2.8291,2.8291,2.8291,2.8291,2.8291,2.8291,2.8291,2.8291,2.8291,2.8291,2.8291,2.8291,2.8291,2.8291,0.0,2.5699,2.4699,2.4478,2.2121,2.1211,2.1211,2.1211,2.1211,2.1211,0.0,0.0,0.0,0.0,0.0,0.0,0.0,0.0,0.0,0.0,0.0,0.0,0.0,0.0,0.0,0.0,0.0,0.0,0.0,0.0,0.0,0.0,0.0,0.0,0.0,0.0,0.0,0.0,2.2604,2.2469,2.2101,0.0,0.0,0.0,0.0,0.0,0.0,0.0,0.0,0.0,0.0,0.0,0.0,0.0,0.0,0.0,0.0,0.0,0.0,0.0,0.0,0.0,0.0,0.0,0.0,0.0,0.0,0.0,0.0,0.0,0.0,0.0,0.0,0.0,0.0,0.0,0.0,0.0,2.4558,2.5003,2.5219,2.5688,2.6161,2.6517,0.0,0.0,0.0,0.0,0.0,0.0,0.0,0.0,0.0,0.0,0.0,0.0,2.8291,2.8291,2.8291,2.8291,2.8291,2.8291,2.8291,2.8291,2.8291,2.8291,2.8291,2.8291,2.8291,2.8291,2.8291,2.8291,2.8291,0.0,2.8291,2.8264,2.7987,2.5672,2.4644,2.4339,2.2093,2.1211,2.1211,2.1211,2.1211,2.1211,0.0,0.0,0.0,0.0,0.0,0.0,0.0,0.0,0.0,0.0,0.0,0.0,0.0,0.0,0.0,0.0,0.0,0.0,0.0,0.0,0.0,0.0,0.0,0.0,0.0,0.0,0.0,2.3153,2.2537,2.219,2.2101,2.2252,0.0,0.0,0.0,0.0,0.0,0.0,0.0,0.0,0.0,0.0,0.0,0.0,0.0,0.0,2.4098,2.4098,0.0,0.0,0.0,0.0,0.0,0.0,0.0,0.0,2.4098,0.0,0.0,0.0,0.0,0.0,0.0,0.0,0.0,0.0,0.0,0.0,0.0,2.4417,2.4776,2.5191,2.5879,0.0,0.0,0.0,0.0,0.0,0.0,0.0,0.0,0.0,0.0,0.0,0.0,2.8291,2.8291,2.8291,2.8291,2.8291,2.8291,2.8291,2.8291,2.8291,2.8291,2.8291,2.8291,2.8291,2.8291,2.8291,2.8291,2.8291,2.8291,2.8291,2.8291,2.7772,2.6799,2.5315,2.4181,2.3247,2.1788,2.1211,2.1211,2.1211,2.1211,2.1211,0.0,0.0,0.0,0.0,0.0,0.0,0.0,0.0,0.0,0.0,0.0,0.0,0.0,0.0,0.0,0.0,0.0,0.0,0.0,0.0,0.0,0.0,0.0,0.0,0.0,0.0,0.0,0.0,0.0,2.2613,0.0,0.0,0.0,0.0,0.0,0.0,0.0,0.0,0.0,0.0,0.0,0.0,0.0,0.0,0.0,0.0,2.4098,2.4098,0.0,2.4098,2.4098,2.4098,0.0,0.0,0.0,0.0,2.4098,2.4098,2.4098,2.4098,2.4098,2.4098,2.4098,2.4098,0.0,0.0,0.0,0.0,0.0,0.0,2.4641,0.0,0.0,0.0,0.0,0.0,0.0,0.0,0.0,0.0,0.0,0.0,0.0,0.0,0.0,2.8291,2.8291,2.8291,2.8291,2.8291,2.8291,2.8291,2.8291,2.8291,2.8291,2.8291,2.8291,2.8291,2.8291,2.8291,2.8291,2.8291,2.8291,2.8291,2.8291,2.7933,2.7187,2.5425,2.4339,2.3603,2.1873,2.1211,2.1211,2.1211,2.1211,2.1211,0.0,0.0,0.0,0.0,0.0,0.0,0.0,0.0,0.0,0.0,0.0,0.0,0.0,0.0,0.0,0.0,0.0,0.0,0.0,0.0,0.0,0.0,0.0,0.0,0.0,0.0,0.0,0.0,0.0,0.0,0.0,0.0,0.0,0.0,0.0,0.0,0.0,0.0,0.0,0.0,0.0,0.0,0.0,0.0,0.0,0.0,0.0,0.0,0.0,2.4098,2.4098,2.4098,2.4098,0.0,0.0,0.0,0.0,0.0,2.4098,2.4098,2.4098,2.4098,2.4098,2.4098,0.0,0.0,0.0,0.0,0.0,0.0,0.0,0.0,0.0,0.0,0.0,0.0,0.0,0.0,0.0,0.0,0.0,0.0,0.0,0.0,2.8344,2.8291,2.8291,2.8291,2.8291,2.8291,2.8291,2.8291,2.8291,2.8291,2.8291,2.8291,2.8291,2.8291,2.8291,2.8291,2.8291,2.8291,2.8291,2.8291,0.0,0.0,2.7853,2.5617,2.4616,2.4228,2.2065,2.1211,2.1211,2.1211,2.1211,2.1211,0.0,0.0,0.0,0.0,0.0,0.0,0.0,0.0,0.0,0.0,0.0,0.0,0.0,0.0,0.0,0.0,0.0,0.0,0.0,0.0,0.0,0.0,0.0,0.0,0.0,0.0,0.0,0.0,0.0,0.0,2.3403,2.3183,2.3183,0.0,0.0,0.0,0.0,0.0,0.0,0.0,0.0,0.0,0.0,0.0,0.0,0.0,0.0,0.0,0.0,2.4098,2.4098,2.4098,2.4098,0.0,0.0,0.0,0.0,0.0,2.4098,2.4098,2.4098,2.4098,2.4098,2.4098,0.0,0.0,0.0,0.0,0.0,0.0,0.0,0.0,0.0,0.0,0.0,0.0,0.0,0.0,0.0,0.0,0.0,0.0,0.0,2.8824,2.8541,2.8318,2.8291,2.8291,2.8291,2.8291,2.8291,2.8291,2.8291,2.8291,2.8291,2.8291,2.8291,2.8291,2.8291,2.8291,2.8291,2.8291,2.8291,2.8291,0.0,2.7709,2.6663,2.5287,2.4125,2.3115,2.1738,2.1211,2.1211,2.1211,2.1211,2.1211,0.0,0.0,0.0,0.0,0.0,0.0,0.0,0.0,0.0,0.0,0.0,0.0,0.0,0.0,0.0,0.0,0.0,0.0,0.0,0.0,0.0,0.0,0.0,0.0,0.0,0.0,0.0,0.0,0.0,2.3554,2.3669,2.3465,2.348,2.3671,0.0,0.0,0.0,0.0,0.0,0.0,0.0,0.0,0.0,0.0,0.0,0.0,0.0,0.0,0.0,0.0,2.4098,2.4098,2.4098,0.0,0.0,0.0,0.0,0.0,2.4098,2.4098,2.4254,2.4868,2.4568,2.4098,0.0,0.0,0.0,0.0,0.0,0.0,0.0,0.0,0.0,0.0,0.0,0.0,0.0,0.0,0.0,0.0,0.0,0.0,0.0,2.8717,2.8424,2.8318,2.8291,2.8291,2.8291,2.8291,2.8291,2.8291,2.8291,2.8291,2.8291,2.8291,2.8291,2.8291,2.8291,2.8291,2.8291,2.8291,2.8291,2.8291,0.0,2.7987,2.7322,2.548,2.4394,2.3743,2.1902,2.1211,2.1211,2.1211,2.1211,2.1233,0.0,0.0,0.0,0.0,0.0,0.0,0.0,0.0,0.0,0.0,0.0,0.0,0.0,0.0,0.0,0.0,0.0,0.0,0.0,0.0,0.0,0.0,0.0,0.0,0.0,0.0,0.0,2.4098,2.3819,2.373,2.3832,2.373,2.3745,0.0,0.0,0.0,0.0,0.0,0.0,0.0,0.0,0.0,0.0,0.0,0.0,0.0,0.0,0.0,0.0,0.0,0.0,0.0,0.0,0.0,0.0,2.4098,2.4098,2.4098,2.4098,2.4098,2.4372,2.5521,0.0,0.0,0.0,0.0,0.0,0.0,0.0,0.0,0.0,0.0,0.0,0.0,0.0,0.0,0.0,0.0,0.0,0.0,0.0,0.0,2.9105,2.8664,2.8381,2.8291,2.8291,2.8291,2.8291,2.8291,2.8291,2.8291,2.8291,2.8291,2.8291,2.8291,2.8291,2.8291,2.8291,2.8291,2.8291,2.8291,2.8291,2.8291,2.8291,2.8291,2.8094,2.5699,2.4699,2.4478,2.2121,2.1211,2.1211,2.1211,2.1262,2.1357,0.0,0.0,0.0,0.0,0.0,0.0,0.0,0.0,0.0,0.0,0.0,0.0,0.0,0.0,0.0,0.0,0.0,0.0,0.0,0.0,0.0,0.0,0.0,0.0,0.0,2.4083,2.4083,2.4098,2.3949,2.3789,2.3628,2.3789,2.3891,2.3905,0.0,0.0,0.0,0.0,0.0,0.0,0.0,0.0,0.0,0.0,0.0,0.0,0.0,0.0,0.0,0.0,0.0,0.0,0.0,0.0,0.0,0.0,2.4098,2.4098,2.4098,2.4098,2.4372,2.5521,0.0,0.0,0.0,0.0,0.0,0.0,0.0,0.0,0.0,0.0,0.0,0.0,0.0,0.0,0.0,0.0,0.0,0.0,0.0,0.0,2.9132,2.8824,2.8568,2.8318,2.8291,2.8291,2.8291,2.8291,2.8291,2.8291,2.8291,2.8291,2.8291,2.8291,2.8291,2.8291,2.8291,2.8291,2.8291,2.8291,2.8291,2.8291,2.8291,2.8291,2.8094,2.5699,2.4699,2.4478,2.2121,2.1211,2.1211,2.1211,2.1401,2.1664,0.0,0.0,0.0,0.0,0.0,0.0,0.0,0.0,0.0,0.0,0.0,0.0,0.0,0.0,0.0,0.0,0.0,0.0,0.0,0.0,0.0,0.0,0.0,2.4098,2.4098,2.4098,2.4098,2.4098,2.4052,2.398,2.3922,2.398,0.0,0.0,0.0,0.0,0.0,0.0,0.0,0.0,0.0,0.0,0.0,0.0,0.0,0.0,0.0,0.0,0.0,0.0,0.0,0.0,0.0,0.0,0.0,0.0,2.4098,2.4098,2.4098,2.4098,2.4527,2.6393,0.0,0.0,0.0,0.0,0.0,0.0,0.0,0.0,0.0,0.0,0.0,0.0,0.0,0.0,0.0,0.0,0.0,0.0,0.0,2.9237,2.9105,2.8717,2.8408,2.8318,2.8291,2.8291,2.8291,2.8291,2.8291,2.8291,2.8291,2.8291,2.8291,2.8291,2.8291,2.8291,2.8291,2.8291,2.8291,2.8291,2.8291,2.8291,2.8291,2.7879,2.7071,2.5597,2.458,2.38,2.2388,2.1818,2.1818,2.1818,2.1898,2.2023,0.0,0.0,0.0,0.0,0.0,0.0,0.0,0.0,0.0,0.0,0.0,0.0,0.0,0.0,0.0,0.0,0.0,0.0,0.0,0.0,0.0,0.0,0.0,2.4098,2.4098,2.4098,2.4098,2.4098,2.4098,2.4098,2.4098,0.0,0.0,0.0,0.0,0.0,0.0,0.0,0.0,0.0,0.0,0.0,0.0,0.0,0.0,0.0,0.0,0.0,0.0,0.0,0.0,0.0,0.0,0.0,0.0,0.0,2.4098,2.4098,2.4098,2.4098,2.4523,0.0,0.0,0.0,0.0,0.0,0.0,0.0,0.0,0.0,0.0,0.0,0.0,0.0,0.0,0.0,0.0,0.0,0.0,0.0,0.0,2.9211,2.9105,2.8691,2.8398,2.8318,2.8291,2.8291,2.8291,2.8291,2.8291,2.8291,2.8291,2.8291,2.8291,2.8291,2.8291,2.8291,2.8291,2.8291,2.8291,2.8291,2.8369,2.8496,2.8496,2.8095,2.7371,2.5991,2.4487,2.3043,2.2438,2.2214,2.2214,2.2214,2.2242,2.2352,0.0,0.0,0.0,0.0,0.0,0.0,0.0,0.0,0.0,0.0,0.0,0.0,0.0,0.0,0.0,0.0,0.0,0.0,0.0,0.0,0.0,0.0,0.0,2.4098,2.4098,2.4098,2.4098,2.4098,2.4098,2.4098,2.4098,0.0,0.0,0.0,0.0,0.0,0.0,0.0,0.0,0.0,0.0,0.0,0.0,0.0,0.0,0.0,0.0,0.0,0.0,0.0,0.0,0.0,0.0,0.0,0.0,0.0,2.4098,2.4098,2.4098,2.4111,0.0,0.0,0.0,0.0,0.0,0.0,0.0,0.0,0.0,0.0,0.0,0.0,0.0,0.0,0.0,0.0,0.0,0.0,0.0,0.0,2.9774,2.9475,2.9132,2.886,2.8594,2.8318,2.8291,2.8291,2.8291,2.8291,2.8291,2.8291,2.8291,2.8291,2.8291,2.8291,2.8291,2.8291,2.8291,2.8291,2.8291,2.8291,2.8525,2.8889,2.8889,2.9142,2.9365,2.6873,2.4405,2.2221,2.2221,2.2221,2.2221,2.2221,2.2374,2.2592,0.0,0.0,0.0,0.0,0.0,0.0,0.0,0.0,0.0,0.0,0.0,0.0,0.0,0.0,0.0,0.0,0.0,0.0,0.0,0.0,0.0,0.0,0.0,0.0,0.0,0.0,2.4098,2.4098,2.4098,2.4098,0.0,0.0,0.0,2.4098,0.0,0.0,0.0,0.0,0.0,0.0,0.0,0.0,0.0,0.0,0.0,0.0,0.0,0.0,0.0,0.0,0.0,0.0,0.0,0.0,0.0,2.4098,2.4098,2.4098,2.4098,0.0,0.0,0.0,0.0,0.0,0.0,0.0,0.0,0.0,0.0,0.0,0.0,0.0,0.0,0.0,0.0,0.0,0.0,0.0,0.0,2.9994,2.9774,2.9475,2.9132,2.886,2.8594,2.8318,2.8291,2.8291,2.8291,2.8291,2.8291,2.8291,2.8291,2.8291,2.8291,2.8291,2.8291,2.8291,2.8291,2.8291,2.8291,2.8291,2.8525,2.8889,2.8889,2.819,2.6834,2.4528,2.327,2.2835,2.2835,2.2835,2.2835,2.2835,2.2893,2.2959,0.0,0.0,0.0,0.0,0.0,0.0,0.0,0.0,0.0,0.0,0.0,0.0,0.0,0.0,0.0,0.0,0.0,0.0,0.0,0.0,0.0,0.0,0.0,0.0,0.0,2.4098,2.4098,0.0,0.0,0.0,0.0,0.0,0.0,2.4098,0.0,0.0,0.0,0.0,0.0,0.0,0.0,0.0,0.0,0.0,0.0,0.0,0.0,0.0,0.0,0.0,0.0,0.0,0.0,0.0,0.0,2.4098,2.4581,2.5132,2.5132,0.0,0.0,0.0,0.0,0.0,0.0,0.0,0.0,0.0,0.0,0.0,0.0,0.0,0.0,0.0,0.0,0.0,0.0,0.0,0.0,2.9994,2.9853,2.959,2.9132,2.8956,2.8691,2.8318,2.8291,2.8291,2.8291,2.8291,2.8291,2.8291,2.8291,2.8291,2.8291,2.8291,2.8291,2.8291,2.8291,2.8291,2.8291,2.8291,2.8613,2.9162,2.899,2.7909,2.6189,2.4356,2.3386,2.3106,2.3106,2.3106,2.3106,2.3106,2.3106,2.3106,0.0,0.0,0.0,0.0,0.0,0.0,0.0,0.0,0.0,0.0,0.0,0.0,0.0,0.0,0.0,0.0,0.0,0.0,0.0,0.0,0.0,0.0,0.0,0.0,0.0,0.0,0.0,0.0,0.0,0.0,0.0,0.0,2.4098,2.4098,0.0,2.4141,0.0,0.0,0.0,0.0,0.0,0.0,0.0,0.0,0.0,0.0,0.0,0.0,0.0,0.0,0.0,0.0,0.0,0.0,2.4098,2.4098,2.5328,0.0,0.0,0.0,0.0,0.0,0.0,0.0,0.0,0.0,0.0,0.0,0.0,0.0,0.0,0.0,0.0,0.0,0.0,0.0,0.0,0.0,0.0,2.9994,2.9994,2.9748,2.9158,2.9105,2.8867,2.8344,2.8291,2.8291,2.8291,2.8291,2.8291,2.8291,2.8291,2.8291,2.8291,2.8291,2.8291,2.8291,2.8291,2.8291,2.8291,2.8291,2.8787,2.9563,2.899,2.8086,2.6892,2.5493,2.4216,2.3106,2.3106,2.3106,2.3106,2.3106,2.3106,2.3106,0.0,0.0,0.0,0.0,0.0,0.0,0.0,0.0,0.0,0.0,0.0,0.0,0.0,0.0,0.0,0.0,0.0,0.0,0.0,0.0,0.0,0.0,0.0,0.0,0.0,0.0,0.0,0.0,0.0,0.0,0.0,0.0,0.0,2.4112,0.0,2.4408,0.0,0.0,0.0,0.0,0.0,0.0,0.0,0.0,0.0,0.0,0.0,0.0,0.0,0.0,0.0,0.0,2.4098,2.4098,2.4098,2.4098,2.5328,0.0,0.0,0.0,0.0,0.0,0.0,0.0,0.0,0.0,0.0,0.0,0.0,0.0,0.0,0.0,0.0,0.0,0.0,0.0,0.0,0.0,0.0,2.9994,2.9994,2.9748,2.9158,2.9105,2.8867,2.8344,2.8291,2.8291,2.8291,2.8291,2.8291,2.8291,2.8291,2.8291,2.8291,2.8291,2.8291,2.8291,2.8291,2.8291,2.8291,2.8291,2.8787,2.9535,2.8054,2.725,2.6836,2.4479,2.3355,2.3106,2.3106,2.3106,2.3106,2.3106,2.3106,2.3106,0.0,0.0,0.0,0.0,0.0,0.0,0.0,0.0,0.0,0.0,0.0,0.0,0.0,0.0,0.0,0.0,0.0,0.0,0.0,0.0,0.0,0.0,0.0,0.0,0.0,0.0,0.0,0.0,0.0,0.0,0.0,0.0,0.0,2.4112,0.0,2.4422,0.0,0.0,0.0,0.0,0.0,0.0,0.0,0.0,0.0,0.0,0.0,0.0,0.0,0.0,0.0,0.0,0.0,0.0,2.4098,2.4098,0.0,0.0,0.0,0.0,0.0,0.0,0.0,0.0,0.0,0.0,0.0,0.0,0.0,0.0,0.0,0.0,0.0,0.0,0.0,0.0,0.0,0.0,0.0,2.9994,2.9994,2.9748,2.9158,2.9105,2.8867,2.8344,2.8291,2.8291,2.8291,2.8291,2.8291,2.8291,2.8291,2.8291,2.8291,2.8291,2.8291,2.8291,2.8291,2.8398,2.8603,2.8809,2.881,2.8578,2.7473,2.6663,2.5934,2.393,2.3106,2.3106,2.3106,2.3106,2.3106,2.3106,2.3106,2.3106,0.0,0.0,0.0,0.0,0.0,0.0,0.0,0.0,0.0,0.0,0.0,0.0,0.0,0.0,0.0,0.0,0.0,0.0,0.0,0.0,0.0,0.0,0.0,0.0,0.0,0.0,0.0,0.0,0.0,0.0,0.0,0.0,0.0,2.4172,0.0,0.0,0.0,0.0,0.0,0.0,0.0,0.0,0.0,0.0,0.0,0.0,0.0,0.0,0.0,0.0,0.0,0.0,0.0,0.0,2.4098,0.0,0.0,0.0,0.0,0.0,0.0,0.0,0.0,0.0,0.0,0.0,0.0,0.0,0.0,0.0,0.0,0.0,0.0,0.0,0.0,0.0,0.0,0.0,0.0,3.0222,3.016,2.9871,2.9279,2.9216,2.8987,2.8452,2.8476,2.8476,2.8408,2.8476,2.8476,2.8398,2.8476,2.8476,2.8398,2.8398,2.8369,2.8291,2.8291,2.8516,2.8908,2.9143,2.8681,2.7665,2.6982,2.6073,2.501,2.3658,2.3106,2.3106,2.3106,2.3106,2.3106,2.3106,2.3106,2.3106,0.0,0.0,0.0,0.0,0.0,0.0,0.0,0.0,0.0,0.0,0.0,0.0,0.0,0.0,0.0,0.0,0.0,0.0,0.0,0.0,0.0,0.0,0.0,0.0,0.0,0.0,0.0,0.0,0.0,0.0,0.0,0.0,0.0,0.0,0.0,0.0,0.0,0.0,0.0,0.0,0.0,0.0,0.0,0.0,0.0,0.0,0.0,0.0,0.0,0.0,0.0,0.0,0.0,0.0,0.0,0.0,0.0,0.0,0.0,0.0,0.0,0.0,0.0,0.0,0.0,0.0,0.0,0.0,0.0,0.0,0.0,0.0,0.0,0.0,0.0,0.0,0.0,0.0,0.0,3.117,3.0859,3.037,2.9769,2.9715,2.9462,2.8865,2.9189,2.9266,2.883,2.9227,2.9256,2.882,2.9199,2.9219,2.8811,2.8811,2.8652,2.8291,2.8291,2.8516,2.8881,2.8164,2.7997,2.8104,2.6193,2.5256,2.501,2.3658,2.3106,2.3106,2.3106,2.3106,2.3106,2.3106,2.3106,2.3106,0.0,0.0,0.0,0.0,0.0,0.0,0.0,0.0,0.0,0.0,0.0,0.0,0.0,0.0,0.0,0.0,0.0,0.0,0.0,0.0,0.0,0.0,0.0,0.0,0.0,0.0,0.0,0.0,0.0,0.0,0.0,2.5048,2.4992,0.0,0.0,0.0,0.0,0.0,0.0,0.0,0.0,0.0,0.0,0.0,0.0,0.0,0.0,0.0,0.0,0.0,0.0,0.0,0.0,0.0,0.0,0.0,0.0,0.0,0.0,0.0,0.0,0.0,0.0,0.0,0.0,0.0,0.0,0.0,0.0,0.0,0.0,0.0,0.0,0.0,0.0,0.0,0.0,0.0,0.0,3.1377,3.1222,3.0897,3.0469,3.0277,3.0013,2.9536,2.9574,2.951,2.9287,2.9491,2.951,2.9287,2.95,2.9365,2.8898,2.8889,2.8711,2.8291,2.8291,2.8643,2.9259,2.8136,2.7479,2.7164,2.5726,2.4672,2.3938,2.3355,2.3106,2.3106,2.3106,2.3106,2.3106,2.3106,2.3106,2.3106,0.0,0.0,0.0,0.0,0.0,0.0,0.0,0.0,0.0,0.0,0.0,0.0,0.0,0.0,0.0,0.0,0.0,0.0,0.0,0.0,0.0,0.0,0.0,0.0,0.0,0.0,0.0,0.0,0.0,0.0,2.4637,2.5342,2.53,0.0,2.4977,0.0,0.0,0.0,0.0,0.0,0.0,0.0,0.0,0.0,0.0,0.0,0.0,0.0,0.0,0.0,0.0,0.0,0.0,0.0,0.0,0.0,0.0,0.0,0.0,0.0,0.0,0.0,0.0,0.0,0.0,0.0,0.0,0.0,0.0,0.0,0.0,0.0,0.0,0.0,0.0,0.0,0.0,0.0,3.1588,3.1712,3.1619,3.1426,3.1119,3.0825,3.0529,3.0194,3.0013,2.9882,2.9764,2.9872,2.9882,2.9764,2.9872,2.9667,2.9092,2.8867,2.8603,2.8291,2.8291,2.8567,2.9047,2.7719,2.6743,2.6027,2.5371,2.4332,2.3106,2.3106,2.3106,2.3106,2.3106,2.3106,2.3106,2.3106,2.3106,2.3106,0.0,0.0,0.0,0.0,0.0,0.0,0.0,0.0,0.0,0.0,0.0,0.0,0.0,0.0,0.0,0.0,0.0,0.0,0.0,0.0,0.0,0.0,0.0,0.0,0.0,0.0,0.0,0.0,0.0,0.0,2.4977,2.5019,2.5019,2.4991,2.5313,2.5285,2.4991,0.0,0.0,0.0,0.0,0.0,0.0,0.0,0.0,0.0,0.0,0.0,0.0,0.0,0.0,0.0,0.0,0.0,0.0,0.0,0.0,0.0,0.0,0.0,0.0,0.0,0.0,0.0,0.0,0.0,0.0,0.0,0.0,0.0,0.0,0.0,0.0,0.0,0.0,0.0,0.0,0.0,3.214,3.2574,3.2243,3.1862,3.159,3.1252,3.0952,3.0689,3.0759,3.0635,3.0185,3.0586,3.0625,3.0176,3.0596,3.041,2.9569,2.873,2.831,2.8291,2.8291,2.8094,2.7662,2.6385,2.5561,2.5162,2.5125,2.4332,2.3106,2.3106,2.3106,2.3106,2.3106,2.3106,2.3106,2.3106,2.3106,2.3106,0.0,0.0,0.0,0.0,0.0,0.0,0.0,0.0,0.0,0.0,0.0,0.0,0.0,0.0,0.0,0.0,0.0,0.0,0.0,0.0,0.0,0.0,0.0,0.0,0.0,0.0,0.0,0.0,0.0,2.6013,2.6094,2.6082,2.596,2.5688,2.5342,2.4991,2.4723,2.5369,0.0,0.0,0.0,0.0,0.0,0.0,0.0,0.0,0.0,0.0,0.0,0.0,0.0,0.0,0.0,0.0,0.0,0.0,0.0,0.0,0.0,0.0,0.0,0.0,0.0,0.0,0.0,0.0,0.0,0.0,0.0,0.0,0.0,0.0,0.0,0.0,0.0,0.0,0.0,0.0,3.2512,3.2688,3.2553,3.2421,3.2308,3.1842,3.1499,3.1413,3.1081,3.082,3.0654,3.0801,3.081,3.0644,3.0801,3.0469,2.9608,2.8748,2.8291,2.8291,2.8291,2.8486,2.885,2.752,2.6696,2.6255,2.5431,2.4332,2.3106,2.3106,2.3106,2.3106,2.3106,2.3106,2.3106,2.3106,2.3106,2.3106,0.0,0.0,0.0,0.0,0.0,0.0,0.0,0.0,0.0,0.0,0.0,0.0,0.0,0.0,0.0,0.0,0.0,0.0,0.0,0.0,0.0,0.0,0.0,0.0,0.0,0.0,0.0,0.0,0.0,0.0,0.0,0.0,2.6509,2.6282,2.5728,0.0,0.0,0.0,0.0,2.5798,0.0,0.0,2.5084,0.0,0.0,0.0,0.0,0.0,0.0,0.0,0.0,0.0,0.0,0.0,0.0,0.0,0.0,0.0,0.0,0.0,0.0,0.0,0.0,0.0,0.0,0.0,0.0,0.0,0.0,0.0,0.0,0.0,0.0,0.0,0.0,0.0,0.0,0.0,3.2698,3.2698,3.2698,3.2698,3.2698,3.2143,3.1787,3.1787,3.1228,0.0,3.0889,3.0889,3.0889,3.0889,3.0634,3.0194,2.9608,2.8748,2.8291,2.8291,2.8437,2.8649,2.8906,2.818,2.7296,2.6316,2.547,2.4332,2.3106,2.3106,2.3106,2.3106,2.3106,2.3106,2.3106,2.3106,2.3106,2.3106,0.0,0.0,0.0,0.0,0.0,0.0,0.0,0.0,0.0,0.0,0.0,0.0,0.0,0.0,0.0,0.0,0.0,0.0,2.5005,0.0,0.0,0.0,0.0,0.0,0.0,0.0,0.0,0.0,0.0,0.0,0.0,0.0,2.6602,0.0,2.6588,2.6376,2.6122,0.0,2.6137,2.6404,0.0,2.5046,2.5029,0.0,0.0,0.0,2.6889,2.6863,0.0,0.0,0.0,0.0,0.0,0.0,0.0,0.0,0.0,0.0,0.0,0.0,0.0,0.0,0.0,0.0,0.0,0.0,0.0,0.0,0.0,0.0,0.0,0.0,0.0,0.0,0.0,0.0,0.0,0.0,3.2698,3.2698,3.2698,3.2698,3.2698,3.2143,3.1787,3.1816,3.1257,3.0889,3.0918,3.0889,3.0889,3.0889,3.0058,2.9598,2.9598,2.8748,2.8318,2.8301,2.8721,2.844,2.7623,2.8054,2.7091,2.5102,2.5071,2.4309,2.3106,2.3106,2.3106,2.3106,2.3106,2.3106,2.3106,2.3106,2.3106,2.3106,0.0,0.0,0.0,0.0,0.0,0.0,0.0,0.0,0.0,0.0,0.0,0.0,0.0,0.0,0.0,0.0,0.0,0.0,2.5174,2.5328,2.5563,2.5864,2.6295,0.0,0.0,0.0,0.0,0.0,0.0,0.0,0.0,0.0,0.0,0.0,2.7357,2.7124,2.6811,2.647,0.0,0.0,2.555,2.5965,0.0,0.0,0.0,0.0,0.0,3.0678,0.0,0.0,2.8631,2.5761,0.0,0.0,0.0,0.0,0.0,0.0,2.4098,0.0,0.0,0.0,0.0,0.0,0.0,0.0,0.0,0.0,0.0,0.0,0.0,0.0,0.0,0.0,0.0,0.0,0.0,0.0,3.2698,3.2698,3.2698,3.2698,3.2698,3.2143,3.1903,0.0,3.1373,3.0976,3.1189,3.1005,3.0889,3.0889,3.0237,2.9803,2.9598,2.892,2.8488,2.8301,2.8721,2.844,2.7595,2.7146,2.6257,2.5041,2.4062,2.3448,2.3106,2.3106,2.3106,2.3106,2.3106,2.3106,2.3106,2.3106,2.3106,2.3106,0.0,0.0,0.0,0.0,0.0,0.0,0.0,0.0,0.0,0.0,0.0,0.0,0.0,0.0,0.0,0.0,0.0,0.0,2.6437,2.629,2.6321,2.6573,2.6914,2.7058,0.0,0.0,0.0,0.0,0.0,0.0,0.0,0.0,0.0,0.0,0.0,0.0,0.0,0.0,0.0,0.0,2.5715,0.0,0.0,2.8233,2.9237,0.0,0.0,0.0,3.0521,3.1705,2.9683,0.0,0.0,0.0,0.0,0.0,0.0,0.0,0.0,0.0,0.0,0.0,0.0,0.0,2.5516,2.6362,2.75,0.0,0.0,0.0,0.0,0.0,0.0,0.0,0.0,0.0,0.0,0.0,0.0,3.2698,3.2698,3.2698,3.2698,3.2287,3.2076,3.2287,3.1653,3.1286,3.1296,3.1276,3.1199,3.1083,3.0379,2.9915,2.9775,2.8947,2.8451,2.8301,2.8339,2.8089,2.7566,2.6932,2.6077,2.5071,2.427,2.3635,2.3106,2.3106,2.3106,2.3106,2.3106,2.3106,2.3106,2.3106,2.3106,2.3106,0.0,0.0,0.0,0.0,0.0,0.0,0.0,0.0,0.0,0.0,0.0,0.0,0.0,0.0,0.0,0.0,0.0,0.0,2.8198,2.7607,2.7292,2.7328,2.7282,2.7135,2.6886,0.0,0.0,0.0,0.0,0.0,0.0,0.0,0.0,0.0,0.0,0.0,0.0,0.0,0.0,2.6706,2.616,2.6842,0.0,0.0,2.9192,0.0,3.2019,3.1967,3.1797,3.1797,2.9648,0.0,0.0,0.0,0.0,0.0,2.4098,0.0,0.0,0.0,0.0,0.0,0.0,0.0,2.5904,2.6827,2.7792,2.9633,0.0,0.0,0.0,0.0,0.0,0.0,0.0,0.0,0.0,0.0,0.0,3.2698,3.2698,3.2698,3.2698,3.2459,3.2305,3.2344,3.2047,3.1701,3.1354,3.1643,3.1652,3.1284,3.0509,3.0034,2.9929,2.8918,2.8391,2.8369,2.7847,2.7547,2.7439,2.7015,2.6103,2.4887,2.4887,2.4209,2.3106,2.3106,2.3106,2.3106,2.3106,2.3106,2.3106,2.3106,2.3106,2.3106,0.0,0.0,0.0,0.0,0.0,0.0,0.0,0.0,0.0,0.0,0.0,0.0,0.0,0.0,0.0,0.0,0.0,0.0,2.8783,2.842,2.8404,2.8779,2.839,2.8125,2.8076,2.8149,0.0,0.0,0.0,0.0,0.0,0.0,0.0,0.0,0.0,0.0,0.0,0.0,0.0,2.8261,2.8144,0.0,3.1816,3.1391,3.1442,3.198,3.3384,3.2992,3.1797,0.0,3.0458,2.8481,0.0,0.0,0.0,0.0,0.0,0.0,0.0,0.0,0.0,0.0,0.0,0.0,2.4021,2.5041,2.5787,0.0,0.0,0.0,0.0,0.0,0.0,0.0,0.0,0.0,0.0,0.0,0.0,3.2698,3.2698,3.2698,3.2698,3.2459,3.2402,3.2612,3.2373,3.2047,3.173,3.1759,3.1598,3.1151,3.0871,3.0354,2.952,2.9146,2.8886,2.8772,2.7977,2.7253,2.6601,2.5844,2.4764,2.3472,2.3472,2.3355,2.3106,2.3106,2.3106,2.3106,2.3106,2.3106,2.3106,2.3106,2.3106,2.3106,0.0,0.0,0.0,0.0,0.0,0.0,0.0,0.0,0.0,0.0,0.0,0.0,0.0,0.0,0.0,0.0,0.0,0.0,0.0,0.0,2.9555,2.9789,2.9208,2.8892,2.8892,2.8569,0.0,0.0,0.0,0.0,0.0,0.0,0.0,0.0,0.0,0.0,0.0,0.0,2.7866,2.8962,2.8604,0.0,3.2554,3.2187,3.2476,3.324,3.4437,3.4463,3.3815,3.2979,3.2136,0.0,0.0,2.6951,2.602,0.0,2.4558,2.4478,0.0,0.0,0.0,2.4098,0.0,0.0,0.0,2.4998,2.5884,2.4929,0.0,0.0,0.0,0.0,0.0,0.0,0.0,0.0,0.0,0.0,0.0,0.0,3.2333,3.2119,3.2336,3.2037,3.1914,3.2026,3.211,3.2035,3.1712,3.205,3.1958,3.1359,3.107,3.054,2.9806,2.9203,2.8989,2.9136,2.7442,2.6557,2.635,2.4805,2.3752,2.3106,2.3106,2.3106,2.3106,2.3106,2.3106,2.3106,2.3106,2.3106,2.3106,2.3106,2.3106,2.3106,0.0,0.0,0.0,0.0,0.0,0.0,0.0,0.0,0.0,0.0,0.0,0.0,0.0,0.0,0.0,0.0,0.0,0.0,0.0,0.0,0.0,3.0547,2.994,2.9599,2.9599,2.8938,2.8584,0.0,0.0,0.0,0.0,0.0,0.0,0.0,0.0,0.0,0.0,0.0,0.0,2.9235,0.0,3.0117,3.2091,3.2068,3.2987,3.4345,3.5155,3.5521,3.5417,3.4058,0.0,3.2614,2.9789,2.8664,0.0,0.0,0.0,0.0,0.0,0.0,0.0,0.0,0.0,2.4098,0.0,0.0,0.0,0.0,0.0,0.0,0.0,0.0,0.0,0.0,0.0,0.0,0.0,0.0,0.0,0.0,3.1826,3.1516,3.185,3.1588,3.1408,3.1408,3.1712,3.1797,3.1554,3.212,3.2138,3.1441,3.1072,3.0598,3.0084,2.9296,2.9102,2.9493,2.7242,2.6301,2.6461,2.4416,2.3355,2.3106,2.3106,2.3106,2.3106,2.3106,2.3106,2.3106,2.3106,2.3106,2.3106,2.3106,2.3106,2.3106,0.0,0.0,0.0,0.0,0.0,0.0,0.0,0.0,0.0,0.0,0.0,0.0,0.0,0.0,0.0,0.0,0.0,0.0,3.187,0.0,0.0,0.0,3.058,3.0279,3.0279,2.963,2.9292,0.0,0.0,0.0,0.0,0.0,0.0,0.0,2.7426,0.0,0.0,0.0,2.8762,0.0,3.0392,3.1048,0.0,3.2596,3.3324,3.3888,3.5443,3.509,3.3849,0.0,3.2574,3.1227,0.0,2.9645,0.0,0.0,0.0,0.0,0.0,0.0,0.0,0.0,2.4098,0.0,0.0,0.0,0.0,0.0,0.0,0.0,0.0,0.0,0.0,0.0,0.0,0.0,0.0,0.0,0.0,0.0,3.1471,3.1419,3.1443,3.144,3.1408,3.1408,3.145,3.1454,3.1426,3.1495,3.1319,3.0826,3.0754,3.0372,2.9688,2.9558,2.9645,2.9901,2.8493,2.7497,2.6893,2.5507,2.4209,2.3106,2.3106,2.3106,2.3106,2.3106,2.3106,2.3106,2.3106,2.3106,2.3106,2.3106,2.3106,2.3106,0.0,0.0,0.0,0.0,0.0,0.0,0.0,0.0,0.0,0.0,0.0,0.0,0.0,0.0,0.0,0.0,0.0,3.6232,0.0,0.0,0.0,0.0,0.0,0.0,0.0,3.0322,2.9984,2.9984,2.9707,0.0,0.0,0.0,0.0,0.0,2.7532,0.0,2.854,0.0,0.0,0.0,0.0,0.0,0.0,3.3125,3.4548,3.6188,3.6894,3.624,3.526,0.0,3.5482,0.0,0.0,0.0,0.0,0.0,0.0,0.0,0.0,0.0,0.0,0.0,0.0,0.0,0.0,0.0,2.4326,0.0,0.0,0.0,0.0,0.0,0.0,0.0,0.0,0.0,0.0,0.0,0.0,0.0,0.0,0.0,2.8208,2.8907,2.9373,2.9373,3.0367,3.1004,3.1004,3.1263,3.1191,3.0698,3.0714,3.0433,2.9837,2.9915,3.015,3.0487,2.8368,2.7329,2.7215,2.4971,2.3627,2.3106,2.3106,2.3106,2.3106,2.3106,2.3106,2.3106,2.3106,2.3106,2.3106,2.3106,2.3106,2.3106,0.0,0.0,0.0,0.0,0.0,0.0,0.0,0.0,0.0,0.0,0.0,0.0,3.2565,3.4562,0.0,0.0,0.0,3.8405,0.0,0.0,3.5416,3.4798,3.3151,0.0,0.0,0.0,3.0676,3.0676,0.0,0.0,0.0,0.0,0.0,0.0,0.0,2.844,2.9262,0.0,0.0,3.1983,3.2404,3.31,3.3877,3.4166,3.5979,3.837,3.837,3.7495,3.6606,3.8318,3.7495,0.0,3.6737,0.0,0.0,0.0,0.0,0.0,2.7902,0.0,0.0,0.0,0.0,0.0,0.0,0.0,0.0,0.0,0.0,0.0,0.0,0.0,0.0,0.0,0.0,0.0,0.0,0.0,0.0,0.0,0.0,0.0,0.0,2.6775,2.7497,2.7869,2.9166,3.0098,3.0481,3.0822,3.087,3.0512,3.0501,3.0336,3.0005,2.9976,3.0051,3.0218,2.8075,2.6984,2.6784,2.4633,2.3448,2.3106,2.3106,2.3106,2.3106,2.3106,2.3106,2.3106,2.3106,2.3106,2.3106,2.3106,2.3106,2.3106,3.2535,3.2398,0.0,0.0,0.0,0.0,0.0,0.0,0.0,0.0,0.0,0.0,0.0,0.0,0.0,0.0,0.0,3.9664,3.808,0.0,3.6497,0.0,0.0,3.3751,0.0,0.0,0.0,3.1364,0.0,0.0,0.0,0.0,0.0,0.0,0.0,2.8984,2.8613,2.9793,3.0292,3.0412,3.1901,3.3913,3.5987,0.0,3.7495,3.956,3.956,0.0,0.0,3.7063,3.7024,0.0,0.0,0.0,0.0,0.0,0.0,0.0,0.0,0.0,0.0,2.8564,0.0,0.0,0.0,0.0,2.3952,0.0,0.0,0.0,0.0,0.0,0.0,0.0,0.0,0.0,0.0,0.0,0.0,0.0,0.0,0.0,0.0,2.5939,2.6496,2.7796,2.7952,2.8572,2.9942,3.0036,3.0036,3.0015,3.0015,3.0015,2.9994,2.9558,2.9076,2.8568,2.8027,2.6866,2.5164,2.5071,2.434,2.3106,2.3106,2.3106,2.3106,2.3106,2.3106,2.3106,2.3106,2.3106,2.3106,2.3106,2.3106,2.3106,0.0,0.0,0.0,0.0,0.0,0.0,0.0,3.2398,0.0,0.0,0.0,0.0,0.0,0.0,3.7925,0.0,0.0,4.256,4.1562,4.0416,0.0,0.0,0.0,3.6292,0.0,0.0,0.0,3.2057,0.0,0.0,0.0,0.0,0.0,0.0,0.0,3.025,0.0,0.0,0.0,0.0,0.0,3.5936,3.6658,0.0,0.0,4.0071,3.9743,3.8749,0.0,3.9351,3.8593,3.7338,3.9235,3.854,3.709,3.7482,3.6083,0.0,0.0,0.0,3.0502,2.9716,0.0,0.0,0.0,0.0,0.0,0.0,0.0,0.0,0.0,0.0,0.0,0.0,0.0,0.0,0.0,0.0,0.0,0.0,0.0,0.0,0.0,0.0,0.0,2.5213,2.6061,2.7169,2.8556,2.8603,2.9052,2.9963,2.9994,2.9722,2.9148,2.9101,2.8734,2.7965,2.6807,2.5954,2.5315,2.4263,2.3542,2.3106,2.3106,2.3106,2.3106,2.3106,2.3106,2.3106,2.3106,2.3106,2.3106,2.3106,2.3106,2.3106,3.4551,0.0,0.0,0.0,0.0,0.0,0.0,0.0,0.0,0.0,3.3829,0.0,3.4212,0.0,3.9209,0.0,4.2242,4.4041,4.3689,4.257,0.0,4.0922,3.9814,0.0,0.0,0.0,0.0,0.0,3.2398,3.218,0.0,0.0,0.0,0.0,0.0,0.0,0.0,0.0,3.3302,0.0,0.0,3.7556,0.0,0.0,3.8099,3.9246,0.0,3.9259,3.9,4.0476,3.9899,3.8867,4.0698,4.0006,3.8619,3.8998,3.8044,3.6815,3.6593,3.5025,0.0,3.2712,3.0675,0.0,2.8911,0.0,0.0,0.0,0.0,0.0,0.0,0.0,0.0,0.0,0.0,0.0,0.0,0.0,0.0,0.0,0.0,0.0,0.0,0.0,2.337,2.3857,2.4696,2.5761,2.7127,2.7631,2.8303,2.9228,2.9735,2.9804,2.9416,2.9262,2.8625,2.751,2.6269,2.5323,2.461,2.3558,2.3106,2.3106,2.3106,2.3106,2.3106,2.3106,2.3106,2.3106,2.3106,2.3106,2.3106,2.3106,2.3106,2.3106,3.4736,3.4582,0.0,0.0,3.2998,0.0,0.0,0.0,3.537,0.0,3.6841,3.7992,3.8176,3.9823,4.1009,4.1189,4.2936,0.0,4.4301,4.3723,0.0,0.0,4.1076,3.9153,3.5876,0.0,0.0,0.0,3.2552,3.249,0.0,0.0,0.0,0.0,3.2398,0.0,3.097,3.0284,3.1703,3.4741,3.8533,3.8436,3.6227,3.8527,3.837,3.7155,3.8932,3.9888,4.0359,4.0359,4.0737,4.1207,4.1207,4.1221,4.1247,4.1247,4.1298,4.1168,4.0594,3.9194,3.773,3.7142,3.4805,0.0,0.0,0.0,3.085,0.0,0.0,0.0,0.0,0.0,0.0,0.0,0.0,0.0,0.0,0.0,0.0,0.0,0.0,0.0,0.0,2.1807,2.2356,2.3701,2.3795,2.4385,0.0,2.7013,2.7765,2.7889,2.9208,3.0123,3.0624,2.9806,2.8653,2.7132,2.6305,2.4926,2.3106,2.3106,2.3106,2.3106,2.3106,2.3106,2.3106,2.3106,2.3106,2.3106,2.3106,2.3106,2.3106,2.3106,2.3074,2.3019,3.6106,3.5583,3.5183,0.0,3.523,3.546,0.0,0.0,0.0,0.0,3.792,3.8176,3.8127,3.9963,4.1224,4.1278,4.322,0.0,0.0,0.0,0.0,4.3836,4.3652,4.2432,4.0078,4.0031,0.0,3.4706,3.4706,0.0,3.2398,0.0,0.0,0.0,0.0,0.0,3.097,3.0284,3.0735,3.2131,3.4428,3.4894,0.0,0.0,3.6123,3.6018,3.8174,3.9324,3.9821,3.9821,3.9901,4.0056,4.0056,4.0306,4.062,4.062,4.0946,4.1285,4.1103,3.9183,3.7194,3.7037,3.4529,3.2181,0.0,0.0,0.0,0.0,0.0,0.0,0.0,0.0,0.0,0.0,0.0,0.0,0.0,0.0,0.0,0.0,0.0,0.0,2.1807,2.1807,2.1952,2.2304,2.2335,2.2946,2.4333,0.0,2.5844,2.7838,2.8241,2.886,2.9721,2.8584,2.7406,2.6236,2.511,2.4069,2.3106,2.3106,2.3106,2.3106,2.3106,2.3106,2.3106,2.3106,2.3106,2.3106,2.3106,2.3106,2.3106,2.3106,2.2644,2.1985,3.6952,0.0,0.0,3.5937,0.0,0.0,3.6984,0.0,0.0,4.0388,4.1171,0.0,4.1687,4.2768,4.3516,4.361,4.4488,0.0,0.0,0.0,0.0,4.4591,4.4591,4.3667,4.1632,4.1894,0.0,3.5491,0.0,0.0,3.2398,0.0,0.0,0.0,0.0,3.1992,0.0,3.1214,3.1031,3.1074,3.3936,0.0,0.0,3.6162,3.6645,3.6606,3.79,3.8723,3.922,3.922,3.9366,3.9612,3.9612,3.9821,4.0045,4.0045,4.0305,4.0566,4.0566,3.9353,3.8148,3.8148,3.6488,3.4938,3.5218,3.4429,3.3926,0.0,3.1526,2.8627,0.0,0.0,0.0,0.0,0.0,0.0,0.0,0.0,0.0,0.0,0.0,0.0,2.1859,2.1807,2.1807,2.1807,2.1807,2.2149,2.2925,0.0,2.5473,2.6982,2.8193,2.9069,2.9592,2.8791,2.764,2.6162,2.5343,2.4286,2.3106,2.3106,2.3106,2.3106,2.3106,2.3106,2.3106,2.3106,2.3106,2.3106,2.3106,2.2832,2.2449,2.2449,2.208,2.1544,0.0,0.0,0.0,0.0,0.0,0.0,0.0,3.9569,0.0,4.3467,0.0,4.6158,4.6324,4.6344,4.6404,4.6568,0.0,4.573,4.573,4.5099,4.4729,4.4729,4.4652,4.3775,4.2032,4.2571,0.0,0.0,0.0,0.0,0.0,0.0,0.0,0.0,0.0,0.0,0.0,3.221,3.1747,3.0889,3.5091,3.6188,3.5534,3.7756,3.8318,3.79,3.79,3.8214,3.8606,3.8606,3.8945,3.939,3.939,3.9442,3.9494,3.9494,3.9547,3.9612,3.9612,3.9523,3.9494,3.9494,3.905,3.8736,3.9272,3.8365,3.7516,3.783,3.4567,3.1539,0.0,0.0,0.0,0.0,0.0,0.0,0.0,0.0,0.0,0.0,0.0,0.0,0.0,2.2014,2.188,2.2066,2.2076,2.2149,2.2335,0.0,2.598,2.6167,2.8535,2.9844,2.9913,2.96,2.8514,2.6603,2.6111,2.4956,2.3238,2.3137,2.3106,2.3106,2.3106,2.3106,2.3106,2.3106,2.3106,2.3082,2.295,2.2355,2.1576,2.1292,2.119,2.1064,0.0,0.0,0.0,0.0,0.0,3.7938,4.1217,4.2461,4.3734,4.5764,4.6309,4.6524,4.6544,4.6564,4.6548,4.6603,4.648,0.0,0.0,0.0,0.0,4.5422,4.4899,4.4437,4.4083,4.419,4.2204,0.0,3.8092,3.6184,3.2398,0.0,0.0,0.0,0.0,0.0,3.0353,3.1129,0.0,3.0506,3.4144,3.5482,3.5495,3.7351,3.7978,3.79,3.79,3.7965,3.8044,3.8044,3.8122,3.82,3.82,3.8501,3.8867,3.8867,3.922,3.9612,3.9612,3.9246,3.8867,3.8867,3.8449,3.807,3.8174,3.7655,3.7192,3.7239,3.4715,3.2206,3.1275,0.0,0.0,0.0,0.0,0.0,0.0,0.0,0.0,0.0,0.0,0.0,0.0,0.0,0.0,0.0,2.3536,2.4012,2.5131,0.0,2.6403,0.0,2.84,2.9185,0.0,0.0,2.8589,2.7297,2.5906,2.4787,2.3922,2.3362,2.3106,2.3106,2.3106,2.3106,2.3106,2.3106,2.3106,2.3012,2.2205,2.1765,2.1387,1.9686,1.9048,1.9016,0.0,0.0,0.0,0.0,0.0,0.0,0.0,4.3756,0.0,4.7373,4.765,4.765,4.765,4.765,4.765,4.765,4.7327,4.7111,4.7111,4.648,4.613,4.613,4.5484,0.0,4.5114,4.5468,4.3279,3.8491,3.9199,3.7091,0.0,0.0,0.0,0.0,0.0,3.1708,0.0,0.0,0.0,3.3186,3.4682,3.5835,3.6737,3.7586,3.79,3.79,3.79,3.79,3.79,3.79,3.79,3.79,3.79,3.8083,3.8292,3.8292,3.8501,3.8723,3.8723,3.8514,3.8292,3.8292,3.8096,3.7854,3.7726,3.7482,3.7237,3.6956,3.5354,3.354,3.2016,2.9101,0.0,0.0,0.0,0.0,0.0,0.0,0.0,0.0,0.0,0.0,0.0,0.0,0.0,0.0,0.0,0.0,2.5835,0.0,2.7241,0.0,0.0,0.0,2.9196,0.0,2.837,2.6749,2.5647,2.4764,2.4077,2.3425,2.3106,2.3106,2.3106,2.3106,2.3106,2.3106,2.2793,2.2268,2.1796,2.0938,1.9877,1.8856,1.8183,1.7706,0.0,3.8057,0.0,0.0,3.9123,0.0,4.2925,4.4572,4.6311,4.8337,4.8599,4.8599,4.8599,4.8599,4.8599,4.8599,4.8127,4.7819,4.7819,4.7188,4.6803,4.6803,4.6157,4.5761,4.5607,4.6249,4.4233,0.0,3.9984,3.7953,0.0,0.0,0.0,0.0,0.0,0.0,0.0,0.0,3.3601,3.5696,3.5799,3.6671,3.79,3.79,3.79,3.79,3.79,3.79,3.79,3.79,3.79,3.79,3.79,3.79,3.79,3.79,3.79,3.79,3.79,3.79,3.79,3.79,3.79,3.7831,3.7551,3.7459,3.7284,3.6792,3.5679,3.4343,3.2908,3.029,0.0,0.0,0.0,0.0,0.0,0.0,0.0,0.0,0.0,0.0,0.0,0.0,0.0,0.0,0.0,2.5038,2.6685,2.7769,2.826,0.0,0.0,3.0097,2.854,0.0,2.8432,2.6614,2.5747,2.4949,2.4293,2.3611,2.3238,2.3106,2.3106,2.3106,2.3106,2.3106,2.2519,2.1576,2.1355,2.0138,1.8472,1.8247,1.7835,1.7324,0.0,0.0,0.0,0.0,0.0,0.0,4.5003,4.5484,4.6311,4.8337,4.8599,4.8599,4.8599,4.8599,4.8599,4.8599,4.8537,4.8507,4.8507,4.7881,4.7511,4.7511,4.6865,4.6219,4.5622,4.6249,4.5157,0.0,4.0445,3.8707,3.6953,3.3844,0.0,0.0,0.0,0.0,0.0,3.4955,3.5365,3.5473,3.7024,3.7756,3.79,3.79,3.79,3.79,3.79,3.79,3.79,3.79,3.79,3.79,3.79,3.79,3.79,3.79,3.79,3.79,3.79,3.79,3.79,3.79,3.79,3.7831,3.7551,3.7307,3.7062,3.6756,3.4933,3.345,3.3725,3.1583,2.9911,0.0,0.0,0.0,0.0,0.0,0.0,0.0,0.0,0.0,0.0,2.5711,0.0,0.0,2.5784,2.6861,2.9477,2.9735,2.9448,2.8641,3.0394,3.0447,2.8615,2.9429,2.9316,2.8271,2.6736,2.5647,2.4988,2.4301,2.3673,2.3106,2.3106,2.3106,2.3106,2.3106,2.2519,2.1513,2.0589,1.9533,1.8375,1.748,1.7674,1.8343,0.0,0.0,0.0,0.0,0.0,0.0,0.0,4.6619,4.7696,4.8491,4.8599,4.8599,4.8599,4.8599,4.8599,4.8599,4.8599,4.8599,4.8599,4.8337,4.8183,4.8183,4.7573,4.7065,4.6803,4.7065,4.588,0.0,0.0,3.8999,3.683,3.3813,0.0,0.0,0.0,3.523,3.6274,3.5736,3.6031,3.692,3.7625,3.79,3.79,3.79,3.8109,3.8383,3.8383,3.8619,3.8932,3.8932,3.8475,3.79,3.79,3.79,3.79,3.79,3.79,3.79,3.79,3.79,3.79,3.79,3.79,3.7785,3.7366,3.7191,3.6992,3.6604,3.4751,3.3269,3.3451,3.1584,2.9777,2.9135,0.0,0.0,0.0,0.0,0.0,0.0,0.0,0.0,0.0,0.0,0.0,0.0,0.0,2.5535,2.7451,2.7814,2.7911,2.7807,0.0,2.9215,2.8124,2.8752,2.86,2.7668,2.6593,2.5747,2.508,2.4425,2.3736,2.3106,2.3106,2.3106,2.3043,2.2456,2.1601,2.0589,1.9565,1.8888,1.8439,1.806,1.8156,1.8504,4.7193,0.0,4.6603,0.0,4.6698,4.7222,4.6901,4.7843,4.8599,4.8599,4.8599,4.8599,4.8599,4.8599,4.8599,4.8599,4.8599,4.8599,4.8599,4.8599,4.8599,4.8599,4.8158,0.0,4.7604,4.7788,4.6865,4.4776,4.2709,4.0847,3.9125,3.6368,0.0,0.0,3.6707,3.7301,3.8268,3.6732,3.6776,3.7913,3.807,3.8135,3.8161,3.8331,3.8645,3.8972,3.8972,3.9246,3.9612,3.9612,3.9076,3.841,3.841,3.841,3.837,3.8187,3.8135,3.8109,3.7952,3.79,3.79,3.79,3.79,3.7762,3.7214,3.7108,3.6968,3.6499,3.4678,3.3201,3.3201,3.1454,2.9673,2.869,0.0,0.0,0.0,0.0,0.0,0.0,0.0,2.6415,2.4654,0.0,0.0,0.0,0.0,2.4054,2.5804,2.6726,2.7193,0.0,0.0,0.0,2.8246,2.8391,2.8161,2.7487,2.6753,2.5931,2.508,2.4201,2.3549,2.3106,2.3106,2.3106,2.3043,2.2331,2.1443,2.0462,1.9718,1.924,1.8984,1.8984,1.9144,1.9367,5.2365,5.1578,5.1026,5.1008,4.9651,4.8867,4.9718,4.9127,4.8599,4.8599,4.8599,4.8599,4.8599,4.8599,4.8599,4.8599,4.8599,4.8599,4.8599,4.8599,4.8599,0.0,0.0,4.8296,4.7619,4.8245,4.8245,4.7558,0.0,0.0,4.5438,4.274,4.1261,4.0787,3.9663,3.927,3.9415,3.8332,3.7887,3.7952,3.8488,3.8697,3.8762,3.9364,3.9586,3.9599,3.9599,3.9599,3.9612,3.9612,3.9599,3.9586,3.9586,3.9586,3.9444,3.888,3.8697,3.8556,3.8044,3.79,3.79,3.79,3.79,3.7762,3.7214,3.7108,3.6968,3.6499,3.4678,3.3201,3.3201,3.1454,2.9984,2.9973,0.0,0.0,0.0,0.0,0.0,0.0,2.9104,2.8866,2.6146,0.0,0.0,0.0,0.0,0.0,0.0,0.0,0.0,2.7319,2.9444,0.0,2.9297,2.8755,2.848,2.848,2.7547,2.6396,2.505,2.3736,2.3113,2.3106,2.3106,2.3106,2.3106,2.3082,2.248,2.1576,2.1576,2.0969,2.0081,2.0081,2.0716,2.1418,5.3178,5.2921,5.238,5.1294,5.0672,5.0014,4.9142,4.8769,4.8599,4.8599,4.8599,4.8599,4.8599,4.8599,4.8599,0.0,4.8599,4.8599,0.0,4.8599,4.8599,4.8599,4.8599,4.8491,4.8276,4.8476,4.8743,4.902,0.0,0.0,0.0,4.4079,4.4075,4.3602,4.3305,4.3002,4.2647,4.0946,4.0226,4.0215,4.0385,4.0463,4.0476,4.0697,4.101,4.1375,4.1375,4.1598,4.1913,4.1913,4.1913,4.1913,4.1913,4.0842,3.9549,3.9377,3.9324,3.9194,3.8606,3.8449,3.8357,3.7991,3.79,3.7808,3.7459,3.7085,3.6745,3.6452,3.5271,3.4067,3.3325,3.2044,3.0862,3.0115,2.9994,0.0,0.0,0.0,0.0,0.0,2.8293,2.7872,0.0,2.5897,0.0,0.0,0.0,0.0,0.0,0.0,0.0,0.0,2.7676,0.0,2.7795,2.7628,2.7547,2.7547,2.7254,2.6405,2.505,2.3704,2.3106,2.3106,2.3106,2.3106,2.3043,2.2362,2.1891,2.1544,2.0843,2.0811,2.1127,2.1127,2.1324,2.145,5.3501,5.3263,5.2834,5.2113,5.1498,5.0748,4.9714,4.9269,4.8975,4.8625,4.8599,4.8599,4.8599,4.8599,0.0,4.8599,4.8599,4.8599,4.8599,4.8599,4.8599,4.8599,4.8599,4.8599,4.8599,4.8881,0.0,4.9703,4.824,4.6865,4.568,4.6927,4.717,4.6538,4.6153,4.5385,4.4284,4.2625,4.1658,4.1312,4.1546,4.1638,4.1664,4.1847,4.2173,4.2487,4.2487,4.2722,4.2997,4.2997,4.2997,4.2997,4.2997,4.2017,4.0853,4.0631,4.0422,4.0122,3.9496,3.9037,3.8632,3.8292,3.8057,3.7831,3.7551,3.7085,3.6675,3.6534,3.5583,3.4459,3.34,3.2311,3.1253,3.0167,2.9994,2.9994,2.9994,0.0,0.0,0.0,0.0,0.0,0.0,2.7107,2.69,0.0,0.0,0.0,0.0,0.0,2.6125,2.6423,2.7839,2.8284,2.7629,2.7285,2.6982,2.6731,2.6205,2.5533,2.4703,2.3611,2.3106,2.3106,2.3106,2.3106,2.3043,2.2418,2.2167,2.2111,2.1468,2.1601,2.2167,2.2167,2.1922,2.1513,5.3501,5.2903,5.2607,0.0,5.2167,5.1164,5.1107,5.0419,4.961,4.879,4.864,4.8599,4.8599,4.8599,4.8599,4.8599,0.0,0.0,4.8599,4.8599,4.8599,4.8599,4.8599,4.8614,4.8681,4.9297,4.9672,4.978,5.0482,5.0836,5.0836,5.0814,5.0346,4.9432,4.8201,4.6623,4.4757,4.3554,4.2451,4.1598,4.216,4.2369,4.2434,4.2931,4.3114,4.3114,4.3114,4.3114,4.3114,4.3114,4.3114,4.3114,4.3114,4.3114,4.2997,4.2434,4.1847,4.1286,4.0697,3.9756,3.8932,3.8893,3.8475,3.7974,3.7629,3.7172,3.676,3.6698,3.575,3.4556,3.34,3.2387,3.133,3.0193,2.9994,2.9994,2.9994,0.0,0.0,0.0,0.0,0.0,3.0046,2.9259,2.8773,0.0,0.0,0.0,0.0,0.0,2.774,2.8511,2.9345,2.9353,2.8421,2.7547,2.6761,2.6075,2.4787,2.4139,2.4077,2.3425,2.3106,2.3106,2.3106,2.3106,2.3106,2.3106,2.3106,2.3106,2.3106,2.3106,2.3106,2.3106,2.2519,2.1702,0.0,0.0,5.3075,5.266,5.2272,5.1806,5.1182,5.0419,4.9829,4.9626,4.9,4.8599,4.8599,4.8599,4.8599,4.8599,4.8599,4.8599,4.8599,4.8599,4.8599,4.8599,4.8599,4.8866,4.942,4.9066,4.9389,5.0451,5.1652,5.2236,5.2214,5.2027,5.1726,5.1273,4.9153,4.7828,4.7069,4.5106,4.4137,4.3911,4.4042,4.4121,4.4107,4.4251,4.4303,4.4303,4.4303,4.4303,4.4303,4.4303,4.4303,4.4303,4.4303,4.4303,4.4094,4.3088,4.2722,4.2487,4.1937,4.1584,4.1271,4.0814,4.0228,3.9527,3.8441,3.794,3.7505,3.6834,3.6345,3.5439,3.3549,3.3001,3.2196,3.0297,2.9994,2.9994,2.9994,2.9994,0.0,0.0,2.9994,3.0129,3.0518,3.0325,3.0336,0.0,0.0,0.0,3.0961,2.928,2.8209,2.7993,2.8549,2.8391,2.7427,2.7224,2.6761,2.6097,2.5249,2.461,2.4077,2.3425,2.3106,2.3106,2.3106,2.3106,2.3106,2.3106,2.3106,2.3106,2.3106,2.3106,2.3106,2.3106,2.295,2.2644,5.3501,5.3501,5.3348,5.2921,5.2851,5.259,5.1769,5.1273,5.0859,5.0496,4.973,4.9183,4.9183,4.8831,4.8599,4.8599,4.8599,4.8599,4.8599,4.8599,4.8599,4.8599,4.8927,4.9127,4.9189,4.9435,5.0082,5.1159,5.1898,5.2406,5.2691,5.2563,5.2344,5.2071,5.0772,4.9713,4.8805,4.7112,4.632,4.6124,4.5114,4.5006,4.5422,4.4911,4.4695,4.4695,4.4695,4.4695,4.4695,4.4695,4.4695,4.4695,4.4695,4.4695,4.4577,4.3963,4.3585,4.3337,4.3062,4.2591,4.2055,4.1455,4.0842,4.0204,3.9494,3.882,3.8237,3.7761,3.7376,3.648,3.4284,3.372,3.2861,3.0664,3.0129,2.9994,2.9994,3.018,3.0315,3.0315,3.0501,3.0756,3.1004,3.1184,3.1412,3.1661,3.1147,0.0,3.2274,3.0731,2.9513,2.8795,2.8599,2.8041,2.7103,2.6488,2.5992,2.5617,2.4664,2.4015,2.3642,2.3261,2.3106,2.3106,2.3106,2.3106,2.3106,2.3106,2.3106,2.3106,2.3106,2.3106,2.3106,2.3106,2.2801,2.2393,5.3501,5.3501,5.3501,5.3501,5.3501,5.3263,5.259,5.2378,5.2058,5.1385,5.0592,5.0085,5.0085,4.943,4.8918,4.8811,4.879,4.8728,4.862,4.8599,4.8599,4.8599,4.9204,4.9281,4.8789,5.0143,5.1128,5.1698,5.1805,5.2144,5.2691,5.2669,5.2525,5.2291,5.2094,5.1256,4.9936,4.8869,4.8256,4.7853,4.5939,4.5675,4.6295,4.5315,4.4857,4.4695,4.4695,4.4695,4.4695,4.4695,4.4695,4.4695,4.4695,4.4695,4.4695,4.4695,4.4382,4.403,4.403,4.331,4.2434,4.1847,4.1311,4.0867,4.0594,3.9783,3.9016,3.885,3.8371,3.7319,3.5111,3.444,3.3482,3.1172,3.0363,3.0068,3.0196,0.0,3.058,3.077,3.117,3.1429,3.1474,3.1788,3.2047,3.2109,3.2481,3.2698,3.2698,3.1681,3.0733,2.9943,2.8977,2.8041,2.7103,2.5878,2.5195,2.508,2.3829,2.3199,2.3106,2.3106,2.3106,2.3106,2.3106,2.3106,2.3106,2.3106,2.3106,2.3106,2.3106,2.3106,2.3106,2.3106,2.255,2.1954,5.3501,5.3501,5.3501,5.3501,5.3501,5.3467,5.3331,5.2746,5.2254,5.213,5.1403,5.0919,5.0919,5.0786,5.0442,4.9749,4.9705,4.9385,4.8646,4.8599,4.8599,4.8599,4.8706,4.902,4.9512,5.0851,5.1605,5.1698,5.2283,5.2583,5.2691,5.248,5.2352,5.2246,5.1124,5.0377,4.9936,4.8869,4.8256,4.7979,4.7624,4.7048,4.6374,4.619,4.5555,4.4695,4.4695,4.4695,4.4695,4.4695,4.4695,4.4695,4.4695,4.4695,4.4695,4.4695,4.4643,4.4564,4.4564,4.4434,4.4186,4.3611,4.3428,4.2984,4.1507,4.0677,3.9966,3.9003,3.8371,3.7319,3.5111,3.5065,3.4448,3.1736,3.0669,3.0414,3.1079,0.0,2.9953,3.116,3.1367,3.1526,3.1871,3.1974,3.2171,3.2564,3.2667,3.2698,3.2698,3.1063,3.006,2.9913,2.8977,2.8041,2.7103,2.6327,2.5647,2.508,2.4324,2.3642,2.3106,2.3106,2.3106,2.3106,2.3106,2.3106,2.3106,2.3106,2.3106,2.3106,2.3106,2.3106,2.3106,2.3106,2.3012,2.2887,5.3501,5.3501,5.3501,5.3501,5.3501,5.3501,5.3501,5.3178,5.2955,5.2955,5.2237,5.1751,5.1751,5.135,5.0767,4.9967,4.9888,4.9546,4.8661,4.8599,4.8599,4.8599,4.8989,4.9343,4.9703,5.0651,5.1159,5.1159,5.1836,5.2359,5.2691,5.2563,5.2525,5.248,5.1865,5.1457,5.1163,5.0084,4.9747,4.9849,4.8681,4.8195,4.8044,4.7485,4.6569,4.5635,4.5635,4.5221,4.4695,4.4695,4.4695,4.4695,4.4695,4.4695,4.4695,4.4695,4.4695,4.4695,4.4695,4.4695,4.4643,4.4395,4.4095,4.369,4.2879,4.1802,4.0824,4.0324,3.9525,3.822,3.5922,3.5531,3.4698,3.2154,3.1231,3.0983,3.1343,3.1029,3.0992,3.1661,3.195,3.216,3.2367,3.2388,3.2471,3.2688,3.2698,3.2698,3.2698,3.1874,3.0946,2.9943,2.851,2.7547,2.7103,2.6449,2.577,2.508,2.4417,2.3767,2.3106,2.3106,2.3106,2.3106,2.3106,2.3106,2.3106,2.3106,2.3106,2.3106,2.3106,2.3106,2.3106,2.3106,2.3106,2.3106,5.3501,5.3501,5.3501,5.3501,5.3501,5.3501,5.3501,5.3501,5.3501,5.3501,5.2955,5.259,5.259,5.186,5.1067,5.0245,5.0006,4.9546,4.8661,4.8599,4.8599,4.8599,4.9143,4.9512,4.9703,5.0189,5.062,5.0928,5.1451,5.2052,5.2691,5.2691,5.2691,5.2691,5.2691,5.2563,5.2246,5.1373,5.1248,5.1456,4.9742,4.9278,4.9513,4.8696,4.7562,4.6426,4.6673,4.5887,4.4749,4.5006,4.4938,4.4695,4.4695,4.4695,4.4695,4.4695,4.4695,4.4695,4.4695,4.4695,4.4695,4.4695,4.4395,4.4056,4.3938,4.2748,4.1646,4.1531,4.0644,3.9181,3.6927,3.6332,3.5344,3.2794,0.0,3.1674,3.1705,3.1712,3.1819,3.2129,3.2491,3.2698,3.2698,3.2698,3.2698,3.2698,3.2698,3.2698,3.2698,3.2487,3.1507,2.9619,2.796,2.7103,2.7103,2.6449,2.577,2.508,2.4417,2.3767,2.3106,2.3106,2.3106,2.3106,2.3106,2.3106,2.3106,2.3106,2.3106,2.3106,2.3106,2.3106,2.3106,2.3106,2.3106,2.3106,5.3501,5.3501,5.3501,5.3501,5.3501,5.3501,5.3501,5.3501,5.3501,5.3501,5.345,5.3416,5.3416,5.2695,5.1895,5.1089,5.0322,4.9546,4.8661,4.8599,4.8599,4.8599,4.8645,4.9004,4.9703,4.9764,5.0374,5.1636,5.1682,5.2052,5.2691,5.2691,5.2691,5.2691,5.2691,5.2563,5.2284,5.2017,5.1787,5.1549,5.1152,5.0436,4.9601,4.9513,4.8195,4.6531,4.7522,4.6503,4.4857,4.5914,4.5582,4.4695,4.4695,4.4695,4.4695,4.4695,4.4695,4.4695,4.4695,4.4695,4.4695,4.4695,4.4669,4.4526,4.4017,4.3178,4.2371,4.188,4.1055,3.9814,3.7779,3.782,3.7156,3.3983,0.0,0.0,3.2589,3.1567,3.1257,3.2502,3.2688,3.2698,3.2698,3.2698,3.2698,3.2698,3.2698,3.2698,3.2698,3.1883,3.0529,2.8659,2.7638,2.7103,2.7103,2.6449,2.577,2.508,2.4417,2.3767,2.3106,2.3106,2.3106,2.3106,2.3106,2.3106,2.3106,2.3106,2.3106,2.3106,2.3106,2.3106,2.3106,2.3106,2.3106,2.3106,5.3501,5.3501,5.3501,5.3501,5.3501,5.3501,5.3501,5.3501,5.3501,5.3501,5.3501,5.3501,5.3501,5.3229,5.252,5.1201,5.0824,5.0053,4.8687,4.8599,4.8599,4.8599,4.9035,4.9204,4.902,5.0282,5.099,5.1082,5.1913,5.2467,5.2691,5.2691,5.2691,5.2691,5.2691,5.2631,5.2525,5.2276,5.2063,5.181,5.1564,5.1105,5.0594,5.0594,4.9254,4.7459,4.7853,4.6582,4.4776,4.5194,4.506,4.4695,4.4695,4.4695,4.4695,4.4695,4.4695,4.4695,4.4695,4.4695,4.4695,4.4695,4.4695,4.4643,4.4447,4.375,4.2993,4.2423,4.1647,4.0321,3.7945,3.7684,3.7031,3.4563,0.0,3.3632,3.3297,3.2833,3.2556,3.2664,3.2698,3.2698,3.2698,3.2698,3.2698,3.2698,3.2698,3.2698,3.2698,3.1796,3.0704,2.9412,2.8451,2.7689,2.7103,2.6852,2.6388,2.5709,2.5034,2.4355,2.3704,2.3293,2.3106,2.3106,2.3106,2.3106,2.3106,2.3106,2.3106,2.3106,2.3106,2.3106,2.3106,2.3106,2.3106,2.3106,5.3856,5.3856,5.3856,5.3856,5.3856,5.3856,5.3856,5.3653,5.3501,5.3501,5.3501,5.3501,5.3501,5.328,5.2677,5.157,5.1238,5.0599,4.9454,4.9163,4.8893,4.8604,4.9081,4.9127,4.8599,5.0005,5.0728,5.0697,5.1621,5.2298,5.2691,5.2691,5.2691,5.2691,5.2691,5.2669,5.2563,5.2322,5.2086,5.1834,5.1587,5.1354,5.1191,5.1191,5.0085,4.8546,4.888,4.7369,4.5288,4.5608,4.5261,4.4695,4.4695,4.4695,4.4695,4.4695,4.4695,4.4695,4.4695,4.4695,4.4695,4.4695,4.4695,4.4695,4.4695,4.4129,4.3502,4.3086,4.2281,4.0937,3.8609,3.8031,3.7218,3.5107,3.4619,3.4295,3.3671,3.3438,3.3154,3.2755,3.2698,3.2698,3.2698,3.2698,3.2698,3.2698,3.2698,3.2698,3.2698,3.1796,3.0878,2.9943,2.8977,2.8041,2.7103,2.7103,2.6761,2.6097,2.541,2.4764,2.4077,2.3425,2.3106,2.3106,2.3106,2.3106,2.3106,2.3106,2.3106,2.3106,2.3106,2.3106,2.3106,2.3106,2.3106,2.3106,5.46,5.46,5.4583,5.4583,5.4583,5.4583,5.4583,5.3974,5.3501,5.3501,5.3501,5.3501,5.3501,5.2799,5.2307,5.2307,5.157,5.1107,5.1089,5.0342,4.9526,4.864,4.8599,4.8599,4.8599,4.8599,4.9312,5.0697,5.0713,5.1405,5.2691,5.2691,5.2691,5.2691,5.2691,5.2563,5.2284,5.2101,5.1834,5.1587,5.1308,5.1191,5.1191,5.1191,5.0522,4.9747,5.0799,4.9131,4.6583,4.765,4.6556,4.4722,4.4722,4.4695,4.4695,4.4695,4.4695,4.4695,4.4695,4.4695,4.4695,4.4695,4.4695,4.4695,4.4695,4.4291,4.3899,4.3886,4.2984,4.1686,4.0,3.9199,3.8043,3.5779,3.4897,3.4295,3.3681,3.3097,3.2698,3.2698,3.2698,3.2698,3.2698,3.2698,3.2698,3.2698,3.2698,3.2698,3.2698,3.1825,3.0878,2.9943,2.9007,2.8071,2.7103,2.7103,2.6761,2.6106,2.541,2.4764,2.4077,2.3425,2.3106,2.3106,2.3106,2.3106,2.3106,2.3106,2.3106,2.3106,2.3106,2.3106,2.3106,2.3106,2.3106,2.3106,5.46,5.4177,5.3822,5.3822,5.3822,5.3822,5.3822,5.3653,5.3501,5.3501,5.3501,5.3501,5.3501,5.328,5.2903,5.2343,5.2076,5.1459,5.0322,5.0026,4.9526,4.864,4.8599,4.8599,4.8599,4.9574,5.0282,5.0697,5.1636,5.2313,5.2691,5.2691,5.2691,5.2691,5.2691,5.2669,5.2563,5.217,5.1941,5.1849,5.1378,5.1191,5.1191,5.1191,5.0522,4.9649,4.9965,4.8983,4.7573,4.7889,4.7573,4.688,4.6137,4.5342,4.4695,4.4695,4.4695,4.4695,4.4695,4.4695,4.4695,4.4695,4.4695,4.4695,4.4695,4.4291,4.3781,4.3363,4.2709,4.1569,3.9465,3.8928,3.8188,3.6336,3.5872,3.5405,3.4379,3.4071,3.366,3.2812,3.2698,3.2698,3.2698,3.2698,3.2698,3.2698,3.2698,3.2698,3.2698,3.243,3.1536,2.9943,2.9619,2.8719,2.7103,2.7103,2.7012,2.6792,2.5664,2.5019,2.4764,2.3611,2.3106,2.3106,2.3106,2.3106,2.3106,2.3106,2.3106,2.3106,2.3106,2.3106,2.3106,2.3106,2.3106,2.3106,5.5463,5.4888,5.438,5.438,5.4126,5.394,5.394,5.3687,5.3501,5.3501,5.3501,5.3501,5.3501,5.3501,5.3297,5.2816,5.2781,5.2219,5.0935,5.084,5.0322,4.9163,4.9102,4.8939,4.862,4.9435,5.0005,5.0297,5.139,5.2052,5.2313,5.259,5.2691,5.2691,5.2691,5.2631,5.2518,5.2147,5.1941,5.1787,5.1354,5.1191,5.1191,5.1191,5.0799,5.022,5.022,4.9523,4.8646,4.8646,4.8357,4.7802,4.6751,4.594,4.5261,4.483,4.4695,4.4695,4.4695,4.4695,4.4643,4.4447,4.4525,4.4695,4.4695,4.4291,4.3807,4.3428,4.2748,4.1685,3.9959,3.9175,3.8372,3.7,3.6309,3.568,3.4952,3.4463,3.3857,3.3143,3.2841,3.2698,3.2698,3.2698,3.2698,3.2698,3.2698,3.2698,3.2698,3.2698,3.2018,3.0499,3.009,2.9185,2.7668,2.7276,2.7103,2.7073,2.5755,2.5111,2.505,2.3704,2.3106,2.3106,2.3106,2.3106,2.3106,2.3106,2.3106,2.3106,2.3106,2.3106,2.3106,2.3106,2.3106,2.3106,5.6714,5.6155,5.5682,5.5614,5.5057,5.4583,5.4516,5.3923,5.3501,5.3501,5.3501,5.3501,5.3501,5.3501,5.3501,5.3501,5.3501,5.3161,5.2343,5.2307,5.1586,4.9967,4.9888,4.949,4.862,4.866,4.9035,4.9703,5.042,5.1097,5.1713,5.2406,5.2691,5.2691,5.2691,5.2563,5.2329,5.2109,5.188,5.161,5.1331,5.1214,5.1191,5.1191,5.1191,5.1191,5.1191,5.057,4.9747,4.9747,4.9018,4.7979,4.6985,4.6557,4.619,4.5167,4.4776,4.4695,4.4695,4.4695,4.4577,4.4108,4.4304,4.4616,4.4564,4.4173,4.3807,4.3755,4.2879,4.1865,4.0975,3.9779,3.8608,3.7646,3.6421,3.5532,3.5433,3.4418,3.3653,3.3607,3.3069,3.2698,3.2698,3.2698,3.2698,3.2698,3.2698,3.2698,3.2698,3.2698,3.2277,3.1314,3.0382,2.9442,2.851,2.7578,2.7103,2.7073,2.5817,2.5173,2.505,2.3767,2.3175,2.3106,2.3106,2.3106,2.3106,2.3106,2.3106,2.3106,2.3106,2.3106,2.3106,2.3106,2.3106,2.3106,5.5936,5.58,5.5513,5.4938,5.4702,5.4414,5.3822,5.3602,5.3501,5.3501,5.3501,5.3501,5.3501,5.3501,5.3501,5.3501,5.3501,5.3161,5.2343,5.2307,5.1586,4.9967,4.9888,4.949,4.862,4.9174,4.9549,4.9703,5.0897,5.1559,5.1713,5.2406,5.2691,5.2691,5.2691,5.2669,5.2586,5.2344,5.2117,5.1895,5.161,5.1378,5.1191,5.1191,5.1191,5.1191,5.1191,5.105,5.0846,5.0846,5.0148,4.9205,4.8983,4.774,4.6348,4.6098,4.5395,4.4695,4.4695,4.4695,4.4669,4.4551,4.4304,4.3938,4.3467,4.3271,4.3088,4.2657,4.2016,4.1242,4.0428,4.0018,3.9298,3.7752,3.7245,3.6654,3.5559,3.4758,3.4138,3.3653,3.3069,3.2698,3.2698,3.2698,3.2698,3.2698,3.2698,3.2698,3.2698,3.2698,3.2277,3.1314,3.0382,2.9442,2.851,2.7578,2.7103,2.7103,2.6266,2.5625,2.508,2.4263,2.3611,2.3106,2.3106,2.3106,2.3106,2.3106,2.3106,2.3106,2.3106,2.3106,2.3106,2.3106,2.3106,2.3106,5.6681,5.6172,5.5581,5.5192,5.4532,5.394,5.3568,5.3501,5.3501,5.3501,5.3501,5.3501,5.3501,5.3501,5.3501,5.3501,5.3501,5.3314,5.2903,5.2868,5.2148,5.0554,5.0477,4.9872,4.864,4.9312,4.9703,4.9703,5.0713,5.1221,5.1221,5.159,5.1929,5.2236,5.2236,5.2406,5.2691,5.2397,5.2238,5.2132,5.188,5.1625,5.1401,5.1401,5.1308,5.1191,5.1191,5.1191,5.1191,5.1191,5.0822,5.0268,4.9771,4.8834,4.7714,4.6699,4.5993,4.5395,4.4857,4.4499,4.4251,4.3963,4.3689,4.3454,4.3441,4.301,4.2526,4.2251,4.1716,4.1161,4.0744,4.0351,3.9673,3.8346,3.7779,3.7123,3.5982,3.5312,3.4714,3.411,3.3512,3.3012,3.2727,3.2698,3.2698,3.2698,3.2698,3.2698,3.2698,3.2698,3.2277,3.1314,3.0382,2.9442,2.851,2.7578,2.7103,2.7103,2.6419,2.5747,2.508,2.4425,2.3736,2.3106,2.3106,2.3106,2.3106,2.3456,2.358,2.358,2.358,2.358,2.3542,2.323,2.3106,2.3106,5.7391,5.6545,5.5665,5.553,5.4499,5.3653,5.3518,5.3501,5.3501,5.3501,5.3501,5.3501,5.3501,5.3501,5.3501,5.3501,5.3501,5.3501,5.3501,5.3501,5.2834,5.1385,5.1164,5.0384,4.8872,4.9504,4.9826,4.9703,5.0482,5.0867,5.0867,5.099,5.1344,5.1882,5.1882,5.219,5.2691,5.2457,5.2352,5.2284,5.2132,5.188,5.161,5.1657,5.1471,5.1176,5.1118,5.0998,5.0885,5.0885,5.0936,5.0871,4.9972,4.9587,4.9046,4.7102,4.6299,4.5841,4.4716,4.4081,4.3611,4.3114,4.2918,4.2997,4.3507,4.2879,4.216,4.2068,4.1651,4.1286,4.1286,4.0744,3.9968,3.8948,3.8176,3.7391,3.6429,3.5763,3.5174,3.4563,3.3885,3.3257,3.2755,3.2698,3.2698,3.2698,3.2698,3.2698,3.2698,3.2698,3.2344,3.1555,3.047,2.953,2.8749,2.781,2.7336,2.7336,2.6956,2.6219,2.5257,2.4872,2.4309,2.3658,2.3565,2.3596,2.3689,2.3976,2.417,2.4263,2.4139,2.4108,2.4015,2.3362,2.3106,2.3106,5.5969,5.5834,5.5496,5.4854,5.4583,5.4228,5.3602,5.3501,5.3501,5.3501,5.3501,5.3501,5.3501,5.3501,5.3501,5.3501,5.3501,5.3501,5.3501,5.3501,5.3093,5.2182,5.1477,5.0672,4.973,5.0283,5.0288,4.9703,5.0944,5.1559,5.1575,5.2175,5.2483,5.2553,5.2553,5.2637,5.2691,5.2669,5.2503,5.2306,5.2261,5.1987,5.1634,5.1872,5.1641,5.1139,5.0801,5.0185,4.9561,4.9561,4.9898,5.0307,5.0153,4.9487,4.8514,4.7352,4.5928,4.4534,4.3519,4.3167,4.3088,4.301,4.2644,4.233,4.2408,4.2304,4.2055,4.1533,4.1376,4.1286,4.1286,4.1211,4.063,3.9052,3.8687,3.8082,3.6538,3.5763,3.5174,3.4563,3.3501,3.2784,3.2698,3.2698,3.2698,3.2698,3.2698,3.2698,3.2698,3.2698,3.2641,3.2516,3.0801,2.9854,2.9707,2.8769,2.831,2.8331,2.9027,2.8185,2.5984,2.6702,2.6663,2.5995,2.5438,2.5499,2.5942,2.4649,2.4448,2.4926,2.4324,2.4108,2.4015,2.3362,2.3106,2.3106,5.6308,5.5969,5.5462,5.4718,5.4245,5.3873,5.3551,5.3501,5.3501,5.3501,5.3501,5.3501,5.3501,5.3501,5.3501,5.3501,5.3501,5.3501,5.3501,5.3501,5.2938,5.168,5.1276,5.0499,4.9203,5.0186,5.0359,4.9703,5.1036,5.1513,5.1144,5.1451,5.159,5.1605,5.1975,5.2359,5.2691,5.2691,5.2631,5.2525,5.2525,5.2322,5.201,5.2117,5.1721,5.1037,5.0721,5.0253,4.9868,5.0242,5.0278,5.0196,5.0196,4.9636,4.867,4.7034,4.6006,4.5031,4.3438,4.2788,4.2539,4.2539,4.2121,4.169,4.169,4.169,4.1625,4.1338,4.1286,4.1286,4.1286,4.1286,4.0732,3.9078,3.9221,3.8778,3.6619,3.646,3.6057,3.4675,3.3717,3.3069,3.2727,3.2698,3.2698,3.2698,3.2698,3.2698,3.2698,3.2698,3.2459,3.194,3.1111,3.0441,2.9913,2.9501,2.9264,2.9303,2.9707,2.9107,2.7675,2.8086,2.7919,2.7271,2.6961,2.6698,2.6481,2.6125,2.5867,2.5617,2.5341,2.4749,2.4015,2.3362,2.3106,2.3106]}]]